<?xml version="1.0" encoding="UTF-8" standalone="no" ?>
<gpx xmlns="http://www.topografix.com/GPX/1/1" xmlns:xsi="http://www.w3.org/2001/XMLSchema-instance" xsi:schemaLocation="http://www.topografix.com/GPX/1/1 http://www.topografix.com/GPX/1/1/gpx.xsd" version="1.1" creator="VisuGPX - https://www.visugpx.com">
  <metadata>
    <name>Autour de Montdoumerc</name>
    <desc><![CDATA[Ce circuit en forme de boucle permet de découvrir la campagne autour de Montdoumerc pour s'achever par la découverte de ce charmant village fleuri.]]></desc>
  </metadata>
  <trk>
    <name><![CDATA[Montdoumerc]]></name>
    <trkseg>
      <trkpt lat="44.28579" lon="1.51903">
        <ele>256.7</ele>
        <time>2018-06-17T12:19:54Z</time>
      </trkpt>
      <trkpt lat="44.28579" lon="1.51909">
        <ele>256.7</ele>
        <time>2018-06-17T12:20:05Z</time>
      </trkpt>
      <trkpt lat="44.28576" lon="1.51903">
        <ele>256.7</ele>
        <time>2018-06-17T12:20:14Z</time>
      </trkpt>
      <trkpt lat="44.28576" lon="1.51896">
        <ele>256.8</ele>
        <time>2018-06-17T12:20:17Z</time>
      </trkpt>
      <trkpt lat="44.2858" lon="1.51901">
        <ele>257</ele>
        <time>2018-06-17T12:20:30Z</time>
      </trkpt>
      <trkpt lat="44.28582" lon="1.51908">
        <ele>257.4</ele>
        <time>2018-06-17T12:20:33Z</time>
      </trkpt>
      <trkpt lat="44.28584" lon="1.51914">
        <ele>257.8</ele>
        <time>2018-06-17T12:20:37Z</time>
      </trkpt>
      <trkpt lat="44.28587" lon="1.51919">
        <ele>258.1</ele>
        <time>2018-06-17T12:20:42Z</time>
      </trkpt>
      <trkpt lat="44.28588" lon="1.51925">
        <ele>258.1</ele>
        <time>2018-06-17T12:20:47Z</time>
      </trkpt>
      <trkpt lat="44.28589" lon="1.51933">
        <ele>257.8</ele>
        <time>2018-06-17T12:20:52Z</time>
      </trkpt>
      <trkpt lat="44.28589" lon="1.5194">
        <ele>257.3</ele>
        <time>2018-06-17T12:20:56Z</time>
      </trkpt>
      <trkpt lat="44.28586" lon="1.51946">
        <ele>256.7</ele>
        <time>2018-06-17T12:21:06Z</time>
      </trkpt>
      <trkpt lat="44.28585" lon="1.51954">
        <ele>256</ele>
        <time>2018-06-17T12:21:13Z</time>
      </trkpt>
      <trkpt lat="44.28584" lon="1.51963">
        <ele>255.6</ele>
        <time>2018-06-17T12:21:17Z</time>
      </trkpt>
      <trkpt lat="44.28585" lon="1.51969">
        <ele>255.2</ele>
        <time>2018-06-17T12:21:22Z</time>
      </trkpt>
      <trkpt lat="44.28585" lon="1.51961">
        <ele>255</ele>
        <time>2018-06-17T12:21:33Z</time>
      </trkpt>
      <trkpt lat="44.28584" lon="1.51953">
        <ele>254.9</ele>
        <time>2018-06-17T12:21:36Z</time>
      </trkpt>
      <trkpt lat="44.28583" lon="1.51944">
        <ele>255</ele>
        <time>2018-06-17T12:21:40Z</time>
      </trkpt>
      <trkpt lat="44.28584" lon="1.51937">
        <ele>255.2</ele>
        <time>2018-06-17T12:21:43Z</time>
      </trkpt>
      <trkpt lat="44.28588" lon="1.51933">
        <ele>255.5</ele>
        <time>2018-06-17T12:21:46Z</time>
      </trkpt>
      <trkpt lat="44.28593" lon="1.51934">
        <ele>255.9</ele>
        <time>2018-06-17T12:21:50Z</time>
      </trkpt>
      <trkpt lat="44.28597" lon="1.51937">
        <ele>256.3</ele>
        <time>2018-06-17T12:21:54Z</time>
      </trkpt>
      <trkpt lat="44.28601" lon="1.51939">
        <ele>256.6</ele>
        <time>2018-06-17T12:21:57Z</time>
      </trkpt>
      <trkpt lat="44.28606" lon="1.51942">
        <ele>256.7</ele>
        <time>2018-06-17T12:22:00Z</time>
      </trkpt>
      <trkpt lat="44.28611" lon="1.51947">
        <ele>256.7</ele>
        <time>2018-06-17T12:22:04Z</time>
      </trkpt>
      <trkpt lat="44.28615" lon="1.51952">
        <ele>256.6</ele>
        <time>2018-06-17T12:22:09Z</time>
      </trkpt>
      <trkpt lat="44.2862" lon="1.51955">
        <ele>256.4</ele>
        <time>2018-06-17T12:22:15Z</time>
      </trkpt>
      <trkpt lat="44.28625" lon="1.51957">
        <ele>256.1</ele>
        <time>2018-06-17T12:22:20Z</time>
      </trkpt>
      <trkpt lat="44.2863" lon="1.51959">
        <ele>255.9</ele>
        <time>2018-06-17T12:22:25Z</time>
      </trkpt>
      <trkpt lat="44.28634" lon="1.51962">
        <ele>255.6</ele>
        <time>2018-06-17T12:22:32Z</time>
      </trkpt>
      <trkpt lat="44.28639" lon="1.51963">
        <ele>255.3</ele>
        <time>2018-06-17T12:22:38Z</time>
      </trkpt>
      <trkpt lat="44.28644" lon="1.51967">
        <ele>255</ele>
        <time>2018-06-17T12:22:43Z</time>
      </trkpt>
      <trkpt lat="44.28648" lon="1.51972">
        <ele>254.6</ele>
        <time>2018-06-17T12:22:50Z</time>
      </trkpt>
      <trkpt lat="44.28651" lon="1.51976">
        <ele>254.1</ele>
        <time>2018-06-17T12:22:57Z</time>
      </trkpt>
      <trkpt lat="44.28654" lon="1.51982">
        <ele>253.4</ele>
        <time>2018-06-17T12:23:01Z</time>
      </trkpt>
      <trkpt lat="44.28657" lon="1.51987">
        <ele>252.7</ele>
        <time>2018-06-17T12:23:05Z</time>
      </trkpt>
      <trkpt lat="44.2866" lon="1.51994">
        <ele>251.9</ele>
        <time>2018-06-17T12:23:12Z</time>
      </trkpt>
      <trkpt lat="44.28664" lon="1.51998">
        <ele>251</ele>
        <time>2018-06-17T12:23:21Z</time>
      </trkpt>
      <trkpt lat="44.28668" lon="1.52002">
        <ele>250.3</ele>
        <time>2018-06-17T12:23:26Z</time>
      </trkpt>
      <trkpt lat="44.28672" lon="1.52007">
        <ele>249.5</ele>
        <time>2018-06-17T12:23:31Z</time>
      </trkpt>
      <trkpt lat="44.28675" lon="1.52011">
        <ele>248.7</ele>
        <time>2018-06-17T12:23:35Z</time>
      </trkpt>
      <trkpt lat="44.2868" lon="1.52013">
        <ele>248</ele>
        <time>2018-06-17T12:23:44Z</time>
      </trkpt>
      <trkpt lat="44.28685" lon="1.52014">
        <ele>247.4</ele>
        <time>2018-06-17T12:23:50Z</time>
      </trkpt>
      <trkpt lat="44.2869" lon="1.52015">
        <ele>246.7</ele>
        <time>2018-06-17T12:23:56Z</time>
      </trkpt>
      <trkpt lat="44.28695" lon="1.52015">
        <ele>246.1</ele>
        <time>2018-06-17T12:24:00Z</time>
      </trkpt>
      <trkpt lat="44.287" lon="1.52017">
        <ele>245.5</ele>
        <time>2018-06-17T12:24:05Z</time>
      </trkpt>
      <trkpt lat="44.28704" lon="1.52018">
        <ele>245</ele>
        <time>2018-06-17T12:24:09Z</time>
      </trkpt>
      <trkpt lat="44.2871" lon="1.5202">
        <ele>244.6</ele>
        <time>2018-06-17T12:24:16Z</time>
      </trkpt>
      <trkpt lat="44.28714" lon="1.52022">
        <ele>244.1</ele>
        <time>2018-06-17T12:24:22Z</time>
      </trkpt>
      <trkpt lat="44.28719" lon="1.52023">
        <ele>243.5</ele>
        <time>2018-06-17T12:24:26Z</time>
      </trkpt>
      <trkpt lat="44.28724" lon="1.52025">
        <ele>242.8</ele>
        <time>2018-06-17T12:24:32Z</time>
      </trkpt>
      <trkpt lat="44.28727" lon="1.5203">
        <ele>241.9</ele>
        <time>2018-06-17T12:24:44Z</time>
      </trkpt>
      <trkpt lat="44.28731" lon="1.5203">
        <ele>241.1</ele>
        <time>2018-06-17T12:24:52Z</time>
      </trkpt>
      <trkpt lat="44.28736" lon="1.52033">
        <ele>240.4</ele>
        <time>2018-06-17T12:24:59Z</time>
      </trkpt>
      <trkpt lat="44.2874" lon="1.52035">
        <ele>239.8</ele>
        <time>2018-06-17T12:25:07Z</time>
      </trkpt>
      <trkpt lat="44.28744" lon="1.5204">
        <ele>239.6</ele>
        <time>2018-06-17T12:25:14Z</time>
      </trkpt>
      <trkpt lat="44.28746" lon="1.52046">
        <ele>239.6</ele>
        <time>2018-06-17T12:25:19Z</time>
      </trkpt>
      <trkpt lat="44.28747" lon="1.52052">
        <ele>239.9</ele>
        <time>2018-06-17T12:25:24Z</time>
      </trkpt>
      <trkpt lat="44.2875" lon="1.52057">
        <ele>240.5</ele>
        <time>2018-06-17T12:25:31Z</time>
      </trkpt>
      <trkpt lat="44.28751" lon="1.52064">
        <ele>241.3</ele>
        <time>2018-06-17T12:25:39Z</time>
      </trkpt>
      <trkpt lat="44.28754" lon="1.5207">
        <ele>242</ele>
        <time>2018-06-17T12:25:44Z</time>
      </trkpt>
      <trkpt lat="44.28755" lon="1.52077">
        <ele>242.8</ele>
        <time>2018-06-17T12:25:52Z</time>
      </trkpt>
      <trkpt lat="44.28758" lon="1.52083">
        <ele>243.5</ele>
        <time>2018-06-17T12:25:59Z</time>
      </trkpt>
      <trkpt lat="44.28761" lon="1.52088">
        <ele>244.1</ele>
        <time>2018-06-17T12:26:06Z</time>
      </trkpt>
      <trkpt lat="44.28762" lon="1.52095">
        <ele>244.7</ele>
        <time>2018-06-17T12:26:13Z</time>
      </trkpt>
      <trkpt lat="44.28764" lon="1.52101">
        <ele>245.4</ele>
        <time>2018-06-17T12:26:23Z</time>
      </trkpt>
      <trkpt lat="44.28768" lon="1.52106">
        <ele>246.4</ele>
        <time>2018-06-17T12:26:31Z</time>
      </trkpt>
      <trkpt lat="44.28773" lon="1.5211">
        <ele>247.8</ele>
        <time>2018-06-17T12:26:38Z</time>
      </trkpt>
      <trkpt lat="44.28777" lon="1.52111">
        <ele>249.3</ele>
        <time>2018-06-17T12:26:48Z</time>
      </trkpt>
      <trkpt lat="44.28782" lon="1.52112">
        <ele>250.8</ele>
        <time>2018-06-17T12:26:57Z</time>
      </trkpt>
      <trkpt lat="44.28787" lon="1.52113">
        <ele>252.2</ele>
        <time>2018-06-17T12:27:09Z</time>
      </trkpt>
      <trkpt lat="44.28791" lon="1.5211">
        <ele>253.3</ele>
        <time>2018-06-17T12:27:19Z</time>
      </trkpt>
      <trkpt lat="44.28795" lon="1.52106">
        <ele>254.1</ele>
        <time>2018-06-17T12:27:24Z</time>
      </trkpt>
      <trkpt lat="44.28798" lon="1.521">
        <ele>254.6</ele>
        <time>2018-06-17T12:27:30Z</time>
      </trkpt>
      <trkpt lat="44.28801" lon="1.52096">
        <ele>255.1</ele>
        <time>2018-06-17T12:27:34Z</time>
      </trkpt>
      <trkpt lat="44.28804" lon="1.52092">
        <ele>255.4</ele>
        <time>2018-06-17T12:27:41Z</time>
      </trkpt>
      <trkpt lat="44.28808" lon="1.52087">
        <ele>255.5</ele>
        <time>2018-06-17T12:27:48Z</time>
      </trkpt>
      <trkpt lat="44.28812" lon="1.52084">
        <ele>255.4</ele>
        <time>2018-06-17T12:27:52Z</time>
      </trkpt>
      <trkpt lat="44.28816" lon="1.5208">
        <ele>255.1</ele>
        <time>2018-06-17T12:27:57Z</time>
      </trkpt>
      <trkpt lat="44.28821" lon="1.52077">
        <ele>254.8</ele>
        <time>2018-06-17T12:28:01Z</time>
      </trkpt>
      <trkpt lat="44.28825" lon="1.52073">
        <ele>254.5</ele>
        <time>2018-06-17T12:28:07Z</time>
      </trkpt>
      <trkpt lat="44.28829" lon="1.5207">
        <ele>254.3</ele>
        <time>2018-06-17T12:28:12Z</time>
      </trkpt>
      <trkpt lat="44.28834" lon="1.52066">
        <ele>254.4</ele>
        <time>2018-06-17T12:28:17Z</time>
      </trkpt>
      <trkpt lat="44.28837" lon="1.52062">
        <ele>254.6</ele>
        <time>2018-06-17T12:28:21Z</time>
      </trkpt>
      <trkpt lat="44.28842" lon="1.52057">
        <ele>255</ele>
        <time>2018-06-17T12:28:26Z</time>
      </trkpt>
      <trkpt lat="44.28847" lon="1.52055">
        <ele>255.5</ele>
        <time>2018-06-17T12:28:31Z</time>
      </trkpt>
      <trkpt lat="44.28852" lon="1.52052">
        <ele>255.9</ele>
        <time>2018-06-17T12:28:36Z</time>
      </trkpt>
      <trkpt lat="44.28856" lon="1.52049">
        <ele>256.2</ele>
        <time>2018-06-17T12:28:40Z</time>
      </trkpt>
      <trkpt lat="44.2886" lon="1.52046">
        <ele>256.4</ele>
        <time>2018-06-17T12:28:45Z</time>
      </trkpt>
      <trkpt lat="44.28866" lon="1.52043">
        <ele>256.4</ele>
        <time>2018-06-17T12:28:51Z</time>
      </trkpt>
      <trkpt lat="44.28871" lon="1.52039">
        <ele>256.3</ele>
        <time>2018-06-17T12:28:56Z</time>
      </trkpt>
      <trkpt lat="44.28876" lon="1.52035">
        <ele>256</ele>
        <time>2018-06-17T12:29:02Z</time>
      </trkpt>
      <trkpt lat="44.2888" lon="1.52032">
        <ele>255.5</ele>
        <time>2018-06-17T12:29:05Z</time>
      </trkpt>
      <trkpt lat="44.28884" lon="1.52029">
        <ele>255</ele>
        <time>2018-06-17T12:29:10Z</time>
      </trkpt>
      <trkpt lat="44.28888" lon="1.52027">
        <ele>254.5</ele>
        <time>2018-06-17T12:29:15Z</time>
      </trkpt>
      <trkpt lat="44.28893" lon="1.52025">
        <ele>254</ele>
        <time>2018-06-17T12:29:23Z</time>
      </trkpt>
      <trkpt lat="44.28898" lon="1.52023">
        <ele>253.5</ele>
        <time>2018-06-17T12:29:28Z</time>
      </trkpt>
      <trkpt lat="44.28903" lon="1.52021">
        <ele>253</ele>
        <time>2018-06-17T12:29:31Z</time>
      </trkpt>
      <trkpt lat="44.28908" lon="1.52021">
        <ele>252.5</ele>
        <time>2018-06-17T12:29:35Z</time>
      </trkpt>
      <trkpt lat="44.28913" lon="1.5202">
        <ele>251.8</ele>
        <time>2018-06-17T12:29:40Z</time>
      </trkpt>
      <trkpt lat="44.28918" lon="1.52017">
        <ele>251.1</ele>
        <time>2018-06-17T12:29:44Z</time>
      </trkpt>
      <trkpt lat="44.28922" lon="1.52014">
        <ele>250.4</ele>
        <time>2018-06-17T12:29:50Z</time>
      </trkpt>
      <trkpt lat="44.28926" lon="1.52011">
        <ele>249.8</ele>
        <time>2018-06-17T12:29:56Z</time>
      </trkpt>
      <trkpt lat="44.28931" lon="1.52008">
        <ele>249.3</ele>
        <time>2018-06-17T12:30:00Z</time>
      </trkpt>
      <trkpt lat="44.28936" lon="1.52006">
        <ele>248.9</ele>
        <time>2018-06-17T12:30:04Z</time>
      </trkpt>
      <trkpt lat="44.2894" lon="1.52002">
        <ele>248.6</ele>
        <time>2018-06-17T12:30:09Z</time>
      </trkpt>
      <trkpt lat="44.28945" lon="1.51999">
        <ele>248.2</ele>
        <time>2018-06-17T12:30:14Z</time>
      </trkpt>
      <trkpt lat="44.28949" lon="1.51996">
        <ele>247.7</ele>
        <time>2018-06-17T12:30:21Z</time>
      </trkpt>
      <trkpt lat="44.28953" lon="1.51994">
        <ele>247.2</ele>
        <time>2018-06-17T12:30:30Z</time>
      </trkpt>
      <trkpt lat="44.28957" lon="1.51991">
        <ele>246.6</ele>
        <time>2018-06-17T12:30:33Z</time>
      </trkpt>
      <trkpt lat="44.28961" lon="1.51987">
        <ele>245.9</ele>
        <time>2018-06-17T12:30:38Z</time>
      </trkpt>
      <trkpt lat="44.28965" lon="1.51984">
        <ele>245.4</ele>
        <time>2018-06-17T12:30:43Z</time>
      </trkpt>
      <trkpt lat="44.2897" lon="1.5198">
        <ele>244.9</ele>
        <time>2018-06-17T12:30:49Z</time>
      </trkpt>
      <trkpt lat="44.28974" lon="1.51976">
        <ele>244.5</ele>
        <time>2018-06-17T12:30:54Z</time>
      </trkpt>
      <trkpt lat="44.28978" lon="1.51972">
        <ele>244</ele>
        <time>2018-06-17T12:30:59Z</time>
      </trkpt>
      <trkpt lat="44.28982" lon="1.51969">
        <ele>243.5</ele>
        <time>2018-06-17T12:31:04Z</time>
      </trkpt>
      <trkpt lat="44.28987" lon="1.51965">
        <ele>242.8</ele>
        <time>2018-06-17T12:31:08Z</time>
      </trkpt>
      <trkpt lat="44.28991" lon="1.51961">
        <ele>242.2</ele>
        <time>2018-06-17T12:31:13Z</time>
      </trkpt>
      <trkpt lat="44.28995" lon="1.51956">
        <ele>241.6</ele>
        <time>2018-06-17T12:31:19Z</time>
      </trkpt>
      <trkpt lat="44.28998" lon="1.51951">
        <ele>241</ele>
        <time>2018-06-17T12:31:24Z</time>
      </trkpt>
      <trkpt lat="44.29001" lon="1.51948">
        <ele>240.4</ele>
        <time>2018-06-17T12:31:30Z</time>
      </trkpt>
      <trkpt lat="44.29006" lon="1.51944">
        <ele>239.9</ele>
        <time>2018-06-17T12:31:35Z</time>
      </trkpt>
      <trkpt lat="44.2901" lon="1.5194">
        <ele>239.4</ele>
        <time>2018-06-17T12:31:39Z</time>
      </trkpt>
      <trkpt lat="44.29013" lon="1.51935">
        <ele>238.8</ele>
        <time>2018-06-17T12:31:43Z</time>
      </trkpt>
      <trkpt lat="44.29017" lon="1.5193">
        <ele>238.1</ele>
        <time>2018-06-17T12:31:48Z</time>
      </trkpt>
      <trkpt lat="44.2902" lon="1.51925">
        <ele>237.4</ele>
        <time>2018-06-17T12:31:52Z</time>
      </trkpt>
      <trkpt lat="44.29024" lon="1.5192">
        <ele>236.5</ele>
        <time>2018-06-17T12:31:57Z</time>
      </trkpt>
      <trkpt lat="44.29029" lon="1.51916">
        <ele>235.4</ele>
        <time>2018-06-17T12:32:02Z</time>
      </trkpt>
      <trkpt lat="44.29032" lon="1.51911">
        <ele>234.3</ele>
        <time>2018-06-17T12:32:07Z</time>
      </trkpt>
      <trkpt lat="44.29036" lon="1.51906">
        <ele>233.3</ele>
        <time>2018-06-17T12:32:13Z</time>
      </trkpt>
      <trkpt lat="44.29039" lon="1.51901">
        <ele>232.3</ele>
        <time>2018-06-17T12:32:21Z</time>
      </trkpt>
      <trkpt lat="44.29043" lon="1.51898">
        <ele>231.6</ele>
        <time>2018-06-17T12:33:09Z</time>
      </trkpt>
      <trkpt lat="44.29046" lon="1.51893">
        <ele>231.2</ele>
        <time>2018-06-17T12:33:24Z</time>
      </trkpt>
      <trkpt lat="44.29049" lon="1.51887">
        <ele>230.9</ele>
        <time>2018-06-17T12:33:32Z</time>
      </trkpt>
      <trkpt lat="44.29053" lon="1.51885">
        <ele>230.6</ele>
        <time>2018-06-17T12:33:39Z</time>
      </trkpt>
      <trkpt lat="44.29057" lon="1.51882">
        <ele>230.5</ele>
        <time>2018-06-17T12:33:48Z</time>
      </trkpt>
      <trkpt lat="44.29061" lon="1.51876">
        <ele>230.4</ele>
        <time>2018-06-17T12:33:55Z</time>
      </trkpt>
      <trkpt lat="44.29064" lon="1.51871">
        <ele>230.3</ele>
        <time>2018-06-17T12:34:00Z</time>
      </trkpt>
      <trkpt lat="44.29067" lon="1.51866">
        <ele>230.3</ele>
        <time>2018-06-17T12:34:07Z</time>
      </trkpt>
      <trkpt lat="44.29071" lon="1.51863">
        <ele>230.3</ele>
        <time>2018-06-17T12:34:16Z</time>
      </trkpt>
      <trkpt lat="44.29075" lon="1.51859">
        <ele>230.2</ele>
        <time>2018-06-17T12:34:20Z</time>
      </trkpt>
      <trkpt lat="44.29078" lon="1.51854">
        <ele>230.1</ele>
        <time>2018-06-17T12:34:25Z</time>
      </trkpt>
      <trkpt lat="44.29082" lon="1.5185">
        <ele>229.9</ele>
        <time>2018-06-17T12:34:29Z</time>
      </trkpt>
      <trkpt lat="44.29085" lon="1.51845">
        <ele>229.6</ele>
        <time>2018-06-17T12:34:34Z</time>
      </trkpt>
      <trkpt lat="44.29089" lon="1.51841">
        <ele>229.3</ele>
        <time>2018-06-17T12:34:39Z</time>
      </trkpt>
      <trkpt lat="44.29093" lon="1.51837">
        <ele>229</ele>
        <time>2018-06-17T12:34:44Z</time>
      </trkpt>
      <trkpt lat="44.29095" lon="1.51832">
        <ele>228.7</ele>
        <time>2018-06-17T12:34:48Z</time>
      </trkpt>
      <trkpt lat="44.29099" lon="1.51827">
        <ele>228.6</ele>
        <time>2018-06-17T12:34:52Z</time>
      </trkpt>
      <trkpt lat="44.29102" lon="1.51821">
        <ele>228.4</ele>
        <time>2018-06-17T12:34:58Z</time>
      </trkpt>
      <trkpt lat="44.29106" lon="1.51817">
        <ele>228.2</ele>
        <time>2018-06-17T12:35:05Z</time>
      </trkpt>
      <trkpt lat="44.2911" lon="1.51813">
        <ele>228</ele>
        <time>2018-06-17T12:35:11Z</time>
      </trkpt>
      <trkpt lat="44.29114" lon="1.51807">
        <ele>227.8</ele>
        <time>2018-06-17T12:35:16Z</time>
      </trkpt>
      <trkpt lat="44.29118" lon="1.51803">
        <ele>227.6</ele>
        <time>2018-06-17T12:35:21Z</time>
      </trkpt>
      <trkpt lat="44.29121" lon="1.51799">
        <ele>227.3</ele>
        <time>2018-06-17T12:35:26Z</time>
      </trkpt>
      <trkpt lat="44.29126" lon="1.51795">
        <ele>227.1</ele>
        <time>2018-06-17T12:35:32Z</time>
      </trkpt>
      <trkpt lat="44.29129" lon="1.5179">
        <ele>226.9</ele>
        <time>2018-06-17T12:35:36Z</time>
      </trkpt>
      <trkpt lat="44.29132" lon="1.51785">
        <ele>226.7</ele>
        <time>2018-06-17T12:35:40Z</time>
      </trkpt>
      <trkpt lat="44.29137" lon="1.51782">
        <ele>226.5</ele>
        <time>2018-06-17T12:35:46Z</time>
      </trkpt>
      <trkpt lat="44.29141" lon="1.51778">
        <ele>226.3</ele>
        <time>2018-06-17T12:35:50Z</time>
      </trkpt>
      <trkpt lat="44.29145" lon="1.51774">
        <ele>226.1</ele>
        <time>2018-06-17T12:35:54Z</time>
      </trkpt>
      <trkpt lat="44.29149" lon="1.5177">
        <ele>225.9</ele>
        <time>2018-06-17T12:36:00Z</time>
      </trkpt>
      <trkpt lat="44.29153" lon="1.51768">
        <ele>225.5</ele>
        <time>2018-06-17T12:36:05Z</time>
      </trkpt>
      <trkpt lat="44.29157" lon="1.51763">
        <ele>225.1</ele>
        <time>2018-06-17T12:36:11Z</time>
      </trkpt>
      <trkpt lat="44.29161" lon="1.51759">
        <ele>224.8</ele>
        <time>2018-06-17T12:36:17Z</time>
      </trkpt>
      <trkpt lat="44.29165" lon="1.51755">
        <ele>224.5</ele>
        <time>2018-06-17T12:36:22Z</time>
      </trkpt>
      <trkpt lat="44.29168" lon="1.5175">
        <ele>224.2</ele>
        <time>2018-06-17T12:36:27Z</time>
      </trkpt>
      <trkpt lat="44.29172" lon="1.51746">
        <ele>223.9</ele>
        <time>2018-06-17T12:36:32Z</time>
      </trkpt>
      <trkpt lat="44.29176" lon="1.51741">
        <ele>223.6</ele>
        <time>2018-06-17T12:36:37Z</time>
      </trkpt>
      <trkpt lat="44.29179" lon="1.51736">
        <ele>223.2</ele>
        <time>2018-06-17T12:36:42Z</time>
      </trkpt>
      <trkpt lat="44.29182" lon="1.51732">
        <ele>222.7</ele>
        <time>2018-06-17T12:36:47Z</time>
      </trkpt>
      <trkpt lat="44.29185" lon="1.51725">
        <ele>222.2</ele>
        <time>2018-06-17T12:36:53Z</time>
      </trkpt>
      <trkpt lat="44.29188" lon="1.51721">
        <ele>221.6</ele>
        <time>2018-06-17T12:37:01Z</time>
      </trkpt>
      <trkpt lat="44.29192" lon="1.51714">
        <ele>221.1</ele>
        <time>2018-06-17T12:37:06Z</time>
      </trkpt>
      <trkpt lat="44.29195" lon="1.51708">
        <ele>220.6</ele>
        <time>2018-06-17T12:37:10Z</time>
      </trkpt>
      <trkpt lat="44.29198" lon="1.51704">
        <ele>220.2</ele>
        <time>2018-06-17T12:37:16Z</time>
      </trkpt>
      <trkpt lat="44.29201" lon="1.51699">
        <ele>219.9</ele>
        <time>2018-06-17T12:37:24Z</time>
      </trkpt>
      <trkpt lat="44.29204" lon="1.51692">
        <ele>219.7</ele>
        <time>2018-06-17T12:37:28Z</time>
      </trkpt>
      <trkpt lat="44.29207" lon="1.51686">
        <ele>219.7</ele>
        <time>2018-06-17T12:37:34Z</time>
      </trkpt>
      <trkpt lat="44.29211" lon="1.51683">
        <ele>219.8</ele>
        <time>2018-06-17T12:37:38Z</time>
      </trkpt>
      <trkpt lat="44.29215" lon="1.51678">
        <ele>219.8</ele>
        <time>2018-06-17T12:37:43Z</time>
      </trkpt>
      <trkpt lat="44.29219" lon="1.51674">
        <ele>219.9</ele>
        <time>2018-06-17T12:37:50Z</time>
      </trkpt>
      <trkpt lat="44.29222" lon="1.51669">
        <ele>220</ele>
        <time>2018-06-17T12:37:55Z</time>
      </trkpt>
      <trkpt lat="44.29226" lon="1.51664">
        <ele>220.1</ele>
        <time>2018-06-17T12:37:58Z</time>
      </trkpt>
      <trkpt lat="44.29229" lon="1.5166">
        <ele>220.3</ele>
        <time>2018-06-17T12:38:03Z</time>
      </trkpt>
      <trkpt lat="44.29233" lon="1.51655">
        <ele>220.4</ele>
        <time>2018-06-17T12:38:08Z</time>
      </trkpt>
      <trkpt lat="44.29237" lon="1.51649">
        <ele>220.6</ele>
        <time>2018-06-17T12:38:14Z</time>
      </trkpt>
      <trkpt lat="44.29241" lon="1.51644">
        <ele>220.7</ele>
        <time>2018-06-17T12:38:19Z</time>
      </trkpt>
      <trkpt lat="44.29244" lon="1.51638">
        <ele>220.8</ele>
        <time>2018-06-17T12:38:24Z</time>
      </trkpt>
      <trkpt lat="44.29246" lon="1.51632">
        <ele>220.9</ele>
        <time>2018-06-17T12:38:30Z</time>
      </trkpt>
      <trkpt lat="44.2925" lon="1.51628">
        <ele>220.9</ele>
        <time>2018-06-17T12:38:35Z</time>
      </trkpt>
      <trkpt lat="44.29255" lon="1.51625">
        <ele>220.8</ele>
        <time>2018-06-17T12:38:41Z</time>
      </trkpt>
      <trkpt lat="44.29259" lon="1.51622">
        <ele>220.7</ele>
        <time>2018-06-17T12:38:47Z</time>
      </trkpt>
      <trkpt lat="44.29264" lon="1.51619">
        <ele>220.5</ele>
        <time>2018-06-17T12:38:54Z</time>
      </trkpt>
      <trkpt lat="44.29269" lon="1.51616">
        <ele>220.2</ele>
        <time>2018-06-17T12:38:57Z</time>
      </trkpt>
      <trkpt lat="44.29272" lon="1.5161">
        <ele>219.9</ele>
        <time>2018-06-17T12:39:02Z</time>
      </trkpt>
      <trkpt lat="44.29276" lon="1.51604">
        <ele>219.6</ele>
        <time>2018-06-17T12:39:08Z</time>
      </trkpt>
      <trkpt lat="44.29278" lon="1.51598">
        <ele>219.4</ele>
        <time>2018-06-17T12:39:14Z</time>
      </trkpt>
      <trkpt lat="44.29282" lon="1.51592">
        <ele>219.3</ele>
        <time>2018-06-17T12:39:20Z</time>
      </trkpt>
      <trkpt lat="44.29284" lon="1.51586">
        <ele>219.4</ele>
        <time>2018-06-17T12:39:24Z</time>
      </trkpt>
      <trkpt lat="44.29287" lon="1.5158">
        <ele>219.6</ele>
        <time>2018-06-17T12:39:28Z</time>
      </trkpt>
      <trkpt lat="44.2929" lon="1.51574">
        <ele>219.9</ele>
        <time>2018-06-17T12:39:34Z</time>
      </trkpt>
      <trkpt lat="44.29294" lon="1.51568">
        <ele>220.2</ele>
        <time>2018-06-17T12:39:39Z</time>
      </trkpt>
      <trkpt lat="44.29298" lon="1.51563">
        <ele>220.5</ele>
        <time>2018-06-17T12:39:44Z</time>
      </trkpt>
      <trkpt lat="44.29301" lon="1.51557">
        <ele>220.6</ele>
        <time>2018-06-17T12:39:50Z</time>
      </trkpt>
      <trkpt lat="44.29305" lon="1.51552">
        <ele>220.7</ele>
        <time>2018-06-17T12:39:54Z</time>
      </trkpt>
      <trkpt lat="44.29309" lon="1.51549">
        <ele>220.7</ele>
        <time>2018-06-17T12:39:59Z</time>
      </trkpt>
      <trkpt lat="44.29313" lon="1.51544">
        <ele>220.5</ele>
        <time>2018-06-17T12:40:06Z</time>
      </trkpt>
      <trkpt lat="44.29317" lon="1.51538">
        <ele>220.4</ele>
        <time>2018-06-17T12:40:10Z</time>
      </trkpt>
      <trkpt lat="44.29321" lon="1.51533">
        <ele>220.2</ele>
        <time>2018-06-17T12:40:16Z</time>
      </trkpt>
      <trkpt lat="44.29325" lon="1.5153">
        <ele>220</ele>
        <time>2018-06-17T12:40:20Z</time>
      </trkpt>
      <trkpt lat="44.29328" lon="1.51524">
        <ele>219.7</ele>
        <time>2018-06-17T12:40:28Z</time>
      </trkpt>
      <trkpt lat="44.29331" lon="1.51518">
        <ele>219.2</ele>
        <time>2018-06-17T12:40:33Z</time>
      </trkpt>
      <trkpt lat="44.29334" lon="1.51513">
        <ele>218.7</ele>
        <time>2018-06-17T12:40:37Z</time>
      </trkpt>
      <trkpt lat="44.29337" lon="1.51508">
        <ele>218.1</ele>
        <time>2018-06-17T12:40:43Z</time>
      </trkpt>
      <trkpt lat="44.2934" lon="1.51502">
        <ele>217.5</ele>
        <time>2018-06-17T12:40:49Z</time>
      </trkpt>
      <trkpt lat="44.29343" lon="1.51496">
        <ele>216.9</ele>
        <time>2018-06-17T12:40:58Z</time>
      </trkpt>
      <trkpt lat="44.29347" lon="1.5149">
        <ele>216.4</ele>
        <time>2018-06-17T12:41:03Z</time>
      </trkpt>
      <trkpt lat="44.29349" lon="1.51485">
        <ele>215.9</ele>
        <time>2018-06-17T12:41:07Z</time>
      </trkpt>
      <trkpt lat="44.29352" lon="1.51479">
        <ele>215.3</ele>
        <time>2018-06-17T12:41:12Z</time>
      </trkpt>
      <trkpt lat="44.29355" lon="1.51472">
        <ele>214.8</ele>
        <time>2018-06-17T12:41:19Z</time>
      </trkpt>
      <trkpt lat="44.29357" lon="1.51465">
        <ele>214.5</ele>
        <time>2018-06-17T12:41:24Z</time>
      </trkpt>
      <trkpt lat="44.29358" lon="1.51458">
        <ele>214.2</ele>
        <time>2018-06-17T12:41:28Z</time>
      </trkpt>
      <trkpt lat="44.2936" lon="1.51452">
        <ele>214</ele>
        <time>2018-06-17T12:41:38Z</time>
      </trkpt>
      <trkpt lat="44.29361" lon="1.51445">
        <ele>213.8</ele>
        <time>2018-06-17T12:41:46Z</time>
      </trkpt>
      <trkpt lat="44.29363" lon="1.51439">
        <ele>213.6</ele>
        <time>2018-06-17T12:41:51Z</time>
      </trkpt>
      <trkpt lat="44.29364" lon="1.51432">
        <ele>213.4</ele>
        <time>2018-06-17T12:41:55Z</time>
      </trkpt>
      <trkpt lat="44.29365" lon="1.51424">
        <ele>213.2</ele>
        <time>2018-06-17T12:41:59Z</time>
      </trkpt>
      <trkpt lat="44.29366" lon="1.51417">
        <ele>213.1</ele>
        <time>2018-06-17T12:42:04Z</time>
      </trkpt>
      <trkpt lat="44.29367" lon="1.5141">
        <ele>213</ele>
        <time>2018-06-17T12:42:08Z</time>
      </trkpt>
      <trkpt lat="44.29368" lon="1.51404">
        <ele>212.9</ele>
        <time>2018-06-17T12:42:14Z</time>
      </trkpt>
      <trkpt lat="44.29369" lon="1.51397">
        <ele>212.8</ele>
        <time>2018-06-17T12:42:19Z</time>
      </trkpt>
      <trkpt lat="44.29371" lon="1.51391">
        <ele>212.7</ele>
        <time>2018-06-17T12:42:22Z</time>
      </trkpt>
      <trkpt lat="44.29373" lon="1.51384">
        <ele>212.5</ele>
        <time>2018-06-17T12:42:26Z</time>
      </trkpt>
      <trkpt lat="44.29374" lon="1.51378">
        <ele>212.5</ele>
        <time>2018-06-17T12:42:31Z</time>
      </trkpt>
      <trkpt lat="44.29375" lon="1.51371">
        <ele>212.4</ele>
        <time>2018-06-17T12:42:36Z</time>
      </trkpt>
      <trkpt lat="44.29378" lon="1.51365">
        <ele>212.3</ele>
        <time>2018-06-17T12:42:41Z</time>
      </trkpt>
      <trkpt lat="44.2938" lon="1.51358">
        <ele>212.2</ele>
        <time>2018-06-17T12:42:46Z</time>
      </trkpt>
      <trkpt lat="44.29382" lon="1.51352">
        <ele>211.9</ele>
        <time>2018-06-17T12:42:51Z</time>
      </trkpt>
      <trkpt lat="44.29383" lon="1.51345">
        <ele>211.6</ele>
        <time>2018-06-17T12:42:56Z</time>
      </trkpt>
      <trkpt lat="44.29386" lon="1.51339">
        <ele>211.4</ele>
        <time>2018-06-17T12:43:00Z</time>
      </trkpt>
      <trkpt lat="44.29388" lon="1.51332">
        <ele>211.1</ele>
        <time>2018-06-17T12:43:08Z</time>
      </trkpt>
      <trkpt lat="44.2939" lon="1.51326">
        <ele>210.9</ele>
        <time>2018-06-17T12:43:14Z</time>
      </trkpt>
      <trkpt lat="44.2939" lon="1.5132">
        <ele>210.6</ele>
        <time>2018-06-17T12:43:20Z</time>
      </trkpt>
      <trkpt lat="44.29392" lon="1.51314">
        <ele>210.4</ele>
        <time>2018-06-17T12:43:24Z</time>
      </trkpt>
      <trkpt lat="44.29394" lon="1.51308">
        <ele>210.1</ele>
        <time>2018-06-17T12:43:29Z</time>
      </trkpt>
      <trkpt lat="44.29395" lon="1.51302">
        <ele>209.9</ele>
        <time>2018-06-17T12:43:33Z</time>
      </trkpt>
      <trkpt lat="44.29395" lon="1.51295">
        <ele>209.8</ele>
        <time>2018-06-17T12:43:46Z</time>
      </trkpt>
      <trkpt lat="44.294" lon="1.51291">
        <ele>209.8</ele>
        <time>2018-06-17T12:43:53Z</time>
      </trkpt>
      <trkpt lat="44.29404" lon="1.51291">
        <ele>209.9</ele>
        <time>2018-06-17T12:43:58Z</time>
      </trkpt>
      <trkpt lat="44.29409" lon="1.51292">
        <ele>210.1</ele>
        <time>2018-06-17T12:44:05Z</time>
      </trkpt>
      <trkpt lat="44.29414" lon="1.51292">
        <ele>210.3</ele>
        <time>2018-06-17T12:44:11Z</time>
      </trkpt>
      <trkpt lat="44.29418" lon="1.51292">
        <ele>210.3</ele>
        <time>2018-06-17T12:44:16Z</time>
      </trkpt>
      <trkpt lat="44.29423" lon="1.51291">
        <ele>210.3</ele>
        <time>2018-06-17T12:44:21Z</time>
      </trkpt>
      <trkpt lat="44.29428" lon="1.51289">
        <ele>210.2</ele>
        <time>2018-06-17T12:44:26Z</time>
      </trkpt>
      <trkpt lat="44.29433" lon="1.51288">
        <ele>210</ele>
        <time>2018-06-17T12:44:32Z</time>
      </trkpt>
      <trkpt lat="44.29439" lon="1.51287">
        <ele>209.8</ele>
        <time>2018-06-17T12:44:38Z</time>
      </trkpt>
      <trkpt lat="44.29443" lon="1.51285">
        <ele>209.6</ele>
        <time>2018-06-17T12:44:42Z</time>
      </trkpt>
      <trkpt lat="44.29449" lon="1.51286">
        <ele>209.3</ele>
        <time>2018-06-17T12:44:47Z</time>
      </trkpt>
      <trkpt lat="44.29455" lon="1.51287">
        <ele>209.2</ele>
        <time>2018-06-17T12:44:52Z</time>
      </trkpt>
      <trkpt lat="44.29459" lon="1.5129">
        <ele>208.9</ele>
        <time>2018-06-17T12:44:56Z</time>
      </trkpt>
      <trkpt lat="44.29463" lon="1.51293">
        <ele>208.6</ele>
        <time>2018-06-17T12:45:02Z</time>
      </trkpt>
      <trkpt lat="44.29468" lon="1.51297">
        <ele>208.4</ele>
        <time>2018-06-17T12:45:06Z</time>
      </trkpt>
      <trkpt lat="44.29472" lon="1.51302">
        <ele>208.2</ele>
        <time>2018-06-17T12:45:10Z</time>
      </trkpt>
      <trkpt lat="44.29476" lon="1.51306">
        <ele>208</ele>
        <time>2018-06-17T12:45:14Z</time>
      </trkpt>
      <trkpt lat="44.2948" lon="1.51312">
        <ele>207.7</ele>
        <time>2018-06-17T12:45:20Z</time>
      </trkpt>
      <trkpt lat="44.29482" lon="1.51318">
        <ele>207.5</ele>
        <time>2018-06-17T12:45:25Z</time>
      </trkpt>
      <trkpt lat="44.29484" lon="1.51324">
        <ele>207.3</ele>
        <time>2018-06-17T12:45:31Z</time>
      </trkpt>
      <trkpt lat="44.29487" lon="1.5133">
        <ele>207.1</ele>
        <time>2018-06-17T12:45:35Z</time>
      </trkpt>
      <trkpt lat="44.2949" lon="1.51335">
        <ele>207.1</ele>
        <time>2018-06-17T12:45:40Z</time>
      </trkpt>
      <trkpt lat="44.29493" lon="1.51341">
        <ele>207.2</ele>
        <time>2018-06-17T12:45:45Z</time>
      </trkpt>
      <trkpt lat="44.29497" lon="1.51346">
        <ele>207.3</ele>
        <time>2018-06-17T12:45:49Z</time>
      </trkpt>
      <trkpt lat="44.29499" lon="1.51351">
        <ele>207.4</ele>
        <time>2018-06-17T12:45:53Z</time>
      </trkpt>
      <trkpt lat="44.29502" lon="1.51357">
        <ele>207.4</ele>
        <time>2018-06-17T12:45:58Z</time>
      </trkpt>
      <trkpt lat="44.29504" lon="1.51363">
        <ele>207.4</ele>
        <time>2018-06-17T12:46:02Z</time>
      </trkpt>
      <trkpt lat="44.29506" lon="1.5137">
        <ele>207.3</ele>
        <time>2018-06-17T12:46:07Z</time>
      </trkpt>
      <trkpt lat="44.29508" lon="1.51377">
        <ele>207.3</ele>
        <time>2018-06-17T12:46:12Z</time>
      </trkpt>
      <trkpt lat="44.2951" lon="1.51383">
        <ele>207.4</ele>
        <time>2018-06-17T12:46:16Z</time>
      </trkpt>
      <trkpt lat="44.29512" lon="1.51389">
        <ele>207.6</ele>
        <time>2018-06-17T12:46:19Z</time>
      </trkpt>
      <trkpt lat="44.29515" lon="1.51395">
        <ele>207.8</ele>
        <time>2018-06-17T12:46:24Z</time>
      </trkpt>
      <trkpt lat="44.29516" lon="1.51402">
        <ele>208.1</ele>
        <time>2018-06-17T12:46:28Z</time>
      </trkpt>
      <trkpt lat="44.29518" lon="1.51408">
        <ele>208.2</ele>
        <time>2018-06-17T12:46:34Z</time>
      </trkpt>
      <trkpt lat="44.29521" lon="1.51414">
        <ele>208.3</ele>
        <time>2018-06-17T12:46:41Z</time>
      </trkpt>
      <trkpt lat="44.29524" lon="1.51421">
        <ele>208.2</ele>
        <time>2018-06-17T12:46:48Z</time>
      </trkpt>
      <trkpt lat="44.29526" lon="1.51427">
        <ele>208.1</ele>
        <time>2018-06-17T12:46:53Z</time>
      </trkpt>
      <trkpt lat="44.29527" lon="1.51433">
        <ele>208</ele>
        <time>2018-06-17T12:47:01Z</time>
      </trkpt>
      <trkpt lat="44.29531" lon="1.5144">
        <ele>208</ele>
        <time>2018-06-17T12:47:06Z</time>
      </trkpt>
      <trkpt lat="44.29533" lon="1.51446">
        <ele>208.2</ele>
        <time>2018-06-17T12:47:11Z</time>
      </trkpt>
      <trkpt lat="44.29535" lon="1.51453">
        <ele>208.4</ele>
        <time>2018-06-17T12:47:15Z</time>
      </trkpt>
      <trkpt lat="44.29537" lon="1.51461">
        <ele>208.6</ele>
        <time>2018-06-17T12:47:19Z</time>
      </trkpt>
      <trkpt lat="44.29538" lon="1.51469">
        <ele>208.9</ele>
        <time>2018-06-17T12:47:24Z</time>
      </trkpt>
      <trkpt lat="44.29538" lon="1.51476">
        <ele>209</ele>
        <time>2018-06-17T12:47:30Z</time>
      </trkpt>
      <trkpt lat="44.29535" lon="1.5148">
        <ele>209</ele>
        <time>2018-06-17T12:47:37Z</time>
      </trkpt>
      <trkpt lat="44.29531" lon="1.51484">
        <ele>208.9</ele>
        <time>2018-06-17T12:47:42Z</time>
      </trkpt>
      <trkpt lat="44.29528" lon="1.51489">
        <ele>208.9</ele>
        <time>2018-06-17T12:47:46Z</time>
      </trkpt>
      <trkpt lat="44.29524" lon="1.51493">
        <ele>209</ele>
        <time>2018-06-17T12:47:51Z</time>
      </trkpt>
      <trkpt lat="44.29521" lon="1.515">
        <ele>209.3</ele>
        <time>2018-06-17T12:47:56Z</time>
      </trkpt>
      <trkpt lat="44.29519" lon="1.51506">
        <ele>209.5</ele>
        <time>2018-06-17T12:48:01Z</time>
      </trkpt>
      <trkpt lat="44.29518" lon="1.51513">
        <ele>209.7</ele>
        <time>2018-06-17T12:48:06Z</time>
      </trkpt>
      <trkpt lat="44.29523" lon="1.51516">
        <ele>209.9</ele>
        <time>2018-06-17T12:48:15Z</time>
      </trkpt>
      <trkpt lat="44.29528" lon="1.51517">
        <ele>210</ele>
        <time>2018-06-17T12:48:20Z</time>
      </trkpt>
      <trkpt lat="44.29532" lon="1.51517">
        <ele>210.1</ele>
        <time>2018-06-17T12:48:25Z</time>
      </trkpt>
      <trkpt lat="44.29537" lon="1.51517">
        <ele>210.3</ele>
        <time>2018-06-17T12:48:30Z</time>
      </trkpt>
      <trkpt lat="44.29542" lon="1.51517">
        <ele>210.4</ele>
        <time>2018-06-17T12:48:34Z</time>
      </trkpt>
      <trkpt lat="44.29547" lon="1.5152">
        <ele>210.4</ele>
        <time>2018-06-17T12:48:38Z</time>
      </trkpt>
      <trkpt lat="44.2955" lon="1.51524">
        <ele>210.2</ele>
        <time>2018-06-17T12:48:42Z</time>
      </trkpt>
      <trkpt lat="44.29554" lon="1.51527">
        <ele>210</ele>
        <time>2018-06-17T12:48:47Z</time>
      </trkpt>
      <trkpt lat="44.29559" lon="1.51531">
        <ele>209.9</ele>
        <time>2018-06-17T12:48:52Z</time>
      </trkpt>
      <trkpt lat="44.29564" lon="1.51534">
        <ele>209.8</ele>
        <time>2018-06-17T12:48:55Z</time>
      </trkpt>
      <trkpt lat="44.29567" lon="1.51537">
        <ele>209.7</ele>
        <time>2018-06-17T12:49:38Z</time>
      </trkpt>
      <trkpt lat="44.29571" lon="1.51542">
        <ele>209.5</ele>
        <time>2018-06-17T12:49:42Z</time>
      </trkpt>
      <trkpt lat="44.29576" lon="1.51545">
        <ele>209.3</ele>
        <time>2018-06-17T12:49:47Z</time>
      </trkpt>
      <trkpt lat="44.2958" lon="1.51549">
        <ele>209.1</ele>
        <time>2018-06-17T12:49:51Z</time>
      </trkpt>
      <trkpt lat="44.29585" lon="1.51552">
        <ele>208.9</ele>
        <time>2018-06-17T12:49:56Z</time>
      </trkpt>
      <trkpt lat="44.29589" lon="1.51555">
        <ele>208.7</ele>
        <time>2018-06-17T12:50:03Z</time>
      </trkpt>
      <trkpt lat="44.29591" lon="1.51561">
        <ele>208.6</ele>
        <time>2018-06-17T12:50:27Z</time>
      </trkpt>
      <trkpt lat="44.29595" lon="1.51565">
        <ele>208.5</ele>
        <time>2018-06-17T12:50:38Z</time>
      </trkpt>
      <trkpt lat="44.29598" lon="1.5157">
        <ele>208.4</ele>
        <time>2018-06-17T12:50:42Z</time>
      </trkpt>
      <trkpt lat="44.29602" lon="1.51574">
        <ele>208.4</ele>
        <time>2018-06-17T12:50:47Z</time>
      </trkpt>
      <trkpt lat="44.29607" lon="1.51576">
        <ele>208.5</ele>
        <time>2018-06-17T12:50:52Z</time>
      </trkpt>
      <trkpt lat="44.29612" lon="1.5158">
        <ele>208.7</ele>
        <time>2018-06-17T12:50:55Z</time>
      </trkpt>
      <trkpt lat="44.29616" lon="1.51583">
        <ele>209.1</ele>
        <time>2018-06-17T12:50:59Z</time>
      </trkpt>
      <trkpt lat="44.29619" lon="1.51588">
        <ele>209.5</ele>
        <time>2018-06-17T12:51:03Z</time>
      </trkpt>
      <trkpt lat="44.29625" lon="1.51592">
        <ele>209.8</ele>
        <time>2018-06-17T12:51:10Z</time>
      </trkpt>
      <trkpt lat="44.29629" lon="1.51595">
        <ele>209.9</ele>
        <time>2018-06-17T12:51:13Z</time>
      </trkpt>
      <trkpt lat="44.29634" lon="1.51599">
        <ele>210</ele>
        <time>2018-06-17T12:51:20Z</time>
      </trkpt>
      <trkpt lat="44.29639" lon="1.516">
        <ele>209.8</ele>
        <time>2018-06-17T12:51:25Z</time>
      </trkpt>
      <trkpt lat="44.29644" lon="1.516">
        <ele>209.6</ele>
        <time>2018-06-17T12:51:30Z</time>
      </trkpt>
      <trkpt lat="44.29649" lon="1.51602">
        <ele>209.4</ele>
        <time>2018-06-17T12:51:34Z</time>
      </trkpt>
      <trkpt lat="44.29653" lon="1.51604">
        <ele>209.1</ele>
        <time>2018-06-17T12:51:39Z</time>
      </trkpt>
      <trkpt lat="44.29658" lon="1.51607">
        <ele>208.9</ele>
        <time>2018-06-17T12:51:43Z</time>
      </trkpt>
      <trkpt lat="44.29662" lon="1.51611">
        <ele>208.7</ele>
        <time>2018-06-17T12:51:47Z</time>
      </trkpt>
      <trkpt lat="44.29666" lon="1.51615">
        <ele>208.6</ele>
        <time>2018-06-17T12:51:52Z</time>
      </trkpt>
      <trkpt lat="44.29671" lon="1.51618">
        <ele>208.5</ele>
        <time>2018-06-17T12:51:59Z</time>
      </trkpt>
      <trkpt lat="44.29676" lon="1.51621">
        <ele>208.5</ele>
        <time>2018-06-17T12:52:03Z</time>
      </trkpt>
      <trkpt lat="44.2968" lon="1.51624">
        <ele>208.4</ele>
        <time>2018-06-17T12:52:08Z</time>
      </trkpt>
      <trkpt lat="44.29685" lon="1.51626">
        <ele>208.1</ele>
        <time>2018-06-17T12:52:12Z</time>
      </trkpt>
      <trkpt lat="44.2969" lon="1.51629">
        <ele>207.7</ele>
        <time>2018-06-17T12:52:20Z</time>
      </trkpt>
      <trkpt lat="44.29695" lon="1.51632">
        <ele>207.4</ele>
        <time>2018-06-17T12:52:24Z</time>
      </trkpt>
      <trkpt lat="44.29699" lon="1.51636">
        <ele>207.1</ele>
        <time>2018-06-17T12:52:29Z</time>
      </trkpt>
      <trkpt lat="44.29703" lon="1.5164">
        <ele>206.8</ele>
        <time>2018-06-17T12:52:40Z</time>
      </trkpt>
      <trkpt lat="44.29707" lon="1.51642">
        <ele>206.7</ele>
        <time>2018-06-17T12:52:51Z</time>
      </trkpt>
      <trkpt lat="44.2971" lon="1.51648">
        <ele>206.7</ele>
        <time>2018-06-17T12:52:57Z</time>
      </trkpt>
      <trkpt lat="44.29713" lon="1.51653">
        <ele>206</ele>
        <time>2018-06-17T12:53:00Z</time>
      </trkpt>
      <trkpt lat="44.29715" lon="1.5166">
        <ele>205.6</ele>
        <time>2018-06-17T12:53:04Z</time>
      </trkpt>
      <trkpt lat="44.29719" lon="1.51663">
        <ele>205.2</ele>
        <time>2018-06-17T12:53:17Z</time>
      </trkpt>
      <trkpt lat="44.29722" lon="1.51667">
        <ele>204.9</ele>
        <time>2018-06-17T12:53:47Z</time>
      </trkpt>
      <trkpt lat="44.29725" lon="1.5166">
        <ele>204.7</ele>
        <time>2018-06-17T12:56:27Z</time>
      </trkpt>
      <trkpt lat="44.29727" lon="1.51654">
        <ele>205.1</ele>
        <time>2018-06-17T12:56:42Z</time>
      </trkpt>
      <trkpt lat="44.2973" lon="1.51649">
        <ele>205.4</ele>
        <time>2018-06-17T12:56:47Z</time>
      </trkpt>
      <trkpt lat="44.29734" lon="1.51644">
        <ele>205.7</ele>
        <time>2018-06-17T12:56:57Z</time>
      </trkpt>
      <trkpt lat="44.29738" lon="1.51639">
        <ele>206.1</ele>
        <time>2018-06-17T12:57:05Z</time>
      </trkpt>
      <trkpt lat="44.2974" lon="1.51633">
        <ele>206.5</ele>
        <time>2018-06-17T12:57:10Z</time>
      </trkpt>
      <trkpt lat="44.29743" lon="1.51628">
        <ele>206.9</ele>
        <time>2018-06-17T12:57:14Z</time>
      </trkpt>
      <trkpt lat="44.29746" lon="1.51621">
        <ele>207.4</ele>
        <time>2018-06-17T12:57:18Z</time>
      </trkpt>
      <trkpt lat="44.2975" lon="1.51617">
        <ele>207.9</ele>
        <time>2018-06-17T12:57:24Z</time>
      </trkpt>
      <trkpt lat="44.29754" lon="1.51613">
        <ele>208.3</ele>
        <time>2018-06-17T12:57:29Z</time>
      </trkpt>
      <trkpt lat="44.29758" lon="1.51609">
        <ele>208.8</ele>
        <time>2018-06-17T12:57:34Z</time>
      </trkpt>
      <trkpt lat="44.29762" lon="1.51605">
        <ele>209.1</ele>
        <time>2018-06-17T12:57:39Z</time>
      </trkpt>
      <trkpt lat="44.29766" lon="1.51603">
        <ele>209.4</ele>
        <time>2018-06-17T12:57:43Z</time>
      </trkpt>
      <trkpt lat="44.29771" lon="1.51599">
        <ele>209.5</ele>
        <time>2018-06-17T12:57:49Z</time>
      </trkpt>
      <trkpt lat="44.29775" lon="1.51594">
        <ele>209.5</ele>
        <time>2018-06-17T12:57:53Z</time>
      </trkpt>
      <trkpt lat="44.2978" lon="1.5159">
        <ele>209.5</ele>
        <time>2018-06-17T12:57:59Z</time>
      </trkpt>
      <trkpt lat="44.29784" lon="1.51587">
        <ele>209.5</ele>
        <time>2018-06-17T12:58:04Z</time>
      </trkpt>
      <trkpt lat="44.29789" lon="1.51583">
        <ele>209.6</ele>
        <time>2018-06-17T12:58:10Z</time>
      </trkpt>
      <trkpt lat="44.29794" lon="1.51581">
        <ele>209.9</ele>
        <time>2018-06-17T12:58:16Z</time>
      </trkpt>
      <trkpt lat="44.29798" lon="1.51578">
        <ele>210.2</ele>
        <time>2018-06-17T12:58:22Z</time>
      </trkpt>
      <trkpt lat="44.29803" lon="1.51576">
        <ele>210.4</ele>
        <time>2018-06-17T12:58:25Z</time>
      </trkpt>
      <trkpt lat="44.29807" lon="1.51572">
        <ele>210.7</ele>
        <time>2018-06-17T12:58:29Z</time>
      </trkpt>
      <trkpt lat="44.29811" lon="1.51569">
        <ele>210.9</ele>
        <time>2018-06-17T12:58:36Z</time>
      </trkpt>
      <trkpt lat="44.29816" lon="1.51566">
        <ele>211.1</ele>
        <time>2018-06-17T12:58:42Z</time>
      </trkpt>
      <trkpt lat="44.29821" lon="1.51564">
        <ele>211.2</ele>
        <time>2018-06-17T12:58:46Z</time>
      </trkpt>
      <trkpt lat="44.29825" lon="1.5156">
        <ele>211.3</ele>
        <time>2018-06-17T12:58:51Z</time>
      </trkpt>
      <trkpt lat="44.29831" lon="1.51557">
        <ele>211.5</ele>
        <time>2018-06-17T12:58:56Z</time>
      </trkpt>
      <trkpt lat="44.29835" lon="1.51555">
        <ele>211.6</ele>
        <time>2018-06-17T12:59:01Z</time>
      </trkpt>
      <trkpt lat="44.29841" lon="1.51552">
        <ele>211.8</ele>
        <time>2018-06-17T12:59:07Z</time>
      </trkpt>
      <trkpt lat="44.29846" lon="1.51549">
        <ele>211.9</ele>
        <time>2018-06-17T12:59:10Z</time>
      </trkpt>
      <trkpt lat="44.2985" lon="1.51547">
        <ele>212.1</ele>
        <time>2018-06-17T12:59:15Z</time>
      </trkpt>
      <trkpt lat="44.29856" lon="1.51545">
        <ele>212.3</ele>
        <time>2018-06-17T12:59:20Z</time>
      </trkpt>
      <trkpt lat="44.29861" lon="1.51541">
        <ele>212.5</ele>
        <time>2018-06-17T12:59:26Z</time>
      </trkpt>
      <trkpt lat="44.29865" lon="1.51538">
        <ele>212.9</ele>
        <time>2018-06-17T12:59:32Z</time>
      </trkpt>
      <trkpt lat="44.29869" lon="1.51534">
        <ele>213.2</ele>
        <time>2018-06-17T12:59:35Z</time>
      </trkpt>
      <trkpt lat="44.29873" lon="1.5153">
        <ele>213.5</ele>
        <time>2018-06-17T12:59:40Z</time>
      </trkpt>
      <trkpt lat="44.29877" lon="1.51528">
        <ele>213.8</ele>
        <time>2018-06-17T12:59:45Z</time>
      </trkpt>
      <trkpt lat="44.29883" lon="1.51524">
        <ele>214</ele>
        <time>2018-06-17T12:59:51Z</time>
      </trkpt>
      <trkpt lat="44.29888" lon="1.5152">
        <ele>214.2</ele>
        <time>2018-06-17T12:59:55Z</time>
      </trkpt>
      <trkpt lat="44.29892" lon="1.51518">
        <ele>214.3</ele>
        <time>2018-06-17T13:00:02Z</time>
      </trkpt>
      <trkpt lat="44.29897" lon="1.51515">
        <ele>214.4</ele>
        <time>2018-06-17T13:00:05Z</time>
      </trkpt>
      <trkpt lat="44.29902" lon="1.51511">
        <ele>214.7</ele>
        <time>2018-06-17T13:00:10Z</time>
      </trkpt>
      <trkpt lat="44.29907" lon="1.51507">
        <ele>215</ele>
        <time>2018-06-17T13:00:14Z</time>
      </trkpt>
      <trkpt lat="44.29911" lon="1.51504">
        <ele>215.4</ele>
        <time>2018-06-17T13:00:21Z</time>
      </trkpt>
      <trkpt lat="44.29915" lon="1.515">
        <ele>215.9</ele>
        <time>2018-06-17T13:00:26Z</time>
      </trkpt>
      <trkpt lat="44.2992" lon="1.51496">
        <ele>216.5</ele>
        <time>2018-06-17T13:00:32Z</time>
      </trkpt>
      <trkpt lat="44.29923" lon="1.5149">
        <ele>216.9</ele>
        <time>2018-06-17T13:00:35Z</time>
      </trkpt>
      <trkpt lat="44.29927" lon="1.51485">
        <ele>217.3</ele>
        <time>2018-06-17T13:00:40Z</time>
      </trkpt>
      <trkpt lat="44.29931" lon="1.51482">
        <ele>217.7</ele>
        <time>2018-06-17T13:00:43Z</time>
      </trkpt>
      <trkpt lat="44.29937" lon="1.5148">
        <ele>218.2</ele>
        <time>2018-06-17T13:00:50Z</time>
      </trkpt>
      <trkpt lat="44.29942" lon="1.5148">
        <ele>218.5</ele>
        <time>2018-06-17T13:00:55Z</time>
      </trkpt>
      <trkpt lat="44.29947" lon="1.51482">
        <ele>218.9</ele>
        <time>2018-06-17T13:01:00Z</time>
      </trkpt>
      <trkpt lat="44.29952" lon="1.51482">
        <ele>219.2</ele>
        <time>2018-06-17T13:01:03Z</time>
      </trkpt>
      <trkpt lat="44.29957" lon="1.51481">
        <ele>219.5</ele>
        <time>2018-06-17T13:01:07Z</time>
      </trkpt>
      <trkpt lat="44.29961" lon="1.51482">
        <ele>219.8</ele>
        <time>2018-06-17T13:01:14Z</time>
      </trkpt>
      <trkpt lat="44.29966" lon="1.51484">
        <ele>220</ele>
        <time>2018-06-17T13:01:19Z</time>
      </trkpt>
      <trkpt lat="44.2997" lon="1.51485">
        <ele>220.2</ele>
        <time>2018-06-17T13:01:23Z</time>
      </trkpt>
      <trkpt lat="44.29975" lon="1.51485">
        <ele>220.4</ele>
        <time>2018-06-17T13:01:27Z</time>
      </trkpt>
      <trkpt lat="44.29981" lon="1.51487">
        <ele>220.5</ele>
        <time>2018-06-17T13:01:33Z</time>
      </trkpt>
      <trkpt lat="44.29985" lon="1.51487">
        <ele>220.5</ele>
        <time>2018-06-17T13:01:36Z</time>
      </trkpt>
      <trkpt lat="44.29991" lon="1.51487">
        <ele>220.6</ele>
        <time>2018-06-17T13:01:40Z</time>
      </trkpt>
      <trkpt lat="44.29995" lon="1.51487">
        <ele>220.6</ele>
        <time>2018-06-17T13:01:43Z</time>
      </trkpt>
      <trkpt lat="44.3" lon="1.51489">
        <ele>220.8</ele>
        <time>2018-06-17T13:01:47Z</time>
      </trkpt>
      <trkpt lat="44.30005" lon="1.5149">
        <ele>220.9</ele>
        <time>2018-06-17T13:01:53Z</time>
      </trkpt>
      <trkpt lat="44.3001" lon="1.51491">
        <ele>221.1</ele>
        <time>2018-06-17T13:02:00Z</time>
      </trkpt>
      <trkpt lat="44.30015" lon="1.51491">
        <ele>221.3</ele>
        <time>2018-06-17T13:02:04Z</time>
      </trkpt>
      <trkpt lat="44.3002" lon="1.5149">
        <ele>221.4</ele>
        <time>2018-06-17T13:02:08Z</time>
      </trkpt>
      <trkpt lat="44.30025" lon="1.51492">
        <ele>221.4</ele>
        <time>2018-06-17T13:02:11Z</time>
      </trkpt>
      <trkpt lat="44.3003" lon="1.51493">
        <ele>221.5</ele>
        <time>2018-06-17T13:02:16Z</time>
      </trkpt>
      <trkpt lat="44.30035" lon="1.51493">
        <ele>221.6</ele>
        <time>2018-06-17T13:02:20Z</time>
      </trkpt>
      <trkpt lat="44.30039" lon="1.51495">
        <ele>221.7</ele>
        <time>2018-06-17T13:02:27Z</time>
      </trkpt>
      <trkpt lat="44.30044" lon="1.51495">
        <ele>221.7</ele>
        <time>2018-06-17T13:02:31Z</time>
      </trkpt>
      <trkpt lat="44.30049" lon="1.51496">
        <ele>221.8</ele>
        <time>2018-06-17T13:02:36Z</time>
      </trkpt>
      <trkpt lat="44.30055" lon="1.51496">
        <ele>222</ele>
        <time>2018-06-17T13:02:40Z</time>
      </trkpt>
      <trkpt lat="44.3006" lon="1.51496">
        <ele>222.1</ele>
        <time>2018-06-17T13:02:44Z</time>
      </trkpt>
      <trkpt lat="44.30064" lon="1.51496">
        <ele>222.4</ele>
        <time>2018-06-17T13:02:48Z</time>
      </trkpt>
      <trkpt lat="44.3007" lon="1.51494">
        <ele>222.8</ele>
        <time>2018-06-17T13:02:52Z</time>
      </trkpt>
      <trkpt lat="44.30074" lon="1.51494">
        <ele>223.2</ele>
        <time>2018-06-17T13:02:57Z</time>
      </trkpt>
      <trkpt lat="44.3008" lon="1.51494">
        <ele>223.6</ele>
        <time>2018-06-17T13:03:02Z</time>
      </trkpt>
      <trkpt lat="44.30085" lon="1.51493">
        <ele>224.1</ele>
        <time>2018-06-17T13:03:06Z</time>
      </trkpt>
      <trkpt lat="44.3009" lon="1.51493">
        <ele>224.4</ele>
        <time>2018-06-17T13:03:12Z</time>
      </trkpt>
      <trkpt lat="44.30095" lon="1.51493">
        <ele>224.6</ele>
        <time>2018-06-17T13:03:15Z</time>
      </trkpt>
      <trkpt lat="44.301" lon="1.51493">
        <ele>224.7</ele>
        <time>2018-06-17T13:03:19Z</time>
      </trkpt>
      <trkpt lat="44.30105" lon="1.51492">
        <ele>224.9</ele>
        <time>2018-06-17T13:03:26Z</time>
      </trkpt>
      <trkpt lat="44.3011" lon="1.51492">
        <ele>225.1</ele>
        <time>2018-06-17T13:03:30Z</time>
      </trkpt>
      <trkpt lat="44.30115" lon="1.51492">
        <ele>225.2</ele>
        <time>2018-06-17T13:03:35Z</time>
      </trkpt>
      <trkpt lat="44.3012" lon="1.51489">
        <ele>225.5</ele>
        <time>2018-06-17T13:03:42Z</time>
      </trkpt>
      <trkpt lat="44.30125" lon="1.51488">
        <ele>225.8</ele>
        <time>2018-06-17T13:03:48Z</time>
      </trkpt>
      <trkpt lat="44.3013" lon="1.51486">
        <ele>226.1</ele>
        <time>2018-06-17T13:03:52Z</time>
      </trkpt>
      <trkpt lat="44.30134" lon="1.51484">
        <ele>226.5</ele>
        <time>2018-06-17T13:03:55Z</time>
      </trkpt>
      <trkpt lat="44.30139" lon="1.51485">
        <ele>226.9</ele>
        <time>2018-06-17T13:04:03Z</time>
      </trkpt>
      <trkpt lat="44.30144" lon="1.51484">
        <ele>227.3</ele>
        <time>2018-06-17T13:04:08Z</time>
      </trkpt>
      <trkpt lat="44.3015" lon="1.51484">
        <ele>227.6</ele>
        <time>2018-06-17T13:04:11Z</time>
      </trkpt>
      <trkpt lat="44.30155" lon="1.51484">
        <ele>228.1</ele>
        <time>2018-06-17T13:04:17Z</time>
      </trkpt>
      <trkpt lat="44.30159" lon="1.51485">
        <ele>228.7</ele>
        <time>2018-06-17T13:04:21Z</time>
      </trkpt>
      <trkpt lat="44.30165" lon="1.51486">
        <ele>229.3</ele>
        <time>2018-06-17T13:04:26Z</time>
      </trkpt>
      <trkpt lat="44.3017" lon="1.51487">
        <ele>230.1</ele>
        <time>2018-06-17T13:04:30Z</time>
      </trkpt>
      <trkpt lat="44.30175" lon="1.51487">
        <ele>230.9</ele>
        <time>2018-06-17T13:04:36Z</time>
      </trkpt>
      <trkpt lat="44.3018" lon="1.51487">
        <ele>231.5</ele>
        <time>2018-06-17T13:04:42Z</time>
      </trkpt>
      <trkpt lat="44.30186" lon="1.51486">
        <ele>232</ele>
        <time>2018-06-17T13:04:50Z</time>
      </trkpt>
      <trkpt lat="44.30191" lon="1.51486">
        <ele>232.4</ele>
        <time>2018-06-17T13:04:55Z</time>
      </trkpt>
      <trkpt lat="44.30196" lon="1.51487">
        <ele>232.7</ele>
        <time>2018-06-17T13:05:01Z</time>
      </trkpt>
      <trkpt lat="44.30201" lon="1.51488">
        <ele>233</ele>
        <time>2018-06-17T13:05:04Z</time>
      </trkpt>
      <trkpt lat="44.30206" lon="1.51488">
        <ele>233.4</ele>
        <time>2018-06-17T13:05:07Z</time>
      </trkpt>
      <trkpt lat="44.30211" lon="1.51485">
        <ele>233.8</ele>
        <time>2018-06-17T13:05:11Z</time>
      </trkpt>
      <trkpt lat="44.30215" lon="1.51485">
        <ele>234.2</ele>
        <time>2018-06-17T13:05:15Z</time>
      </trkpt>
      <trkpt lat="44.3022" lon="1.51481">
        <ele>234.6</ele>
        <time>2018-06-17T13:05:19Z</time>
      </trkpt>
      <trkpt lat="44.30224" lon="1.51478">
        <ele>235</ele>
        <time>2018-06-17T13:05:23Z</time>
      </trkpt>
      <trkpt lat="44.3023" lon="1.51476">
        <ele>235.3</ele>
        <time>2018-06-17T13:05:28Z</time>
      </trkpt>
      <trkpt lat="44.30235" lon="1.51474">
        <ele>235.5</ele>
        <time>2018-06-17T13:05:34Z</time>
      </trkpt>
      <trkpt lat="44.30241" lon="1.51471">
        <ele>235.6</ele>
        <time>2018-06-17T13:05:41Z</time>
      </trkpt>
      <trkpt lat="44.30245" lon="1.51469">
        <ele>235.7</ele>
        <time>2018-06-17T13:05:45Z</time>
      </trkpt>
      <trkpt lat="44.3025" lon="1.51467">
        <ele>235.9</ele>
        <time>2018-06-17T13:05:49Z</time>
      </trkpt>
      <trkpt lat="44.30255" lon="1.51466">
        <ele>236</ele>
        <time>2018-06-17T13:05:53Z</time>
      </trkpt>
      <trkpt lat="44.30259" lon="1.51464">
        <ele>236.1</ele>
        <time>2018-06-17T13:05:57Z</time>
      </trkpt>
      <trkpt lat="44.30265" lon="1.51463">
        <ele>236.3</ele>
        <time>2018-06-17T13:06:04Z</time>
      </trkpt>
      <trkpt lat="44.30269" lon="1.51459">
        <ele>236.5</ele>
        <time>2018-06-17T13:06:09Z</time>
      </trkpt>
      <trkpt lat="44.30274" lon="1.51456">
        <ele>236.6</ele>
        <time>2018-06-17T13:06:13Z</time>
      </trkpt>
      <trkpt lat="44.30279" lon="1.51454">
        <ele>236.7</ele>
        <time>2018-06-17T13:06:17Z</time>
      </trkpt>
      <trkpt lat="44.30283" lon="1.51452">
        <ele>236.8</ele>
        <time>2018-06-17T13:06:21Z</time>
      </trkpt>
      <trkpt lat="44.30288" lon="1.5145">
        <ele>236.9</ele>
        <time>2018-06-17T13:06:25Z</time>
      </trkpt>
      <trkpt lat="44.30293" lon="1.51449">
        <ele>237</ele>
        <time>2018-06-17T13:06:30Z</time>
      </trkpt>
      <trkpt lat="44.30298" lon="1.51448">
        <ele>237.2</ele>
        <time>2018-06-17T13:06:39Z</time>
      </trkpt>
      <trkpt lat="44.30302" lon="1.51445">
        <ele>237.5</ele>
        <time>2018-06-17T13:06:42Z</time>
      </trkpt>
      <trkpt lat="44.30307" lon="1.51442">
        <ele>237.8</ele>
        <time>2018-06-17T13:06:47Z</time>
      </trkpt>
      <trkpt lat="44.30311" lon="1.51439">
        <ele>238.2</ele>
        <time>2018-06-17T13:06:52Z</time>
      </trkpt>
      <trkpt lat="44.30316" lon="1.51437">
        <ele>238.6</ele>
        <time>2018-06-17T13:06:57Z</time>
      </trkpt>
      <trkpt lat="44.30321" lon="1.51435">
        <ele>239</ele>
        <time>2018-06-17T13:07:02Z</time>
      </trkpt>
      <trkpt lat="44.30326" lon="1.51432">
        <ele>239.3</ele>
        <time>2018-06-17T13:07:07Z</time>
      </trkpt>
      <trkpt lat="44.30331" lon="1.5143">
        <ele>239.6</ele>
        <time>2018-06-17T13:07:14Z</time>
      </trkpt>
      <trkpt lat="44.30337" lon="1.51427">
        <ele>240</ele>
        <time>2018-06-17T13:07:17Z</time>
      </trkpt>
      <trkpt lat="44.30341" lon="1.51424">
        <ele>240.4</ele>
        <time>2018-06-17T13:07:22Z</time>
      </trkpt>
      <trkpt lat="44.30345" lon="1.51418">
        <ele>240.9</ele>
        <time>2018-06-17T13:07:28Z</time>
      </trkpt>
      <trkpt lat="44.30349" lon="1.51414">
        <ele>241.5</ele>
        <time>2018-06-17T13:07:34Z</time>
      </trkpt>
      <trkpt lat="44.30353" lon="1.5141">
        <ele>242.1</ele>
        <time>2018-06-17T13:07:38Z</time>
      </trkpt>
      <trkpt lat="44.30357" lon="1.51407">
        <ele>242.6</ele>
        <time>2018-06-17T13:07:42Z</time>
      </trkpt>
      <trkpt lat="44.30362" lon="1.51404">
        <ele>243</ele>
        <time>2018-06-17T13:07:47Z</time>
      </trkpt>
      <trkpt lat="44.30365" lon="1.514">
        <ele>243.2</ele>
        <time>2018-06-17T13:07:56Z</time>
      </trkpt>
      <trkpt lat="44.30369" lon="1.51397">
        <ele>243.3</ele>
        <time>2018-06-17T13:08:02Z</time>
      </trkpt>
      <trkpt lat="44.30374" lon="1.51394">
        <ele>243.3</ele>
        <time>2018-06-17T13:08:06Z</time>
      </trkpt>
      <trkpt lat="44.30377" lon="1.51389">
        <ele>243.4</ele>
        <time>2018-06-17T13:08:13Z</time>
      </trkpt>
      <trkpt lat="44.30381" lon="1.51384">
        <ele>243.6</ele>
        <time>2018-06-17T13:08:16Z</time>
      </trkpt>
      <trkpt lat="44.30386" lon="1.51382">
        <ele>243.8</ele>
        <time>2018-06-17T13:08:21Z</time>
      </trkpt>
      <trkpt lat="44.30391" lon="1.51382">
        <ele>244.1</ele>
        <time>2018-06-17T13:08:28Z</time>
      </trkpt>
      <trkpt lat="44.30396" lon="1.51379">
        <ele>244.4</ele>
        <time>2018-06-17T13:08:35Z</time>
      </trkpt>
      <trkpt lat="44.304" lon="1.51375">
        <ele>244.7</ele>
        <time>2018-06-17T13:08:39Z</time>
      </trkpt>
      <trkpt lat="44.30405" lon="1.51371">
        <ele>245.1</ele>
        <time>2018-06-17T13:08:44Z</time>
      </trkpt>
      <trkpt lat="44.30409" lon="1.5137">
        <ele>245.5</ele>
        <time>2018-06-17T13:08:47Z</time>
      </trkpt>
      <trkpt lat="44.30413" lon="1.51365">
        <ele>245.8</ele>
        <time>2018-06-17T13:08:52Z</time>
      </trkpt>
      <trkpt lat="44.30418" lon="1.51361">
        <ele>246.2</ele>
        <time>2018-06-17T13:08:56Z</time>
      </trkpt>
      <trkpt lat="44.30422" lon="1.51359">
        <ele>246.5</ele>
        <time>2018-06-17T13:09:01Z</time>
      </trkpt>
      <trkpt lat="44.30427" lon="1.51356">
        <ele>246.9</ele>
        <time>2018-06-17T13:09:06Z</time>
      </trkpt>
      <trkpt lat="44.30431" lon="1.51352">
        <ele>247.3</ele>
        <time>2018-06-17T13:09:10Z</time>
      </trkpt>
      <trkpt lat="44.30437" lon="1.51348">
        <ele>247.7</ele>
        <time>2018-06-17T13:09:18Z</time>
      </trkpt>
      <trkpt lat="44.30441" lon="1.51345">
        <ele>248</ele>
        <time>2018-06-17T13:09:22Z</time>
      </trkpt>
      <trkpt lat="44.30445" lon="1.51342">
        <ele>248.3</ele>
        <time>2018-06-17T13:09:27Z</time>
      </trkpt>
      <trkpt lat="44.3045" lon="1.5134">
        <ele>248.6</ele>
        <time>2018-06-17T13:09:30Z</time>
      </trkpt>
      <trkpt lat="44.30455" lon="1.51337">
        <ele>248.8</ele>
        <time>2018-06-17T13:09:34Z</time>
      </trkpt>
      <trkpt lat="44.3046" lon="1.51334">
        <ele>249.1</ele>
        <time>2018-06-17T13:09:39Z</time>
      </trkpt>
      <trkpt lat="44.30466" lon="1.51331">
        <ele>249.5</ele>
        <time>2018-06-17T13:09:44Z</time>
      </trkpt>
      <trkpt lat="44.30471" lon="1.5133">
        <ele>249.7</ele>
        <time>2018-06-17T13:09:49Z</time>
      </trkpt>
      <trkpt lat="44.30476" lon="1.51328">
        <ele>250</ele>
        <time>2018-06-17T13:09:54Z</time>
      </trkpt>
      <trkpt lat="44.3048" lon="1.51326">
        <ele>250.2</ele>
        <time>2018-06-17T13:09:59Z</time>
      </trkpt>
      <trkpt lat="44.30485" lon="1.51324">
        <ele>250.4</ele>
        <time>2018-06-17T13:10:04Z</time>
      </trkpt>
      <trkpt lat="44.3049" lon="1.51323">
        <ele>250.6</ele>
        <time>2018-06-17T13:10:08Z</time>
      </trkpt>
      <trkpt lat="44.30495" lon="1.51323">
        <ele>250.8</ele>
        <time>2018-06-17T13:10:11Z</time>
      </trkpt>
      <trkpt lat="44.305" lon="1.51321">
        <ele>251</ele>
        <time>2018-06-17T13:10:14Z</time>
      </trkpt>
      <trkpt lat="44.30505" lon="1.5132">
        <ele>251</ele>
        <time>2018-06-17T13:10:19Z</time>
      </trkpt>
      <trkpt lat="44.3051" lon="1.51318">
        <ele>250.8</ele>
        <time>2018-06-17T13:10:24Z</time>
      </trkpt>
      <trkpt lat="44.30515" lon="1.51318">
        <ele>251</ele>
        <time>2018-06-17T13:10:31Z</time>
      </trkpt>
      <trkpt lat="44.3052" lon="1.51318">
        <ele>251.1</ele>
        <time>2018-06-17T13:10:43Z</time>
      </trkpt>
      <trkpt lat="44.30524" lon="1.51315">
        <ele>251.1</ele>
        <time>2018-06-17T13:10:48Z</time>
      </trkpt>
      <trkpt lat="44.30522" lon="1.51309">
        <ele>251.1</ele>
        <time>2018-06-17T13:11:23Z</time>
      </trkpt>
      <trkpt lat="44.30526" lon="1.5131">
        <ele>251.2</ele>
        <time>2018-06-17T13:12:30Z</time>
      </trkpt>
      <trkpt lat="44.30521" lon="1.51314">
        <ele>251</ele>
        <time>2018-06-17T13:12:47Z</time>
      </trkpt>
      <trkpt lat="44.30518" lon="1.51319">
        <ele>250.7</ele>
        <time>2018-06-17T13:12:51Z</time>
      </trkpt>
      <trkpt lat="44.30515" lon="1.51324">
        <ele>250.7</ele>
        <time>2018-06-17T13:12:55Z</time>
      </trkpt>
      <trkpt lat="44.30519" lon="1.5133">
        <ele>250.9</ele>
        <time>2018-06-17T13:13:20Z</time>
      </trkpt>
      <trkpt lat="44.30516" lon="1.51323">
        <ele>251.6</ele>
        <time>2018-06-17T13:14:02Z</time>
      </trkpt>
      <trkpt lat="44.30519" lon="1.51317">
        <ele>252.6</ele>
        <time>2018-06-17T13:14:14Z</time>
      </trkpt>
      <trkpt lat="44.30521" lon="1.51311">
        <ele>253.7</ele>
        <time>2018-06-17T13:14:22Z</time>
      </trkpt>
      <trkpt lat="44.30525" lon="1.51311">
        <ele>254.8</ele>
        <time>2018-06-17T13:14:37Z</time>
      </trkpt>
      <trkpt lat="44.3053" lon="1.51313">
        <ele>255.9</ele>
        <time>2018-06-17T13:15:41Z</time>
      </trkpt>
      <trkpt lat="44.30535" lon="1.51312">
        <ele>256.7</ele>
        <time>2018-06-17T13:15:51Z</time>
      </trkpt>
      <trkpt lat="44.3054" lon="1.51312">
        <ele>257.2</ele>
        <time>2018-06-17T13:15:58Z</time>
      </trkpt>
      <trkpt lat="44.30545" lon="1.51313">
        <ele>257.7</ele>
        <time>2018-06-17T13:16:05Z</time>
      </trkpt>
      <trkpt lat="44.30549" lon="1.51314">
        <ele>258.1</ele>
        <time>2018-06-17T13:16:10Z</time>
      </trkpt>
      <trkpt lat="44.30555" lon="1.51317">
        <ele>258.5</ele>
        <time>2018-06-17T13:16:16Z</time>
      </trkpt>
      <trkpt lat="44.30559" lon="1.51319">
        <ele>258.7</ele>
        <time>2018-06-17T13:16:21Z</time>
      </trkpt>
      <trkpt lat="44.30564" lon="1.51321">
        <ele>259</ele>
        <time>2018-06-17T13:16:27Z</time>
      </trkpt>
      <trkpt lat="44.30569" lon="1.51325">
        <ele>259.2</ele>
        <time>2018-06-17T13:16:30Z</time>
      </trkpt>
      <trkpt lat="44.30573" lon="1.5133">
        <ele>259.2</ele>
        <time>2018-06-17T13:16:35Z</time>
      </trkpt>
      <trkpt lat="44.30578" lon="1.51333">
        <ele>259.3</ele>
        <time>2018-06-17T13:16:40Z</time>
      </trkpt>
      <trkpt lat="44.30582" lon="1.51337">
        <ele>259.3</ele>
        <time>2018-06-17T13:16:45Z</time>
      </trkpt>
      <trkpt lat="44.30586" lon="1.51341">
        <ele>259.3</ele>
        <time>2018-06-17T13:16:50Z</time>
      </trkpt>
      <trkpt lat="44.30591" lon="1.51346">
        <ele>259.4</ele>
        <time>2018-06-17T13:16:56Z</time>
      </trkpt>
      <trkpt lat="44.30595" lon="1.5135">
        <ele>259.6</ele>
        <time>2018-06-17T13:17:00Z</time>
      </trkpt>
      <trkpt lat="44.306" lon="1.51352">
        <ele>259.8</ele>
        <time>2018-06-17T13:17:05Z</time>
      </trkpt>
      <trkpt lat="44.30604" lon="1.51355">
        <ele>260</ele>
        <time>2018-06-17T13:17:11Z</time>
      </trkpt>
      <trkpt lat="44.30609" lon="1.51357">
        <ele>260.2</ele>
        <time>2018-06-17T13:17:16Z</time>
      </trkpt>
      <trkpt lat="44.30615" lon="1.51359">
        <ele>260.3</ele>
        <time>2018-06-17T13:17:22Z</time>
      </trkpt>
      <trkpt lat="44.3062" lon="1.51359">
        <ele>260.5</ele>
        <time>2018-06-17T13:17:26Z</time>
      </trkpt>
      <trkpt lat="44.30625" lon="1.5136">
        <ele>260.7</ele>
        <time>2018-06-17T13:17:34Z</time>
      </trkpt>
      <trkpt lat="44.3063" lon="1.51361">
        <ele>261</ele>
        <time>2018-06-17T13:17:40Z</time>
      </trkpt>
      <trkpt lat="44.30636" lon="1.51361">
        <ele>261.3</ele>
        <time>2018-06-17T13:17:44Z</time>
      </trkpt>
      <trkpt lat="44.3064" lon="1.51361">
        <ele>261.6</ele>
        <time>2018-06-17T13:17:50Z</time>
      </trkpt>
      <trkpt lat="44.30645" lon="1.51356">
        <ele>261.8</ele>
        <time>2018-06-17T13:17:55Z</time>
      </trkpt>
      <trkpt lat="44.30649" lon="1.51353">
        <ele>262</ele>
        <time>2018-06-17T13:17:58Z</time>
      </trkpt>
      <trkpt lat="44.30653" lon="1.5135">
        <ele>262.3</ele>
        <time>2018-06-17T13:18:02Z</time>
      </trkpt>
      <trkpt lat="44.30658" lon="1.51348">
        <ele>262.5</ele>
        <time>2018-06-17T13:18:08Z</time>
      </trkpt>
      <trkpt lat="44.30663" lon="1.51345">
        <ele>262.8</ele>
        <time>2018-06-17T13:18:11Z</time>
      </trkpt>
      <trkpt lat="44.30667" lon="1.51342">
        <ele>263.2</ele>
        <time>2018-06-17T13:18:15Z</time>
      </trkpt>
      <trkpt lat="44.30672" lon="1.51338">
        <ele>263.7</ele>
        <time>2018-06-17T13:18:21Z</time>
      </trkpt>
      <trkpt lat="44.30676" lon="1.51334">
        <ele>264.1</ele>
        <time>2018-06-17T13:18:25Z</time>
      </trkpt>
      <trkpt lat="44.3068" lon="1.51331">
        <ele>264.6</ele>
        <time>2018-06-17T13:18:29Z</time>
      </trkpt>
      <trkpt lat="44.30685" lon="1.51329">
        <ele>265</ele>
        <time>2018-06-17T13:18:33Z</time>
      </trkpt>
      <trkpt lat="44.30689" lon="1.51325">
        <ele>265.4</ele>
        <time>2018-06-17T13:18:39Z</time>
      </trkpt>
      <trkpt lat="44.30693" lon="1.51322">
        <ele>265.7</ele>
        <time>2018-06-17T13:18:44Z</time>
      </trkpt>
      <trkpt lat="44.30698" lon="1.51319">
        <ele>266.1</ele>
        <time>2018-06-17T13:18:47Z</time>
      </trkpt>
      <trkpt lat="44.30702" lon="1.51316">
        <ele>266.4</ele>
        <time>2018-06-17T13:18:52Z</time>
      </trkpt>
      <trkpt lat="44.30707" lon="1.51313">
        <ele>266.7</ele>
        <time>2018-06-17T13:18:57Z</time>
      </trkpt>
      <trkpt lat="44.30712" lon="1.51309">
        <ele>267</ele>
        <time>2018-06-17T13:19:01Z</time>
      </trkpt>
      <trkpt lat="44.30717" lon="1.51307">
        <ele>267.2</ele>
        <time>2018-06-17T13:19:08Z</time>
      </trkpt>
      <trkpt lat="44.30722" lon="1.51305">
        <ele>267.3</ele>
        <time>2018-06-17T13:19:11Z</time>
      </trkpt>
      <trkpt lat="44.30726" lon="1.51303">
        <ele>267.3</ele>
        <time>2018-06-17T13:19:16Z</time>
      </trkpt>
      <trkpt lat="44.30731" lon="1.51299">
        <ele>267.2</ele>
        <time>2018-06-17T13:19:21Z</time>
      </trkpt>
      <trkpt lat="44.30735" lon="1.51295">
        <ele>267</ele>
        <time>2018-06-17T13:19:25Z</time>
      </trkpt>
      <trkpt lat="44.3074" lon="1.51293">
        <ele>266.7</ele>
        <time>2018-06-17T13:19:29Z</time>
      </trkpt>
      <trkpt lat="44.30744" lon="1.5129">
        <ele>266.4</ele>
        <time>2018-06-17T13:19:33Z</time>
      </trkpt>
      <trkpt lat="44.30748" lon="1.51287">
        <ele>266.2</ele>
        <time>2018-06-17T13:19:38Z</time>
      </trkpt>
      <trkpt lat="44.30753" lon="1.51285">
        <ele>266</ele>
        <time>2018-06-17T13:19:43Z</time>
      </trkpt>
      <trkpt lat="44.30759" lon="1.51282">
        <ele>265.8</ele>
        <time>2018-06-17T13:19:46Z</time>
      </trkpt>
      <trkpt lat="44.30763" lon="1.51278">
        <ele>265.5</ele>
        <time>2018-06-17T13:19:51Z</time>
      </trkpt>
      <trkpt lat="44.30767" lon="1.51276">
        <ele>265.3</ele>
        <time>2018-06-17T13:19:57Z</time>
      </trkpt>
      <trkpt lat="44.30772" lon="1.51272">
        <ele>265.1</ele>
        <time>2018-06-17T13:20:03Z</time>
      </trkpt>
      <trkpt lat="44.30777" lon="1.51269">
        <ele>264.8</ele>
        <time>2018-06-17T13:20:06Z</time>
      </trkpt>
      <trkpt lat="44.30782" lon="1.51265">
        <ele>264.5</ele>
        <time>2018-06-17T13:20:10Z</time>
      </trkpt>
      <trkpt lat="44.30787" lon="1.51263">
        <ele>264.3</ele>
        <time>2018-06-17T13:20:16Z</time>
      </trkpt>
      <trkpt lat="44.30792" lon="1.51261">
        <ele>264.2</ele>
        <time>2018-06-17T13:20:21Z</time>
      </trkpt>
      <trkpt lat="44.30797" lon="1.51259">
        <ele>264.1</ele>
        <time>2018-06-17T13:20:27Z</time>
      </trkpt>
      <trkpt lat="44.30803" lon="1.51257">
        <ele>264.1</ele>
        <time>2018-06-17T13:20:32Z</time>
      </trkpt>
      <trkpt lat="44.30808" lon="1.51255">
        <ele>264.1</ele>
        <time>2018-06-17T13:20:36Z</time>
      </trkpt>
      <trkpt lat="44.30813" lon="1.51255">
        <ele>264</ele>
        <time>2018-06-17T13:20:41Z</time>
      </trkpt>
      <trkpt lat="44.30818" lon="1.51255">
        <ele>263.9</ele>
        <time>2018-06-17T13:20:45Z</time>
      </trkpt>
      <trkpt lat="44.30824" lon="1.51255">
        <ele>263.7</ele>
        <time>2018-06-17T13:20:50Z</time>
      </trkpt>
      <trkpt lat="44.30829" lon="1.51255">
        <ele>263.5</ele>
        <time>2018-06-17T13:20:54Z</time>
      </trkpt>
      <trkpt lat="44.30834" lon="1.51255">
        <ele>263.2</ele>
        <time>2018-06-17T13:21:00Z</time>
      </trkpt>
      <trkpt lat="44.30839" lon="1.51256">
        <ele>262.9</ele>
        <time>2018-06-17T13:21:04Z</time>
      </trkpt>
      <trkpt lat="44.30844" lon="1.51256">
        <ele>262.6</ele>
        <time>2018-06-17T13:21:09Z</time>
      </trkpt>
      <trkpt lat="44.30849" lon="1.51256">
        <ele>262.3</ele>
        <time>2018-06-17T13:21:15Z</time>
      </trkpt>
      <trkpt lat="44.30854" lon="1.51257">
        <ele>262.1</ele>
        <time>2018-06-17T13:21:18Z</time>
      </trkpt>
      <trkpt lat="44.30859" lon="1.51257">
        <ele>261.9</ele>
        <time>2018-06-17T13:21:22Z</time>
      </trkpt>
      <trkpt lat="44.30864" lon="1.51257">
        <ele>261.8</ele>
        <time>2018-06-17T13:21:28Z</time>
      </trkpt>
      <trkpt lat="44.30869" lon="1.51256">
        <ele>261.7</ele>
        <time>2018-06-17T13:21:34Z</time>
      </trkpt>
      <trkpt lat="44.30874" lon="1.51257">
        <ele>261.7</ele>
        <time>2018-06-17T13:21:39Z</time>
      </trkpt>
      <trkpt lat="44.3088" lon="1.51257">
        <ele>261.7</ele>
        <time>2018-06-17T13:21:44Z</time>
      </trkpt>
      <trkpt lat="44.30885" lon="1.51258">
        <ele>261.7</ele>
        <time>2018-06-17T13:21:48Z</time>
      </trkpt>
      <trkpt lat="44.3089" lon="1.51258">
        <ele>261.7</ele>
        <time>2018-06-17T13:21:52Z</time>
      </trkpt>
      <trkpt lat="44.30896" lon="1.51259">
        <ele>261.7</ele>
        <time>2018-06-17T13:21:56Z</time>
      </trkpt>
      <trkpt lat="44.309" lon="1.5126">
        <ele>261.6</ele>
        <time>2018-06-17T13:22:01Z</time>
      </trkpt>
      <trkpt lat="44.30905" lon="1.5126">
        <ele>261.5</ele>
        <time>2018-06-17T13:22:06Z</time>
      </trkpt>
      <trkpt lat="44.3091" lon="1.51261">
        <ele>261.3</ele>
        <time>2018-06-17T13:22:10Z</time>
      </trkpt>
      <trkpt lat="44.30915" lon="1.51259">
        <ele>261.1</ele>
        <time>2018-06-17T13:22:14Z</time>
      </trkpt>
      <trkpt lat="44.30921" lon="1.51259">
        <ele>260.9</ele>
        <time>2018-06-17T13:22:20Z</time>
      </trkpt>
      <trkpt lat="44.30926" lon="1.5126">
        <ele>260.7</ele>
        <time>2018-06-17T13:22:24Z</time>
      </trkpt>
      <trkpt lat="44.30931" lon="1.51261">
        <ele>260.6</ele>
        <time>2018-06-17T13:22:28Z</time>
      </trkpt>
      <trkpt lat="44.30936" lon="1.51261">
        <ele>260.5</ele>
        <time>2018-06-17T13:22:33Z</time>
      </trkpt>
      <trkpt lat="44.3094" lon="1.51262">
        <ele>260.4</ele>
        <time>2018-06-17T13:22:37Z</time>
      </trkpt>
      <trkpt lat="44.30945" lon="1.51261">
        <ele>260.3</ele>
        <time>2018-06-17T13:22:42Z</time>
      </trkpt>
      <trkpt lat="44.3095" lon="1.5126">
        <ele>260.2</ele>
        <time>2018-06-17T13:22:46Z</time>
      </trkpt>
      <trkpt lat="44.30956" lon="1.5126">
        <ele>260.1</ele>
        <time>2018-06-17T13:22:52Z</time>
      </trkpt>
      <trkpt lat="44.3096" lon="1.51259">
        <ele>260</ele>
        <time>2018-06-17T13:22:56Z</time>
      </trkpt>
      <trkpt lat="44.30965" lon="1.51258">
        <ele>259.9</ele>
        <time>2018-06-17T13:22:59Z</time>
      </trkpt>
      <trkpt lat="44.30971" lon="1.51257">
        <ele>259.8</ele>
        <time>2018-06-17T13:23:04Z</time>
      </trkpt>
      <trkpt lat="44.30977" lon="1.51256">
        <ele>259.6</ele>
        <time>2018-06-17T13:23:08Z</time>
      </trkpt>
      <trkpt lat="44.30981" lon="1.51255">
        <ele>259.4</ele>
        <time>2018-06-17T13:23:13Z</time>
      </trkpt>
      <trkpt lat="44.30987" lon="1.51255">
        <ele>259.2</ele>
        <time>2018-06-17T13:23:19Z</time>
      </trkpt>
      <trkpt lat="44.30992" lon="1.51255">
        <ele>259</ele>
        <time>2018-06-17T13:23:23Z</time>
      </trkpt>
      <trkpt lat="44.30997" lon="1.51254">
        <ele>258.9</ele>
        <time>2018-06-17T13:23:28Z</time>
      </trkpt>
      <trkpt lat="44.31002" lon="1.51254">
        <ele>258.7</ele>
        <time>2018-06-17T13:23:33Z</time>
      </trkpt>
      <trkpt lat="44.31007" lon="1.51254">
        <ele>258.7</ele>
        <time>2018-06-17T13:23:37Z</time>
      </trkpt>
      <trkpt lat="44.31012" lon="1.51253">
        <ele>258.7</ele>
        <time>2018-06-17T13:23:41Z</time>
      </trkpt>
      <trkpt lat="44.31016" lon="1.51252">
        <ele>258.8</ele>
        <time>2018-06-17T13:23:45Z</time>
      </trkpt>
      <trkpt lat="44.31022" lon="1.51251">
        <ele>258.7</ele>
        <time>2018-06-17T13:23:49Z</time>
      </trkpt>
      <trkpt lat="44.31026" lon="1.51252">
        <ele>258.6</ele>
        <time>2018-06-17T13:23:54Z</time>
      </trkpt>
      <trkpt lat="44.31032" lon="1.51251">
        <ele>258.5</ele>
        <time>2018-06-17T13:23:58Z</time>
      </trkpt>
      <trkpt lat="44.31037" lon="1.51251">
        <ele>258.4</ele>
        <time>2018-06-17T13:24:02Z</time>
      </trkpt>
      <trkpt lat="44.31042" lon="1.5125">
        <ele>258.2</ele>
        <time>2018-06-17T13:24:08Z</time>
      </trkpt>
      <trkpt lat="44.31047" lon="1.51249">
        <ele>258.1</ele>
        <time>2018-06-17T13:24:12Z</time>
      </trkpt>
      <trkpt lat="44.31053" lon="1.51248">
        <ele>257.9</ele>
        <time>2018-06-17T13:24:16Z</time>
      </trkpt>
      <trkpt lat="44.31058" lon="1.51248">
        <ele>257.7</ele>
        <time>2018-06-17T13:24:21Z</time>
      </trkpt>
      <trkpt lat="44.31063" lon="1.51248">
        <ele>257.5</ele>
        <time>2018-06-17T13:24:26Z</time>
      </trkpt>
      <trkpt lat="44.31068" lon="1.51247">
        <ele>257.3</ele>
        <time>2018-06-17T13:24:30Z</time>
      </trkpt>
      <trkpt lat="44.31073" lon="1.51246">
        <ele>257.2</ele>
        <time>2018-06-17T13:24:36Z</time>
      </trkpt>
      <trkpt lat="44.31079" lon="1.51245">
        <ele>257.2</ele>
        <time>2018-06-17T13:24:41Z</time>
      </trkpt>
      <trkpt lat="44.31084" lon="1.51244">
        <ele>257.3</ele>
        <time>2018-06-17T13:24:46Z</time>
      </trkpt>
      <trkpt lat="44.31088" lon="1.51244">
        <ele>257.5</ele>
        <time>2018-06-17T13:24:50Z</time>
      </trkpt>
      <trkpt lat="44.31093" lon="1.51245">
        <ele>257.5</ele>
        <time>2018-06-17T13:24:54Z</time>
      </trkpt>
      <trkpt lat="44.31099" lon="1.51245">
        <ele>257.6</ele>
        <time>2018-06-17T13:24:58Z</time>
      </trkpt>
      <trkpt lat="44.31104" lon="1.51246">
        <ele>257.5</ele>
        <time>2018-06-17T13:25:02Z</time>
      </trkpt>
      <trkpt lat="44.31109" lon="1.51246">
        <ele>257.4</ele>
        <time>2018-06-17T13:25:06Z</time>
      </trkpt>
      <trkpt lat="44.31114" lon="1.51246">
        <ele>257.4</ele>
        <time>2018-06-17T13:25:10Z</time>
      </trkpt>
      <trkpt lat="44.31119" lon="1.51248">
        <ele>257.4</ele>
        <time>2018-06-17T13:25:14Z</time>
      </trkpt>
      <trkpt lat="44.31124" lon="1.51248">
        <ele>257.5</ele>
        <time>2018-06-17T13:25:21Z</time>
      </trkpt>
      <trkpt lat="44.31129" lon="1.51248">
        <ele>257.7</ele>
        <time>2018-06-17T13:25:25Z</time>
      </trkpt>
      <trkpt lat="44.31134" lon="1.51249">
        <ele>257.8</ele>
        <time>2018-06-17T13:25:30Z</time>
      </trkpt>
      <trkpt lat="44.31139" lon="1.51249">
        <ele>257.9</ele>
        <time>2018-06-17T13:25:36Z</time>
      </trkpt>
      <trkpt lat="44.31145" lon="1.5125">
        <ele>258.1</ele>
        <time>2018-06-17T13:25:42Z</time>
      </trkpt>
      <trkpt lat="44.3115" lon="1.51251">
        <ele>258.1</ele>
        <time>2018-06-17T13:25:46Z</time>
      </trkpt>
      <trkpt lat="44.31155" lon="1.51251">
        <ele>258.1</ele>
        <time>2018-06-17T13:25:50Z</time>
      </trkpt>
      <trkpt lat="44.31162" lon="1.51251">
        <ele>258</ele>
        <time>2018-06-17T13:25:56Z</time>
      </trkpt>
      <trkpt lat="44.31167" lon="1.5125">
        <ele>258</ele>
        <time>2018-06-17T13:26:01Z</time>
      </trkpt>
      <trkpt lat="44.31173" lon="1.51249">
        <ele>257.9</ele>
        <time>2018-06-17T13:26:06Z</time>
      </trkpt>
      <trkpt lat="44.31178" lon="1.5125">
        <ele>257.8</ele>
        <time>2018-06-17T13:26:11Z</time>
      </trkpt>
      <trkpt lat="44.31183" lon="1.5125">
        <ele>257.6</ele>
        <time>2018-06-17T13:26:15Z</time>
      </trkpt>
      <trkpt lat="44.31188" lon="1.5125">
        <ele>257.5</ele>
        <time>2018-06-17T13:26:19Z</time>
      </trkpt>
      <trkpt lat="44.31194" lon="1.51251">
        <ele>257.3</ele>
        <time>2018-06-17T13:26:24Z</time>
      </trkpt>
      <trkpt lat="44.31198" lon="1.51251">
        <ele>257.2</ele>
        <time>2018-06-17T13:26:27Z</time>
      </trkpt>
      <trkpt lat="44.31203" lon="1.51254">
        <ele>257.1</ele>
        <time>2018-06-17T13:26:34Z</time>
      </trkpt>
      <trkpt lat="44.31208" lon="1.51256">
        <ele>257</ele>
        <time>2018-06-17T13:26:38Z</time>
      </trkpt>
      <trkpt lat="44.31214" lon="1.51257">
        <ele>256.7</ele>
        <time>2018-06-17T13:26:42Z</time>
      </trkpt>
      <trkpt lat="44.31219" lon="1.51257">
        <ele>256.5</ele>
        <time>2018-06-17T13:26:46Z</time>
      </trkpt>
      <trkpt lat="44.31224" lon="1.51257">
        <ele>256.2</ele>
        <time>2018-06-17T13:26:50Z</time>
      </trkpt>
      <trkpt lat="44.31229" lon="1.51257">
        <ele>255.9</ele>
        <time>2018-06-17T13:26:55Z</time>
      </trkpt>
      <trkpt lat="44.31234" lon="1.51258">
        <ele>255.7</ele>
        <time>2018-06-17T13:26:59Z</time>
      </trkpt>
      <trkpt lat="44.31238" lon="1.51258">
        <ele>255.5</ele>
        <time>2018-06-17T13:27:03Z</time>
      </trkpt>
      <trkpt lat="44.31244" lon="1.5126">
        <ele>255.5</ele>
        <time>2018-06-17T13:27:09Z</time>
      </trkpt>
      <trkpt lat="44.31249" lon="1.5126">
        <ele>255.5</ele>
        <time>2018-06-17T13:27:13Z</time>
      </trkpt>
      <trkpt lat="44.31254" lon="1.51261">
        <ele>255.5</ele>
        <time>2018-06-17T13:27:18Z</time>
      </trkpt>
      <trkpt lat="44.31259" lon="1.51262">
        <ele>255.6</ele>
        <time>2018-06-17T13:27:23Z</time>
      </trkpt>
      <trkpt lat="44.31265" lon="1.51261">
        <ele>255.7</ele>
        <time>2018-06-17T13:27:28Z</time>
      </trkpt>
      <trkpt lat="44.3127" lon="1.51261">
        <ele>255.8</ele>
        <time>2018-06-17T13:27:32Z</time>
      </trkpt>
      <trkpt lat="44.31275" lon="1.51263">
        <ele>255.9</ele>
        <time>2018-06-17T13:27:37Z</time>
      </trkpt>
      <trkpt lat="44.3128" lon="1.51263">
        <ele>256</ele>
        <time>2018-06-17T13:27:41Z</time>
      </trkpt>
      <trkpt lat="44.31285" lon="1.51264">
        <ele>256.1</ele>
        <time>2018-06-17T13:27:45Z</time>
      </trkpt>
      <trkpt lat="44.3129" lon="1.51265">
        <ele>256.2</ele>
        <time>2018-06-17T13:27:51Z</time>
      </trkpt>
      <trkpt lat="44.31294" lon="1.51269">
        <ele>256.2</ele>
        <time>2018-06-17T13:27:56Z</time>
      </trkpt>
      <trkpt lat="44.31298" lon="1.51272">
        <ele>256.2</ele>
        <time>2018-06-17T13:28:00Z</time>
      </trkpt>
      <trkpt lat="44.31303" lon="1.51276">
        <ele>256.1</ele>
        <time>2018-06-17T13:28:05Z</time>
      </trkpt>
      <trkpt lat="44.31307" lon="1.5128">
        <ele>256</ele>
        <time>2018-06-17T13:28:09Z</time>
      </trkpt>
      <trkpt lat="44.31311" lon="1.51284">
        <ele>255.8</ele>
        <time>2018-06-17T13:28:13Z</time>
      </trkpt>
      <trkpt lat="44.31315" lon="1.51288">
        <ele>255.5</ele>
        <time>2018-06-17T13:28:20Z</time>
      </trkpt>
      <trkpt lat="44.3132" lon="1.51294">
        <ele>255.2</ele>
        <time>2018-06-17T13:28:24Z</time>
      </trkpt>
      <trkpt lat="44.31324" lon="1.51298">
        <ele>254.9</ele>
        <time>2018-06-17T13:28:28Z</time>
      </trkpt>
      <trkpt lat="44.31328" lon="1.51303">
        <ele>254.6</ele>
        <time>2018-06-17T13:28:32Z</time>
      </trkpt>
      <trkpt lat="44.31332" lon="1.51308">
        <ele>254.4</ele>
        <time>2018-06-17T13:28:39Z</time>
      </trkpt>
      <trkpt lat="44.31337" lon="1.51311">
        <ele>254.3</ele>
        <time>2018-06-17T13:28:43Z</time>
      </trkpt>
      <trkpt lat="44.31341" lon="1.51314">
        <ele>254.1</ele>
        <time>2018-06-17T13:28:48Z</time>
      </trkpt>
      <trkpt lat="44.31346" lon="1.51317">
        <ele>254.1</ele>
        <time>2018-06-17T13:28:52Z</time>
      </trkpt>
      <trkpt lat="44.3135" lon="1.51321">
        <ele>254.1</ele>
        <time>2018-06-17T13:28:57Z</time>
      </trkpt>
      <trkpt lat="44.31355" lon="1.51325">
        <ele>254.1</ele>
        <time>2018-06-17T13:29:01Z</time>
      </trkpt>
      <trkpt lat="44.31359" lon="1.5133">
        <ele>254</ele>
        <time>2018-06-17T13:29:06Z</time>
      </trkpt>
      <trkpt lat="44.31362" lon="1.51334">
        <ele>254</ele>
        <time>2018-06-17T13:29:12Z</time>
      </trkpt>
      <trkpt lat="44.31368" lon="1.51338">
        <ele>254</ele>
        <time>2018-06-17T13:29:17Z</time>
      </trkpt>
      <trkpt lat="44.31372" lon="1.51343">
        <ele>254</ele>
        <time>2018-06-17T13:29:21Z</time>
      </trkpt>
      <trkpt lat="44.31376" lon="1.51348">
        <ele>254</ele>
        <time>2018-06-17T13:29:25Z</time>
      </trkpt>
      <trkpt lat="44.31381" lon="1.51355">
        <ele>253.9</ele>
        <time>2018-06-17T13:29:32Z</time>
      </trkpt>
      <trkpt lat="44.31386" lon="1.51358">
        <ele>253.7</ele>
        <time>2018-06-17T13:29:35Z</time>
      </trkpt>
      <trkpt lat="44.31391" lon="1.51362">
        <ele>253.6</ele>
        <time>2018-06-17T13:29:42Z</time>
      </trkpt>
      <trkpt lat="44.31394" lon="1.51365">
        <ele>253.5</ele>
        <time>2018-06-17T13:29:46Z</time>
      </trkpt>
      <trkpt lat="44.31398" lon="1.51368">
        <ele>253.4</ele>
        <time>2018-06-17T13:29:50Z</time>
      </trkpt>
      <trkpt lat="44.31402" lon="1.51373">
        <ele>253.4</ele>
        <time>2018-06-17T13:29:55Z</time>
      </trkpt>
      <trkpt lat="44.31407" lon="1.51375">
        <ele>253.5</ele>
        <time>2018-06-17T13:30:02Z</time>
      </trkpt>
      <trkpt lat="44.31414" lon="1.51377">
        <ele>253.5</ele>
        <time>2018-06-17T13:30:08Z</time>
      </trkpt>
      <trkpt lat="44.3142" lon="1.51379">
        <ele>253.4</ele>
        <time>2018-06-17T13:30:13Z</time>
      </trkpt>
      <trkpt lat="44.31425" lon="1.51381">
        <ele>253.2</ele>
        <time>2018-06-17T13:30:18Z</time>
      </trkpt>
      <trkpt lat="44.31429" lon="1.51384">
        <ele>253</ele>
        <time>2018-06-17T13:30:22Z</time>
      </trkpt>
      <trkpt lat="44.31434" lon="1.51386">
        <ele>252.9</ele>
        <time>2018-06-17T13:30:26Z</time>
      </trkpt>
      <trkpt lat="44.31439" lon="1.5139">
        <ele>252.7</ele>
        <time>2018-06-17T13:30:31Z</time>
      </trkpt>
      <trkpt lat="44.31443" lon="1.51392">
        <ele>252.6</ele>
        <time>2018-06-17T13:30:36Z</time>
      </trkpt>
      <trkpt lat="44.31448" lon="1.51395">
        <ele>252.5</ele>
        <time>2018-06-17T13:30:40Z</time>
      </trkpt>
      <trkpt lat="44.31454" lon="1.51397">
        <ele>252.5</ele>
        <time>2018-06-17T13:30:45Z</time>
      </trkpt>
      <trkpt lat="44.31459" lon="1.514">
        <ele>252.5</ele>
        <time>2018-06-17T13:30:49Z</time>
      </trkpt>
      <trkpt lat="44.31463" lon="1.51404">
        <ele>252.5</ele>
        <time>2018-06-17T13:30:53Z</time>
      </trkpt>
      <trkpt lat="44.31467" lon="1.51407">
        <ele>252.5</ele>
        <time>2018-06-17T13:30:59Z</time>
      </trkpt>
      <trkpt lat="44.31472" lon="1.51411">
        <ele>252.4</ele>
        <time>2018-06-17T13:31:05Z</time>
      </trkpt>
      <trkpt lat="44.31476" lon="1.51416">
        <ele>252.4</ele>
        <time>2018-06-17T13:31:09Z</time>
      </trkpt>
      <trkpt lat="44.3148" lon="1.5142">
        <ele>252.3</ele>
        <time>2018-06-17T13:31:13Z</time>
      </trkpt>
      <trkpt lat="44.31486" lon="1.51425">
        <ele>252.2</ele>
        <time>2018-06-17T13:31:20Z</time>
      </trkpt>
      <trkpt lat="44.31491" lon="1.51428">
        <ele>252.1</ele>
        <time>2018-06-17T13:31:24Z</time>
      </trkpt>
      <trkpt lat="44.31496" lon="1.51432">
        <ele>251.9</ele>
        <time>2018-06-17T13:31:29Z</time>
      </trkpt>
      <trkpt lat="44.31501" lon="1.51436">
        <ele>251.8</ele>
        <time>2018-06-17T13:31:33Z</time>
      </trkpt>
      <trkpt lat="44.31506" lon="1.51441">
        <ele>251.6</ele>
        <time>2018-06-17T13:31:38Z</time>
      </trkpt>
      <trkpt lat="44.31511" lon="1.51443">
        <ele>251.5</ele>
        <time>2018-06-17T13:31:42Z</time>
      </trkpt>
      <trkpt lat="44.31515" lon="1.51447">
        <ele>251.4</ele>
        <time>2018-06-17T13:31:46Z</time>
      </trkpt>
      <trkpt lat="44.31519" lon="1.51452">
        <ele>251.3</ele>
        <time>2018-06-17T13:31:51Z</time>
      </trkpt>
      <trkpt lat="44.31523" lon="1.51455">
        <ele>251.2</ele>
        <time>2018-06-17T13:31:57Z</time>
      </trkpt>
      <trkpt lat="44.31527" lon="1.51459">
        <ele>251.2</ele>
        <time>2018-06-17T13:32:01Z</time>
      </trkpt>
      <trkpt lat="44.3153" lon="1.51464">
        <ele>251.1</ele>
        <time>2018-06-17T13:32:04Z</time>
      </trkpt>
      <trkpt lat="44.31533" lon="1.5147">
        <ele>251.1</ele>
        <time>2018-06-17T13:32:10Z</time>
      </trkpt>
      <trkpt lat="44.31537" lon="1.51476">
        <ele>251</ele>
        <time>2018-06-17T13:32:14Z</time>
      </trkpt>
      <trkpt lat="44.31539" lon="1.51481">
        <ele>250.8</ele>
        <time>2018-06-17T13:32:20Z</time>
      </trkpt>
      <trkpt lat="44.31541" lon="1.51487">
        <ele>250.7</ele>
        <time>2018-06-17T13:32:24Z</time>
      </trkpt>
      <trkpt lat="44.31543" lon="1.51493">
        <ele>250.6</ele>
        <time>2018-06-17T13:32:28Z</time>
      </trkpt>
      <trkpt lat="44.31545" lon="1.51499">
        <ele>250.4</ele>
        <time>2018-06-17T13:32:34Z</time>
      </trkpt>
      <trkpt lat="44.31547" lon="1.51505">
        <ele>250.3</ele>
        <time>2018-06-17T13:32:38Z</time>
      </trkpt>
      <trkpt lat="44.31549" lon="1.51511">
        <ele>250.2</ele>
        <time>2018-06-17T13:32:43Z</time>
      </trkpt>
      <trkpt lat="44.31551" lon="1.51517">
        <ele>250</ele>
        <time>2018-06-17T13:32:48Z</time>
      </trkpt>
      <trkpt lat="44.31556" lon="1.51522">
        <ele>249.9</ele>
        <time>2018-06-17T13:32:52Z</time>
      </trkpt>
      <trkpt lat="44.31559" lon="1.51528">
        <ele>249.7</ele>
        <time>2018-06-17T13:32:56Z</time>
      </trkpt>
      <trkpt lat="44.31562" lon="1.51535">
        <ele>249.6</ele>
        <time>2018-06-17T13:33:01Z</time>
      </trkpt>
      <trkpt lat="44.31566" lon="1.51544">
        <ele>249.5</ele>
        <time>2018-06-17T13:33:08Z</time>
      </trkpt>
      <trkpt lat="44.31569" lon="1.51549">
        <ele>249.5</ele>
        <time>2018-06-17T13:33:11Z</time>
      </trkpt>
      <trkpt lat="44.31572" lon="1.51554">
        <ele>249.6</ele>
        <time>2018-06-17T13:33:18Z</time>
      </trkpt>
      <trkpt lat="44.31576" lon="1.51559">
        <ele>249.8</ele>
        <time>2018-06-17T13:33:23Z</time>
      </trkpt>
      <trkpt lat="44.31581" lon="1.51563">
        <ele>250.1</ele>
        <time>2018-06-17T13:33:28Z</time>
      </trkpt>
      <trkpt lat="44.31584" lon="1.51569">
        <ele>250.4</ele>
        <time>2018-06-17T13:33:32Z</time>
      </trkpt>
      <trkpt lat="44.31588" lon="1.51575">
        <ele>250.8</ele>
        <time>2018-06-17T13:33:36Z</time>
      </trkpt>
      <trkpt lat="44.31592" lon="1.51581">
        <ele>251</ele>
        <time>2018-06-17T13:33:44Z</time>
      </trkpt>
      <trkpt lat="44.31595" lon="1.51587">
        <ele>251.3</ele>
        <time>2018-06-17T13:33:47Z</time>
      </trkpt>
      <trkpt lat="44.31598" lon="1.51592">
        <ele>251.4</ele>
        <time>2018-06-17T13:33:51Z</time>
      </trkpt>
      <trkpt lat="44.31602" lon="1.51596">
        <ele>251.5</ele>
        <time>2018-06-17T13:33:55Z</time>
      </trkpt>
      <trkpt lat="44.31606" lon="1.516">
        <ele>251.5</ele>
        <time>2018-06-17T13:33:59Z</time>
      </trkpt>
      <trkpt lat="44.31609" lon="1.51604">
        <ele>251.5</ele>
        <time>2018-06-17T13:34:03Z</time>
      </trkpt>
      <trkpt lat="44.31612" lon="1.51609">
        <ele>251.5</ele>
        <time>2018-06-17T13:34:08Z</time>
      </trkpt>
      <trkpt lat="44.31616" lon="1.51612">
        <ele>251.5</ele>
        <time>2018-06-17T13:34:12Z</time>
      </trkpt>
      <trkpt lat="44.3162" lon="1.51617">
        <ele>251.6</ele>
        <time>2018-06-17T13:34:17Z</time>
      </trkpt>
      <trkpt lat="44.31622" lon="1.51622">
        <ele>251.7</ele>
        <time>2018-06-17T13:34:21Z</time>
      </trkpt>
      <trkpt lat="44.31627" lon="1.51625">
        <ele>251.9</ele>
        <time>2018-06-17T13:34:25Z</time>
      </trkpt>
      <trkpt lat="44.3163" lon="1.5163">
        <ele>252.1</ele>
        <time>2018-06-17T13:34:29Z</time>
      </trkpt>
      <trkpt lat="44.31635" lon="1.51634">
        <ele>252.3</ele>
        <time>2018-06-17T13:34:33Z</time>
      </trkpt>
      <trkpt lat="44.31638" lon="1.51639">
        <ele>252.4</ele>
        <time>2018-06-17T13:34:38Z</time>
      </trkpt>
      <trkpt lat="44.31642" lon="1.51642">
        <ele>252.6</ele>
        <time>2018-06-17T13:34:43Z</time>
      </trkpt>
      <trkpt lat="44.31647" lon="1.51646">
        <ele>252.6</ele>
        <time>2018-06-17T13:34:48Z</time>
      </trkpt>
      <trkpt lat="44.3165" lon="1.5165">
        <ele>252.7</ele>
        <time>2018-06-17T13:34:51Z</time>
      </trkpt>
      <trkpt lat="44.31654" lon="1.51655">
        <ele>252.6</ele>
        <time>2018-06-17T13:34:57Z</time>
      </trkpt>
      <trkpt lat="44.31656" lon="1.5166">
        <ele>252.4</ele>
        <time>2018-06-17T13:35:01Z</time>
      </trkpt>
      <trkpt lat="44.3166" lon="1.51665">
        <ele>252.1</ele>
        <time>2018-06-17T13:35:04Z</time>
      </trkpt>
      <trkpt lat="44.31664" lon="1.51671">
        <ele>251.7</ele>
        <time>2018-06-17T13:35:08Z</time>
      </trkpt>
      <trkpt lat="44.31668" lon="1.51675">
        <ele>251.3</ele>
        <time>2018-06-17T13:35:14Z</time>
      </trkpt>
      <trkpt lat="44.31671" lon="1.51681">
        <ele>250.9</ele>
        <time>2018-06-17T13:35:18Z</time>
      </trkpt>
      <trkpt lat="44.31674" lon="1.51686">
        <ele>250.5</ele>
        <time>2018-06-17T13:35:21Z</time>
      </trkpt>
      <trkpt lat="44.31677" lon="1.51691">
        <ele>250.5</ele>
        <time>2018-06-17T13:35:24Z</time>
      </trkpt>
      <trkpt lat="44.3168" lon="1.51698">
        <ele>250.7</ele>
        <time>2018-06-17T13:35:32Z</time>
      </trkpt>
      <trkpt lat="44.31684" lon="1.517">
        <ele>250.9</ele>
        <time>2018-06-17T13:36:01Z</time>
      </trkpt>
      <trkpt lat="44.31688" lon="1.51702">
        <ele>251.2</ele>
        <time>2018-06-17T13:36:12Z</time>
      </trkpt>
      <trkpt lat="44.31688" lon="1.5171">
        <ele>251.7</ele>
        <time>2018-06-17T13:40:11Z</time>
      </trkpt>
      <trkpt lat="44.31685" lon="1.51716">
        <ele>251.8</ele>
        <time>2018-06-17T13:40:16Z</time>
      </trkpt>
      <trkpt lat="44.31682" lon="1.51722">
        <ele>251.8</ele>
        <time>2018-06-17T13:40:21Z</time>
      </trkpt>
      <trkpt lat="44.31679" lon="1.51728">
        <ele>251.8</ele>
        <time>2018-06-17T13:40:25Z</time>
      </trkpt>
      <trkpt lat="44.31674" lon="1.51733">
        <ele>251.6</ele>
        <time>2018-06-17T13:40:30Z</time>
      </trkpt>
      <trkpt lat="44.3167" lon="1.51738">
        <ele>251.4</ele>
        <time>2018-06-17T13:40:36Z</time>
      </trkpt>
      <trkpt lat="44.31666" lon="1.51743">
        <ele>251.1</ele>
        <time>2018-06-17T13:40:42Z</time>
      </trkpt>
      <trkpt lat="44.31664" lon="1.51749">
        <ele>250.8</ele>
        <time>2018-06-17T13:40:46Z</time>
      </trkpt>
      <trkpt lat="44.3166" lon="1.51753">
        <ele>250.5</ele>
        <time>2018-06-17T13:40:52Z</time>
      </trkpt>
      <trkpt lat="44.31657" lon="1.51758">
        <ele>250.3</ele>
        <time>2018-06-17T13:40:59Z</time>
      </trkpt>
      <trkpt lat="44.31654" lon="1.51765">
        <ele>250.1</ele>
        <time>2018-06-17T13:41:04Z</time>
      </trkpt>
      <trkpt lat="44.3165" lon="1.51772">
        <ele>250</ele>
        <time>2018-06-17T13:41:11Z</time>
      </trkpt>
      <trkpt lat="44.31647" lon="1.51777">
        <ele>249.7</ele>
        <time>2018-06-17T13:41:15Z</time>
      </trkpt>
      <trkpt lat="44.31644" lon="1.51783">
        <ele>249.5</ele>
        <time>2018-06-17T13:41:20Z</time>
      </trkpt>
      <trkpt lat="44.3164" lon="1.51787">
        <ele>249.2</ele>
        <time>2018-06-17T13:41:24Z</time>
      </trkpt>
      <trkpt lat="44.31637" lon="1.51791">
        <ele>249</ele>
        <time>2018-06-17T13:41:29Z</time>
      </trkpt>
      <trkpt lat="44.31632" lon="1.51795">
        <ele>248.9</ele>
        <time>2018-06-17T13:41:34Z</time>
      </trkpt>
      <trkpt lat="44.31628" lon="1.518">
        <ele>248.8</ele>
        <time>2018-06-17T13:41:39Z</time>
      </trkpt>
      <trkpt lat="44.31625" lon="1.51805">
        <ele>248.8</ele>
        <time>2018-06-17T13:41:43Z</time>
      </trkpt>
      <trkpt lat="44.31622" lon="1.51811">
        <ele>248.9</ele>
        <time>2018-06-17T13:41:49Z</time>
      </trkpt>
      <trkpt lat="44.31619" lon="1.51816">
        <ele>249</ele>
        <time>2018-06-17T13:41:53Z</time>
      </trkpt>
      <trkpt lat="44.31616" lon="1.51821">
        <ele>249.2</ele>
        <time>2018-06-17T13:41:59Z</time>
      </trkpt>
      <trkpt lat="44.31614" lon="1.51828">
        <ele>249.4</ele>
        <time>2018-06-17T13:42:04Z</time>
      </trkpt>
      <trkpt lat="44.3161" lon="1.51835">
        <ele>249.7</ele>
        <time>2018-06-17T13:42:09Z</time>
      </trkpt>
      <trkpt lat="44.31607" lon="1.5184">
        <ele>250</ele>
        <time>2018-06-17T13:42:12Z</time>
      </trkpt>
      <trkpt lat="44.31604" lon="1.51845">
        <ele>250.3</ele>
        <time>2018-06-17T13:42:17Z</time>
      </trkpt>
      <trkpt lat="44.31601" lon="1.51851">
        <ele>250.6</ele>
        <time>2018-06-17T13:42:23Z</time>
      </trkpt>
      <trkpt lat="44.31597" lon="1.51856">
        <ele>250.8</ele>
        <time>2018-06-17T13:42:27Z</time>
      </trkpt>
      <trkpt lat="44.31594" lon="1.51861">
        <ele>250.9</ele>
        <time>2018-06-17T13:42:33Z</time>
      </trkpt>
      <trkpt lat="44.3159" lon="1.51865">
        <ele>251</ele>
        <time>2018-06-17T13:42:40Z</time>
      </trkpt>
      <trkpt lat="44.31587" lon="1.5187">
        <ele>251</ele>
        <time>2018-06-17T13:42:44Z</time>
      </trkpt>
      <trkpt lat="44.31583" lon="1.51874">
        <ele>251</ele>
        <time>2018-06-17T13:42:48Z</time>
      </trkpt>
      <trkpt lat="44.31579" lon="1.51876">
        <ele>250.9</ele>
        <time>2018-06-17T13:42:54Z</time>
      </trkpt>
      <trkpt lat="44.31574" lon="1.51876">
        <ele>250.8</ele>
        <time>2018-06-17T13:42:59Z</time>
      </trkpt>
      <trkpt lat="44.31569" lon="1.51876">
        <ele>250.5</ele>
        <time>2018-06-17T13:43:04Z</time>
      </trkpt>
      <trkpt lat="44.31563" lon="1.51876">
        <ele>250.1</ele>
        <time>2018-06-17T13:43:08Z</time>
      </trkpt>
      <trkpt lat="44.31558" lon="1.51875">
        <ele>249.8</ele>
        <time>2018-06-17T13:43:14Z</time>
      </trkpt>
      <trkpt lat="44.31552" lon="1.51875">
        <ele>249.4</ele>
        <time>2018-06-17T13:43:19Z</time>
      </trkpt>
      <trkpt lat="44.31548" lon="1.51875">
        <ele>249.1</ele>
        <time>2018-06-17T13:43:24Z</time>
      </trkpt>
      <trkpt lat="44.31542" lon="1.51876">
        <ele>248.9</ele>
        <time>2018-06-17T13:43:30Z</time>
      </trkpt>
      <trkpt lat="44.31537" lon="1.51877">
        <ele>248.9</ele>
        <time>2018-06-17T13:43:35Z</time>
      </trkpt>
      <trkpt lat="44.31532" lon="1.51878">
        <ele>249</ele>
        <time>2018-06-17T13:43:38Z</time>
      </trkpt>
      <trkpt lat="44.31527" lon="1.51878">
        <ele>249</ele>
        <time>2018-06-17T13:43:43Z</time>
      </trkpt>
      <trkpt lat="44.31522" lon="1.5188">
        <ele>249.1</ele>
        <time>2018-06-17T13:43:48Z</time>
      </trkpt>
      <trkpt lat="44.31518" lon="1.51879">
        <ele>249.1</ele>
        <time>2018-06-17T13:43:52Z</time>
      </trkpt>
      <trkpt lat="44.31512" lon="1.5188">
        <ele>249</ele>
        <time>2018-06-17T13:43:58Z</time>
      </trkpt>
      <trkpt lat="44.31507" lon="1.51877">
        <ele>248.9</ele>
        <time>2018-06-17T13:44:02Z</time>
      </trkpt>
      <trkpt lat="44.31501" lon="1.51876">
        <ele>248.8</ele>
        <time>2018-06-17T13:44:06Z</time>
      </trkpt>
      <trkpt lat="44.31497" lon="1.51874">
        <ele>248.7</ele>
        <time>2018-06-17T13:44:11Z</time>
      </trkpt>
      <trkpt lat="44.31492" lon="1.51873">
        <ele>248.5</ele>
        <time>2018-06-17T13:44:15Z</time>
      </trkpt>
      <trkpt lat="44.31487" lon="1.51873">
        <ele>248.2</ele>
        <time>2018-06-17T13:44:20Z</time>
      </trkpt>
      <trkpt lat="44.31482" lon="1.51872">
        <ele>248</ele>
        <time>2018-06-17T13:44:25Z</time>
      </trkpt>
      <trkpt lat="44.31477" lon="1.51872">
        <ele>247.8</ele>
        <time>2018-06-17T13:44:31Z</time>
      </trkpt>
      <trkpt lat="44.31472" lon="1.51873">
        <ele>247.6</ele>
        <time>2018-06-17T13:44:38Z</time>
      </trkpt>
      <trkpt lat="44.31468" lon="1.51877">
        <ele>248.1</ele>
        <time>2018-06-17T13:44:42Z</time>
      </trkpt>
      <trkpt lat="44.31462" lon="1.51877">
        <ele>248.8</ele>
        <time>2018-06-17T13:44:50Z</time>
      </trkpt>
      <trkpt lat="44.31458" lon="1.51875">
        <ele>249.5</ele>
        <time>2018-06-17T13:44:54Z</time>
      </trkpt>
      <trkpt lat="44.31453" lon="1.51877">
        <ele>250.1</ele>
        <time>2018-06-17T13:45:03Z</time>
      </trkpt>
      <trkpt lat="44.31449" lon="1.51876">
        <ele>250.7</ele>
        <time>2018-06-17T13:45:17Z</time>
      </trkpt>
      <trkpt lat="44.31444" lon="1.51874">
        <ele>250.7</ele>
        <time>2018-06-17T13:45:25Z</time>
      </trkpt>
      <trkpt lat="44.31439" lon="1.5187">
        <ele>250.5</ele>
        <time>2018-06-17T13:45:29Z</time>
      </trkpt>
      <trkpt lat="44.31435" lon="1.51866">
        <ele>250.1</ele>
        <time>2018-06-17T13:45:37Z</time>
      </trkpt>
      <trkpt lat="44.31431" lon="1.51863">
        <ele>249.8</ele>
        <time>2018-06-17T13:45:43Z</time>
      </trkpt>
      <trkpt lat="44.31427" lon="1.51862">
        <ele>249.6</ele>
        <time>2018-06-17T13:45:48Z</time>
      </trkpt>
      <trkpt lat="44.31422" lon="1.51861">
        <ele>249.3</ele>
        <time>2018-06-17T13:45:52Z</time>
      </trkpt>
      <trkpt lat="44.31417" lon="1.51859">
        <ele>249.2</ele>
        <time>2018-06-17T13:45:58Z</time>
      </trkpt>
      <trkpt lat="44.31413" lon="1.5186">
        <ele>249.1</ele>
        <time>2018-06-17T13:46:04Z</time>
      </trkpt>
      <trkpt lat="44.31409" lon="1.51863">
        <ele>249.1</ele>
        <time>2018-06-17T13:46:10Z</time>
      </trkpt>
      <trkpt lat="44.31405" lon="1.51871">
        <ele>249.1</ele>
        <time>2018-06-17T13:46:15Z</time>
      </trkpt>
      <trkpt lat="44.31402" lon="1.51877">
        <ele>249.2</ele>
        <time>2018-06-17T13:46:19Z</time>
      </trkpt>
      <trkpt lat="44.31398" lon="1.51882">
        <ele>249.3</ele>
        <time>2018-06-17T13:46:24Z</time>
      </trkpt>
      <trkpt lat="44.31393" lon="1.51884">
        <ele>249.6</ele>
        <time>2018-06-17T13:46:29Z</time>
      </trkpt>
      <trkpt lat="44.31389" lon="1.51885">
        <ele>249.9</ele>
        <time>2018-06-17T13:46:35Z</time>
      </trkpt>
      <trkpt lat="44.31384" lon="1.51882">
        <ele>250.1</ele>
        <time>2018-06-17T13:46:41Z</time>
      </trkpt>
      <trkpt lat="44.31382" lon="1.51876">
        <ele>250.5</ele>
        <time>2018-06-17T13:46:47Z</time>
      </trkpt>
      <trkpt lat="44.31379" lon="1.5187">
        <ele>250.8</ele>
        <time>2018-06-17T13:46:52Z</time>
      </trkpt>
      <trkpt lat="44.31377" lon="1.51865">
        <ele>251.1</ele>
        <time>2018-06-17T13:47:01Z</time>
      </trkpt>
      <trkpt lat="44.31375" lon="1.51858">
        <ele>250.9</ele>
        <time>2018-06-17T13:47:13Z</time>
      </trkpt>
      <trkpt lat="44.31375" lon="1.51851">
        <ele>250.6</ele>
        <time>2018-06-17T13:47:24Z</time>
      </trkpt>
      <trkpt lat="44.31374" lon="1.51844">
        <ele>250.1</ele>
        <time>2018-06-17T13:47:33Z</time>
      </trkpt>
      <trkpt lat="44.31373" lon="1.51838">
        <ele>249.4</ele>
        <time>2018-06-17T13:47:47Z</time>
      </trkpt>
      <trkpt lat="44.31374" lon="1.51832">
        <ele>248.4</ele>
        <time>2018-06-17T13:48:20Z</time>
      </trkpt>
      <trkpt lat="44.3137" lon="1.51827">
        <ele>247.5</ele>
        <time>2018-06-17T13:48:34Z</time>
      </trkpt>
      <trkpt lat="44.31369" lon="1.51821">
        <ele>246.6</ele>
        <time>2018-06-17T13:48:39Z</time>
      </trkpt>
      <trkpt lat="44.31366" lon="1.51816">
        <ele>245.6</ele>
        <time>2018-06-17T13:48:44Z</time>
      </trkpt>
      <trkpt lat="44.31363" lon="1.51812">
        <ele>244.8</ele>
        <time>2018-06-17T13:48:50Z</time>
      </trkpt>
      <trkpt lat="44.31358" lon="1.51808">
        <ele>244.1</ele>
        <time>2018-06-17T13:48:55Z</time>
      </trkpt>
      <trkpt lat="44.31354" lon="1.51805">
        <ele>243.6</ele>
        <time>2018-06-17T13:49:01Z</time>
      </trkpt>
      <trkpt lat="44.3135" lon="1.51808">
        <ele>243.2</ele>
        <time>2018-06-17T13:49:10Z</time>
      </trkpt>
      <trkpt lat="44.31345" lon="1.51807">
        <ele>242.8</ele>
        <time>2018-06-17T13:49:24Z</time>
      </trkpt>
      <trkpt lat="44.31341" lon="1.51803">
        <ele>242.2</ele>
        <time>2018-06-17T13:49:31Z</time>
      </trkpt>
      <trkpt lat="44.31337" lon="1.51799">
        <ele>241.7</ele>
        <time>2018-06-17T13:49:40Z</time>
      </trkpt>
      <trkpt lat="44.31333" lon="1.51794">
        <ele>241.3</ele>
        <time>2018-06-17T13:49:47Z</time>
      </trkpt>
      <trkpt lat="44.3133" lon="1.5179">
        <ele>240.9</ele>
        <time>2018-06-17T13:49:52Z</time>
      </trkpt>
      <trkpt lat="44.31326" lon="1.51787">
        <ele>240.6</ele>
        <time>2018-06-17T13:49:57Z</time>
      </trkpt>
      <trkpt lat="44.31321" lon="1.51784">
        <ele>240.2</ele>
        <time>2018-06-17T13:50:02Z</time>
      </trkpt>
      <trkpt lat="44.31316" lon="1.51782">
        <ele>239.9</ele>
        <time>2018-06-17T13:50:08Z</time>
      </trkpt>
      <trkpt lat="44.31312" lon="1.51777">
        <ele>239.4</ele>
        <time>2018-06-17T13:50:13Z</time>
      </trkpt>
      <trkpt lat="44.31308" lon="1.51772">
        <ele>239</ele>
        <time>2018-06-17T13:50:18Z</time>
      </trkpt>
      <trkpt lat="44.31306" lon="1.51767">
        <ele>238.5</ele>
        <time>2018-06-17T13:50:23Z</time>
      </trkpt>
      <trkpt lat="44.31304" lon="1.51761">
        <ele>238.1</ele>
        <time>2018-06-17T13:50:28Z</time>
      </trkpt>
      <trkpt lat="44.31302" lon="1.51755">
        <ele>237.7</ele>
        <time>2018-06-17T13:50:35Z</time>
      </trkpt>
      <trkpt lat="44.31299" lon="1.5175">
        <ele>237.3</ele>
        <time>2018-06-17T13:50:42Z</time>
      </trkpt>
      <trkpt lat="44.31297" lon="1.51756">
        <ele>237</ele>
        <time>2018-06-17T13:51:15Z</time>
      </trkpt>
      <trkpt lat="44.31297" lon="1.51762">
        <ele>236.8</ele>
        <time>2018-06-17T13:51:21Z</time>
      </trkpt>
      <trkpt lat="44.31294" lon="1.51757">
        <ele>236.6</ele>
        <time>2018-06-17T13:51:31Z</time>
      </trkpt>
      <trkpt lat="44.31291" lon="1.51752">
        <ele>236.5</ele>
        <time>2018-06-17T13:51:40Z</time>
      </trkpt>
      <trkpt lat="44.31287" lon="1.51747">
        <ele>236.5</ele>
        <time>2018-06-17T13:51:50Z</time>
      </trkpt>
      <trkpt lat="44.31283" lon="1.51742">
        <ele>236.5</ele>
        <time>2018-06-17T13:51:55Z</time>
      </trkpt>
      <trkpt lat="44.3128" lon="1.51738">
        <ele>236.4</ele>
        <time>2018-06-17T13:51:59Z</time>
      </trkpt>
      <trkpt lat="44.31277" lon="1.51733">
        <ele>236.3</ele>
        <time>2018-06-17T13:52:04Z</time>
      </trkpt>
      <trkpt lat="44.31273" lon="1.51729">
        <ele>236</ele>
        <time>2018-06-17T13:52:09Z</time>
      </trkpt>
      <trkpt lat="44.3127" lon="1.51724">
        <ele>235.7</ele>
        <time>2018-06-17T13:52:21Z</time>
      </trkpt>
      <trkpt lat="44.31266" lon="1.51719">
        <ele>235.5</ele>
        <time>2018-06-17T13:52:28Z</time>
      </trkpt>
      <trkpt lat="44.31263" lon="1.51713">
        <ele>235.3</ele>
        <time>2018-06-17T13:52:34Z</time>
      </trkpt>
      <trkpt lat="44.31259" lon="1.51709">
        <ele>235.2</ele>
        <time>2018-06-17T13:52:38Z</time>
      </trkpt>
      <trkpt lat="44.31256" lon="1.51704">
        <ele>235.2</ele>
        <time>2018-06-17T13:52:42Z</time>
      </trkpt>
      <trkpt lat="44.31252" lon="1.51699">
        <ele>235.2</ele>
        <time>2018-06-17T13:52:46Z</time>
      </trkpt>
      <trkpt lat="44.31247" lon="1.51695">
        <ele>235.3</ele>
        <time>2018-06-17T13:52:52Z</time>
      </trkpt>
      <trkpt lat="44.31243" lon="1.5169">
        <ele>235.3</ele>
        <time>2018-06-17T13:52:57Z</time>
      </trkpt>
      <trkpt lat="44.31239" lon="1.51686">
        <ele>235.3</ele>
        <time>2018-06-17T13:53:01Z</time>
      </trkpt>
      <trkpt lat="44.31235" lon="1.51682">
        <ele>235.4</ele>
        <time>2018-06-17T13:53:06Z</time>
      </trkpt>
      <trkpt lat="44.31232" lon="1.51677">
        <ele>235.4</ele>
        <time>2018-06-17T13:53:10Z</time>
      </trkpt>
      <trkpt lat="44.31227" lon="1.51673">
        <ele>235.5</ele>
        <time>2018-06-17T13:53:14Z</time>
      </trkpt>
      <trkpt lat="44.31223" lon="1.51668">
        <ele>235.6</ele>
        <time>2018-06-17T13:53:19Z</time>
      </trkpt>
      <trkpt lat="44.31219" lon="1.51664">
        <ele>235.7</ele>
        <time>2018-06-17T13:53:23Z</time>
      </trkpt>
      <trkpt lat="44.31215" lon="1.51661">
        <ele>235.9</ele>
        <time>2018-06-17T13:53:27Z</time>
      </trkpt>
      <trkpt lat="44.31211" lon="1.51658">
        <ele>236.1</ele>
        <time>2018-06-17T13:53:31Z</time>
      </trkpt>
      <trkpt lat="44.31206" lon="1.51654">
        <ele>236.2</ele>
        <time>2018-06-17T13:53:37Z</time>
      </trkpt>
      <trkpt lat="44.31202" lon="1.5165">
        <ele>236.4</ele>
        <time>2018-06-17T13:53:42Z</time>
      </trkpt>
      <trkpt lat="44.31197" lon="1.51647">
        <ele>236.6</ele>
        <time>2018-06-17T13:53:47Z</time>
      </trkpt>
      <trkpt lat="44.31193" lon="1.51643">
        <ele>236.8</ele>
        <time>2018-06-17T13:53:52Z</time>
      </trkpt>
      <trkpt lat="44.31197" lon="1.51648">
        <ele>237.1</ele>
        <time>2018-06-17T13:54:14Z</time>
      </trkpt>
      <trkpt lat="44.31202" lon="1.5165">
        <ele>237.3</ele>
        <time>2018-06-17T13:54:20Z</time>
      </trkpt>
      <trkpt lat="44.31207" lon="1.51654">
        <ele>237.5</ele>
        <time>2018-06-17T13:54:25Z</time>
      </trkpt>
      <trkpt lat="44.31211" lon="1.51658">
        <ele>237.7</ele>
        <time>2018-06-17T13:54:30Z</time>
      </trkpt>
      <trkpt lat="44.31216" lon="1.51661">
        <ele>237.8</ele>
        <time>2018-06-17T13:54:34Z</time>
      </trkpt>
      <trkpt lat="44.3122" lon="1.51665">
        <ele>237.9</ele>
        <time>2018-06-17T13:54:39Z</time>
      </trkpt>
      <trkpt lat="44.31224" lon="1.5167">
        <ele>237.9</ele>
        <time>2018-06-17T13:54:43Z</time>
      </trkpt>
      <trkpt lat="44.31228" lon="1.51673">
        <ele>237.8</ele>
        <time>2018-06-17T13:54:48Z</time>
      </trkpt>
      <trkpt lat="44.31232" lon="1.51678">
        <ele>237.7</ele>
        <time>2018-06-17T13:54:52Z</time>
      </trkpt>
      <trkpt lat="44.31236" lon="1.51682">
        <ele>237.6</ele>
        <time>2018-06-17T13:54:56Z</time>
      </trkpt>
      <trkpt lat="44.3124" lon="1.51686">
        <ele>237.3</ele>
        <time>2018-06-17T13:55:02Z</time>
      </trkpt>
      <trkpt lat="44.31243" lon="1.51693">
        <ele>236.9</ele>
        <time>2018-06-17T13:55:06Z</time>
      </trkpt>
      <trkpt lat="44.31244" lon="1.517">
        <ele>236.3</ele>
        <time>2018-06-17T13:55:10Z</time>
      </trkpt>
      <trkpt lat="44.31245" lon="1.51706">
        <ele>235.5</ele>
        <time>2018-06-17T13:55:14Z</time>
      </trkpt>
      <trkpt lat="44.31244" lon="1.51712">
        <ele>234.6</ele>
        <time>2018-06-17T13:55:20Z</time>
      </trkpt>
      <trkpt lat="44.3124" lon="1.51716">
        <ele>233.5</ele>
        <time>2018-06-17T13:55:26Z</time>
      </trkpt>
      <trkpt lat="44.31235" lon="1.5172">
        <ele>232.5</ele>
        <time>2018-06-17T13:55:31Z</time>
      </trkpt>
      <trkpt lat="44.3123" lon="1.51723">
        <ele>231.6</ele>
        <time>2018-06-17T13:55:38Z</time>
      </trkpt>
      <trkpt lat="44.31226" lon="1.51725">
        <ele>230.8</ele>
        <time>2018-06-17T13:55:42Z</time>
      </trkpt>
      <trkpt lat="44.31221" lon="1.51728">
        <ele>229.9</ele>
        <time>2018-06-17T13:55:47Z</time>
      </trkpt>
      <trkpt lat="44.31216" lon="1.51733">
        <ele>229.2</ele>
        <time>2018-06-17T13:55:51Z</time>
      </trkpt>
      <trkpt lat="44.31212" lon="1.51738">
        <ele>228.4</ele>
        <time>2018-06-17T13:55:56Z</time>
      </trkpt>
      <trkpt lat="44.31208" lon="1.51742">
        <ele>227.7</ele>
        <time>2018-06-17T13:56:00Z</time>
      </trkpt>
      <trkpt lat="44.31204" lon="1.51747">
        <ele>226.9</ele>
        <time>2018-06-17T13:56:05Z</time>
      </trkpt>
      <trkpt lat="44.31201" lon="1.51752">
        <ele>226.3</ele>
        <time>2018-06-17T13:56:09Z</time>
      </trkpt>
      <trkpt lat="44.31197" lon="1.51757">
        <ele>225.9</ele>
        <time>2018-06-17T13:56:14Z</time>
      </trkpt>
      <trkpt lat="44.31194" lon="1.51763">
        <ele>225.5</ele>
        <time>2018-06-17T13:56:18Z</time>
      </trkpt>
      <trkpt lat="44.31191" lon="1.51767">
        <ele>225.2</ele>
        <time>2018-06-17T13:56:23Z</time>
      </trkpt>
      <trkpt lat="44.31187" lon="1.51773">
        <ele>224.9</ele>
        <time>2018-06-17T13:56:27Z</time>
      </trkpt>
      <trkpt lat="44.31183" lon="1.51777">
        <ele>224.7</ele>
        <time>2018-06-17T13:56:32Z</time>
      </trkpt>
      <trkpt lat="44.31178" lon="1.51782">
        <ele>224.5</ele>
        <time>2018-06-17T13:56:37Z</time>
      </trkpt>
      <trkpt lat="44.31174" lon="1.51786">
        <ele>224.4</ele>
        <time>2018-06-17T13:56:41Z</time>
      </trkpt>
      <trkpt lat="44.31169" lon="1.5179">
        <ele>224.4</ele>
        <time>2018-06-17T13:56:45Z</time>
      </trkpt>
      <trkpt lat="44.31166" lon="1.51795">
        <ele>224.3</ele>
        <time>2018-06-17T13:56:50Z</time>
      </trkpt>
      <trkpt lat="44.31162" lon="1.518">
        <ele>224.2</ele>
        <time>2018-06-17T13:56:54Z</time>
      </trkpt>
      <trkpt lat="44.31159" lon="1.51804">
        <ele>224.1</ele>
        <time>2018-06-17T13:56:57Z</time>
      </trkpt>
      <trkpt lat="44.31154" lon="1.51808">
        <ele>224.1</ele>
        <time>2018-06-17T13:57:01Z</time>
      </trkpt>
      <trkpt lat="44.31151" lon="1.51812">
        <ele>224.2</ele>
        <time>2018-06-17T13:57:06Z</time>
      </trkpt>
      <trkpt lat="44.31147" lon="1.51815">
        <ele>224.1</ele>
        <time>2018-06-17T13:57:10Z</time>
      </trkpt>
      <trkpt lat="44.31143" lon="1.51819">
        <ele>224.6</ele>
        <time>2018-06-17T13:57:17Z</time>
      </trkpt>
      <trkpt lat="44.31139" lon="1.51823">
        <ele>225.1</ele>
        <time>2018-06-17T13:57:28Z</time>
      </trkpt>
      <trkpt lat="44.31136" lon="1.51827">
        <ele>225.6</ele>
        <time>2018-06-17T13:57:42Z</time>
      </trkpt>
      <trkpt lat="44.31137" lon="1.51821">
        <ele>226.1</ele>
        <time>2018-06-17T13:58:40Z</time>
      </trkpt>
      <trkpt lat="44.31132" lon="1.51823">
        <ele>226.9</ele>
        <time>2018-06-17T14:00:31Z</time>
      </trkpt>
      <trkpt lat="44.31129" lon="1.51828">
        <ele>227.3</ele>
        <time>2018-06-17T14:00:34Z</time>
      </trkpt>
      <trkpt lat="44.31124" lon="1.51833">
        <ele>227.8</ele>
        <time>2018-06-17T14:00:36Z</time>
      </trkpt>
      <trkpt lat="44.3112" lon="1.51837">
        <ele>228.5</ele>
        <time>2018-06-17T14:00:39Z</time>
      </trkpt>
      <trkpt lat="44.31116" lon="1.51841">
        <ele>229.2</ele>
        <time>2018-06-17T14:00:48Z</time>
      </trkpt>
      <trkpt lat="44.31112" lon="1.51847">
        <ele>229.7</ele>
        <time>2018-06-17T14:00:53Z</time>
      </trkpt>
      <trkpt lat="44.31109" lon="1.51851">
        <ele>230</ele>
        <time>2018-06-17T14:00:59Z</time>
      </trkpt>
      <trkpt lat="44.31105" lon="1.51857">
        <ele>230.1</ele>
        <time>2018-06-17T14:01:04Z</time>
      </trkpt>
      <trkpt lat="44.31101" lon="1.51861">
        <ele>230.1</ele>
        <time>2018-06-17T14:01:10Z</time>
      </trkpt>
      <trkpt lat="44.31097" lon="1.51863">
        <ele>230</ele>
        <time>2018-06-17T14:01:15Z</time>
      </trkpt>
      <trkpt lat="44.31092" lon="1.51865">
        <ele>229.8</ele>
        <time>2018-06-17T14:01:20Z</time>
      </trkpt>
      <trkpt lat="44.31086" lon="1.51862">
        <ele>229.6</ele>
        <time>2018-06-17T14:01:24Z</time>
      </trkpt>
      <trkpt lat="44.31082" lon="1.51857">
        <ele>229.5</ele>
        <time>2018-06-17T14:01:27Z</time>
      </trkpt>
      <trkpt lat="44.31079" lon="1.51852">
        <ele>229.4</ele>
        <time>2018-06-17T14:01:30Z</time>
      </trkpt>
      <trkpt lat="44.31076" lon="1.51846">
        <ele>229.3</ele>
        <time>2018-06-17T14:01:35Z</time>
      </trkpt>
      <trkpt lat="44.31072" lon="1.51839">
        <ele>229.2</ele>
        <time>2018-06-17T14:01:39Z</time>
      </trkpt>
      <trkpt lat="44.31068" lon="1.51833">
        <ele>229.1</ele>
        <time>2018-06-17T14:01:44Z</time>
      </trkpt>
      <trkpt lat="44.31064" lon="1.51828">
        <ele>229</ele>
        <time>2018-06-17T14:01:48Z</time>
      </trkpt>
      <trkpt lat="44.31061" lon="1.51822">
        <ele>228.9</ele>
        <time>2018-06-17T14:01:53Z</time>
      </trkpt>
      <trkpt lat="44.31058" lon="1.51816">
        <ele>228.8</ele>
        <time>2018-06-17T14:01:57Z</time>
      </trkpt>
      <trkpt lat="44.31055" lon="1.51809">
        <ele>228.4</ele>
        <time>2018-06-17T14:02:03Z</time>
      </trkpt>
      <trkpt lat="44.31051" lon="1.51805">
        <ele>227.7</ele>
        <time>2018-06-17T14:02:07Z</time>
      </trkpt>
      <trkpt lat="44.31047" lon="1.51804">
        <ele>226.8</ele>
        <time>2018-06-17T14:02:12Z</time>
      </trkpt>
      <trkpt lat="44.31043" lon="1.51807">
        <ele>225.8</ele>
        <time>2018-06-17T14:02:17Z</time>
      </trkpt>
      <trkpt lat="44.31039" lon="1.5181">
        <ele>224.6</ele>
        <time>2018-06-17T14:02:24Z</time>
      </trkpt>
      <trkpt lat="44.31034" lon="1.51814">
        <ele>223.3</ele>
        <time>2018-06-17T14:02:30Z</time>
      </trkpt>
      <trkpt lat="44.31028" lon="1.51817">
        <ele>221.8</ele>
        <time>2018-06-17T14:02:35Z</time>
      </trkpt>
      <trkpt lat="44.31024" lon="1.51819">
        <ele>220.5</ele>
        <time>2018-06-17T14:02:39Z</time>
      </trkpt>
      <trkpt lat="44.31019" lon="1.5182">
        <ele>219.1</ele>
        <time>2018-06-17T14:02:45Z</time>
      </trkpt>
      <trkpt lat="44.31014" lon="1.51823">
        <ele>217.8</ele>
        <time>2018-06-17T14:02:52Z</time>
      </trkpt>
      <trkpt lat="44.3101" lon="1.51827">
        <ele>216.8</ele>
        <time>2018-06-17T14:02:57Z</time>
      </trkpt>
      <trkpt lat="44.31005" lon="1.51829">
        <ele>215.9</ele>
        <time>2018-06-17T14:03:02Z</time>
      </trkpt>
      <trkpt lat="44.31001" lon="1.51831">
        <ele>215</ele>
        <time>2018-06-17T14:03:06Z</time>
      </trkpt>
      <trkpt lat="44.30996" lon="1.51834">
        <ele>214.2</ele>
        <time>2018-06-17T14:03:12Z</time>
      </trkpt>
      <trkpt lat="44.30991" lon="1.51838">
        <ele>213.3</ele>
        <time>2018-06-17T14:03:16Z</time>
      </trkpt>
      <trkpt lat="44.30987" lon="1.51841">
        <ele>212.3</ele>
        <time>2018-06-17T14:03:19Z</time>
      </trkpt>
      <trkpt lat="44.30982" lon="1.51846">
        <ele>211.2</ele>
        <time>2018-06-17T14:03:24Z</time>
      </trkpt>
      <trkpt lat="44.30979" lon="1.5185">
        <ele>210.2</ele>
        <time>2018-06-17T14:03:28Z</time>
      </trkpt>
      <trkpt lat="44.30975" lon="1.51854">
        <ele>209.4</ele>
        <time>2018-06-17T14:03:32Z</time>
      </trkpt>
      <trkpt lat="44.30971" lon="1.51857">
        <ele>208.7</ele>
        <time>2018-06-17T14:03:36Z</time>
      </trkpt>
      <trkpt lat="44.30967" lon="1.51861">
        <ele>208.2</ele>
        <time>2018-06-17T14:03:40Z</time>
      </trkpt>
      <trkpt lat="44.30963" lon="1.51865">
        <ele>208</ele>
        <time>2018-06-17T14:03:46Z</time>
      </trkpt>
      <trkpt lat="44.30959" lon="1.5187">
        <ele>207.8</ele>
        <time>2018-06-17T14:03:51Z</time>
      </trkpt>
      <trkpt lat="44.30954" lon="1.51875">
        <ele>207.8</ele>
        <time>2018-06-17T14:03:55Z</time>
      </trkpt>
      <trkpt lat="44.3095" lon="1.51878">
        <ele>207.8</ele>
        <time>2018-06-17T14:03:58Z</time>
      </trkpt>
      <trkpt lat="44.30946" lon="1.51883">
        <ele>207.8</ele>
        <time>2018-06-17T14:04:02Z</time>
      </trkpt>
      <trkpt lat="44.30943" lon="1.51888">
        <ele>208</ele>
        <time>2018-06-17T14:04:06Z</time>
      </trkpt>
      <trkpt lat="44.30938" lon="1.51893">
        <ele>208.2</ele>
        <time>2018-06-17T14:04:11Z</time>
      </trkpt>
      <trkpt lat="44.30935" lon="1.51898">
        <ele>208.5</ele>
        <time>2018-06-17T14:04:15Z</time>
      </trkpt>
      <trkpt lat="44.30931" lon="1.51903">
        <ele>208.7</ele>
        <time>2018-06-17T14:04:19Z</time>
      </trkpt>
      <trkpt lat="44.30928" lon="1.5191">
        <ele>209.8</ele>
        <time>2018-06-17T14:04:23Z</time>
      </trkpt>
      <trkpt lat="44.30924" lon="1.51915">
        <ele>211.1</ele>
        <time>2018-06-17T14:04:28Z</time>
      </trkpt>
      <trkpt lat="44.3092" lon="1.51919">
        <ele>212.4</ele>
        <time>2018-06-17T14:04:33Z</time>
      </trkpt>
      <trkpt lat="44.30918" lon="1.51925">
        <ele>213.8</ele>
        <time>2018-06-17T14:04:43Z</time>
      </trkpt>
      <trkpt lat="44.30914" lon="1.5193">
        <ele>215.1</ele>
        <time>2018-06-17T14:05:25Z</time>
      </trkpt>
      <trkpt lat="44.30911" lon="1.51935">
        <ele>215.4</ele>
        <time>2018-06-17T14:05:31Z</time>
      </trkpt>
      <trkpt lat="44.30909" lon="1.51941">
        <ele>215.6</ele>
        <time>2018-06-17T14:05:52Z</time>
      </trkpt>
      <trkpt lat="44.30905" lon="1.51946">
        <ele>215.5</ele>
        <time>2018-06-17T14:06:01Z</time>
      </trkpt>
      <trkpt lat="44.30901" lon="1.51949">
        <ele>215.4</ele>
        <time>2018-06-17T14:06:08Z</time>
      </trkpt>
      <trkpt lat="44.30897" lon="1.51951">
        <ele>215.5</ele>
        <time>2018-06-17T14:06:16Z</time>
      </trkpt>
      <trkpt lat="44.30891" lon="1.51954">
        <ele>215.5</ele>
        <time>2018-06-17T14:06:20Z</time>
      </trkpt>
      <trkpt lat="44.30886" lon="1.51954">
        <ele>215.6</ele>
        <time>2018-06-17T14:06:23Z</time>
      </trkpt>
      <trkpt lat="44.30881" lon="1.51954">
        <ele>215.9</ele>
        <time>2018-06-17T14:06:27Z</time>
      </trkpt>
      <trkpt lat="44.30876" lon="1.51952">
        <ele>216.3</ele>
        <time>2018-06-17T14:06:32Z</time>
      </trkpt>
      <trkpt lat="44.30871" lon="1.5195">
        <ele>216.8</ele>
        <time>2018-06-17T14:06:37Z</time>
      </trkpt>
      <trkpt lat="44.30866" lon="1.51948">
        <ele>217.3</ele>
        <time>2018-06-17T14:06:41Z</time>
      </trkpt>
      <trkpt lat="44.30861" lon="1.51946">
        <ele>218</ele>
        <time>2018-06-17T14:06:46Z</time>
      </trkpt>
      <trkpt lat="44.30857" lon="1.51943">
        <ele>218.5</ele>
        <time>2018-06-17T14:06:52Z</time>
      </trkpt>
      <trkpt lat="44.30853" lon="1.51939">
        <ele>219</ele>
        <time>2018-06-17T14:06:56Z</time>
      </trkpt>
      <trkpt lat="44.30847" lon="1.51936">
        <ele>219.5</ele>
        <time>2018-06-17T14:06:59Z</time>
      </trkpt>
      <trkpt lat="44.30842" lon="1.51931">
        <ele>220.2</ele>
        <time>2018-06-17T14:07:02Z</time>
      </trkpt>
      <trkpt lat="44.30838" lon="1.51928">
        <ele>220.9</ele>
        <time>2018-06-17T14:07:05Z</time>
      </trkpt>
      <trkpt lat="44.30834" lon="1.51926">
        <ele>221.6</ele>
        <time>2018-06-17T14:07:10Z</time>
      </trkpt>
      <trkpt lat="44.3083" lon="1.51923">
        <ele>222.3</ele>
        <time>2018-06-17T14:07:14Z</time>
      </trkpt>
      <trkpt lat="44.30825" lon="1.5192">
        <ele>223.1</ele>
        <time>2018-06-17T14:07:22Z</time>
      </trkpt>
      <trkpt lat="44.30819" lon="1.51918">
        <ele>223.7</ele>
        <time>2018-06-17T14:07:26Z</time>
      </trkpt>
      <trkpt lat="44.30814" lon="1.51919">
        <ele>224.2</ele>
        <time>2018-06-17T14:07:31Z</time>
      </trkpt>
      <trkpt lat="44.30808" lon="1.51919">
        <ele>224.7</ele>
        <time>2018-06-17T14:07:35Z</time>
      </trkpt>
      <trkpt lat="44.30803" lon="1.5192">
        <ele>225</ele>
        <time>2018-06-17T14:07:44Z</time>
      </trkpt>
      <trkpt lat="44.30799" lon="1.51921">
        <ele>225</ele>
        <time>2018-06-17T14:07:48Z</time>
      </trkpt>
      <trkpt lat="44.30793" lon="1.51923">
        <ele>225.1</ele>
        <time>2018-06-17T14:07:54Z</time>
      </trkpt>
      <trkpt lat="44.30789" lon="1.51929">
        <ele>225</ele>
        <time>2018-06-17T14:08:00Z</time>
      </trkpt>
      <trkpt lat="44.30786" lon="1.51934">
        <ele>225</ele>
        <time>2018-06-17T14:08:07Z</time>
      </trkpt>
      <trkpt lat="44.30783" lon="1.51939">
        <ele>225.1</ele>
        <time>2018-06-17T14:08:13Z</time>
      </trkpt>
      <trkpt lat="44.30781" lon="1.51946">
        <ele>225.3</ele>
        <time>2018-06-17T14:08:16Z</time>
      </trkpt>
      <trkpt lat="44.30779" lon="1.51952">
        <ele>225.5</ele>
        <time>2018-06-17T14:08:19Z</time>
      </trkpt>
      <trkpt lat="44.30774" lon="1.51962">
        <ele>225.7</ele>
        <time>2018-06-17T14:08:22Z</time>
      </trkpt>
      <trkpt lat="44.30773" lon="1.51969">
        <ele>225.9</ele>
        <time>2018-06-17T14:08:26Z</time>
      </trkpt>
      <trkpt lat="44.30771" lon="1.51975">
        <ele>226.1</ele>
        <time>2018-06-17T14:08:32Z</time>
      </trkpt>
      <trkpt lat="44.30769" lon="1.51982">
        <ele>226.2</ele>
        <time>2018-06-17T14:08:36Z</time>
      </trkpt>
      <trkpt lat="44.30766" lon="1.51987">
        <ele>226.4</ele>
        <time>2018-06-17T14:08:40Z</time>
      </trkpt>
      <trkpt lat="44.30765" lon="1.51993">
        <ele>226.4</ele>
        <time>2018-06-17T14:08:45Z</time>
      </trkpt>
      <trkpt lat="44.30762" lon="1.51999">
        <ele>226.3</ele>
        <time>2018-06-17T14:08:49Z</time>
      </trkpt>
      <trkpt lat="44.3076" lon="1.52006">
        <ele>226.2</ele>
        <time>2018-06-17T14:08:54Z</time>
      </trkpt>
      <trkpt lat="44.30758" lon="1.52012">
        <ele>226.1</ele>
        <time>2018-06-17T14:08:59Z</time>
      </trkpt>
      <trkpt lat="44.30756" lon="1.52018">
        <ele>226.1</ele>
        <time>2018-06-17T14:09:05Z</time>
      </trkpt>
      <trkpt lat="44.30754" lon="1.52025">
        <ele>226.2</ele>
        <time>2018-06-17T14:09:09Z</time>
      </trkpt>
      <trkpt lat="44.3075" lon="1.52031">
        <ele>226.4</ele>
        <time>2018-06-17T14:09:14Z</time>
      </trkpt>
      <trkpt lat="44.30745" lon="1.52034">
        <ele>226.5</ele>
        <time>2018-06-17T14:09:18Z</time>
      </trkpt>
      <trkpt lat="44.3074" lon="1.52031">
        <ele>226.6</ele>
        <time>2018-06-17T14:09:22Z</time>
      </trkpt>
      <trkpt lat="44.30736" lon="1.52029">
        <ele>226.5</ele>
        <time>2018-06-17T14:09:26Z</time>
      </trkpt>
      <trkpt lat="44.30732" lon="1.52026">
        <ele>226.3</ele>
        <time>2018-06-17T14:09:33Z</time>
      </trkpt>
      <trkpt lat="44.30727" lon="1.52022">
        <ele>226</ele>
        <time>2018-06-17T14:09:39Z</time>
      </trkpt>
      <trkpt lat="44.30723" lon="1.52019">
        <ele>225.7</ele>
        <time>2018-06-17T14:09:44Z</time>
      </trkpt>
      <trkpt lat="44.30719" lon="1.52015">
        <ele>225.4</ele>
        <time>2018-06-17T14:09:52Z</time>
      </trkpt>
      <trkpt lat="44.30715" lon="1.52011">
        <ele>225.3</ele>
        <time>2018-06-17T14:09:57Z</time>
      </trkpt>
      <trkpt lat="44.30711" lon="1.52008">
        <ele>225.3</ele>
        <time>2018-06-17T14:10:03Z</time>
      </trkpt>
      <trkpt lat="44.30706" lon="1.52006">
        <ele>225.5</ele>
        <time>2018-06-17T14:10:09Z</time>
      </trkpt>
      <trkpt lat="44.30702" lon="1.52003">
        <ele>225.8</ele>
        <time>2018-06-17T14:10:14Z</time>
      </trkpt>
      <trkpt lat="44.30697" lon="1.52003">
        <ele>226.2</ele>
        <time>2018-06-17T14:10:23Z</time>
      </trkpt>
      <trkpt lat="44.30692" lon="1.52003">
        <ele>226.4</ele>
        <time>2018-06-17T14:10:29Z</time>
      </trkpt>
      <trkpt lat="44.30688" lon="1.51998">
        <ele>226.5</ele>
        <time>2018-06-17T14:10:49Z</time>
      </trkpt>
      <trkpt lat="44.30684" lon="1.51996">
        <ele>226.4</ele>
        <time>2018-06-17T14:10:54Z</time>
      </trkpt>
      <trkpt lat="44.30679" lon="1.51993">
        <ele>226.2</ele>
        <time>2018-06-17T14:10:58Z</time>
      </trkpt>
      <trkpt lat="44.30675" lon="1.51989">
        <ele>225.9</ele>
        <time>2018-06-17T14:11:03Z</time>
      </trkpt>
      <trkpt lat="44.3067" lon="1.51986">
        <ele>225.8</ele>
        <time>2018-06-17T14:11:08Z</time>
      </trkpt>
      <trkpt lat="44.30664" lon="1.51985">
        <ele>225.6</ele>
        <time>2018-06-17T14:11:13Z</time>
      </trkpt>
      <trkpt lat="44.30659" lon="1.51983">
        <ele>225.5</ele>
        <time>2018-06-17T14:11:17Z</time>
      </trkpt>
      <trkpt lat="44.30654" lon="1.51981">
        <ele>225.4</ele>
        <time>2018-06-17T14:11:22Z</time>
      </trkpt>
      <trkpt lat="44.30649" lon="1.51979">
        <ele>225.3</ele>
        <time>2018-06-17T14:11:26Z</time>
      </trkpt>
      <trkpt lat="44.30644" lon="1.51978">
        <ele>225.3</ele>
        <time>2018-06-17T14:11:30Z</time>
      </trkpt>
      <trkpt lat="44.30639" lon="1.51976">
        <ele>225.4</ele>
        <time>2018-06-17T14:11:35Z</time>
      </trkpt>
      <trkpt lat="44.30635" lon="1.51973">
        <ele>225.4</ele>
        <time>2018-06-17T14:11:39Z</time>
      </trkpt>
      <trkpt lat="44.30629" lon="1.5197">
        <ele>225.5</ele>
        <time>2018-06-17T14:11:45Z</time>
      </trkpt>
      <trkpt lat="44.30624" lon="1.51969">
        <ele>225.6</ele>
        <time>2018-06-17T14:11:50Z</time>
      </trkpt>
      <trkpt lat="44.3062" lon="1.51966">
        <ele>225.6</ele>
        <time>2018-06-17T14:11:54Z</time>
      </trkpt>
      <trkpt lat="44.30615" lon="1.51963">
        <ele>225.5</ele>
        <time>2018-06-17T14:11:58Z</time>
      </trkpt>
      <trkpt lat="44.30611" lon="1.5196">
        <ele>225.4</ele>
        <time>2018-06-17T14:12:02Z</time>
      </trkpt>
      <trkpt lat="44.30606" lon="1.51957">
        <ele>225.3</ele>
        <time>2018-06-17T14:12:08Z</time>
      </trkpt>
      <trkpt lat="44.30602" lon="1.51955">
        <ele>225.1</ele>
        <time>2018-06-17T14:12:13Z</time>
      </trkpt>
      <trkpt lat="44.30596" lon="1.51952">
        <ele>225</ele>
        <time>2018-06-17T14:12:29Z</time>
      </trkpt>
      <trkpt lat="44.30592" lon="1.5195">
        <ele>224.9</ele>
        <time>2018-06-17T14:12:34Z</time>
      </trkpt>
      <trkpt lat="44.30587" lon="1.51948">
        <ele>224.9</ele>
        <time>2018-06-17T14:12:44Z</time>
      </trkpt>
      <trkpt lat="44.30581" lon="1.51947">
        <ele>224.8</ele>
        <time>2018-06-17T14:12:45Z</time>
      </trkpt>
      <trkpt lat="44.30577" lon="1.51945">
        <ele>224.9</ele>
        <time>2018-06-17T14:12:49Z</time>
      </trkpt>
      <trkpt lat="44.30572" lon="1.51943">
        <ele>225.1</ele>
        <time>2018-06-17T14:12:53Z</time>
      </trkpt>
      <trkpt lat="44.30567" lon="1.5194">
        <ele>225.2</ele>
        <time>2018-06-17T14:12:57Z</time>
      </trkpt>
      <trkpt lat="44.30562" lon="1.51938">
        <ele>225.5</ele>
        <time>2018-06-17T14:13:03Z</time>
      </trkpt>
      <trkpt lat="44.30557" lon="1.51938">
        <ele>225.8</ele>
        <time>2018-06-17T14:13:11Z</time>
      </trkpt>
      <trkpt lat="44.30552" lon="1.51935">
        <ele>226.1</ele>
        <time>2018-06-17T14:13:16Z</time>
      </trkpt>
      <trkpt lat="44.30548" lon="1.5193">
        <ele>226.5</ele>
        <time>2018-06-17T14:13:22Z</time>
      </trkpt>
      <trkpt lat="44.30542" lon="1.51928">
        <ele>226.9</ele>
        <time>2018-06-17T14:13:26Z</time>
      </trkpt>
      <trkpt lat="44.30535" lon="1.51928">
        <ele>227.5</ele>
        <time>2018-06-17T14:13:26Z</time>
      </trkpt>
      <trkpt lat="44.30531" lon="1.51931">
        <ele>228.1</ele>
        <time>2018-06-17T14:13:38Z</time>
      </trkpt>
      <trkpt lat="44.30525" lon="1.51927">
        <ele>228.6</ele>
        <time>2018-06-17T14:13:54Z</time>
      </trkpt>
      <trkpt lat="44.30521" lon="1.51928">
        <ele>229.3</ele>
        <time>2018-06-17T14:13:59Z</time>
      </trkpt>
      <trkpt lat="44.30517" lon="1.51925">
        <ele>230.1</ele>
        <time>2018-06-17T14:14:09Z</time>
      </trkpt>
      <trkpt lat="44.30512" lon="1.51923">
        <ele>232.1</ele>
        <time>2018-06-17T14:14:13Z</time>
      </trkpt>
      <trkpt lat="44.30507" lon="1.51924">
        <ele>233.9</ele>
        <time>2018-06-17T14:14:20Z</time>
      </trkpt>
      <trkpt lat="44.30505" lon="1.51931">
        <ele>235.4</ele>
        <time>2018-06-17T14:14:27Z</time>
      </trkpt>
      <trkpt lat="44.30501" lon="1.51935">
        <ele>236.6</ele>
        <time>2018-06-17T14:14:46Z</time>
      </trkpt>
      <trkpt lat="44.30496" lon="1.51933">
        <ele>237.5</ele>
        <time>2018-06-17T14:18:22Z</time>
      </trkpt>
      <trkpt lat="44.30492" lon="1.51929">
        <ele>236.9</ele>
        <time>2018-06-17T14:18:56Z</time>
      </trkpt>
      <trkpt lat="44.30487" lon="1.51931">
        <ele>236.4</ele>
        <time>2018-06-17T14:19:17Z</time>
      </trkpt>
      <trkpt lat="44.30482" lon="1.51934">
        <ele>236</ele>
        <time>2018-06-17T14:19:21Z</time>
      </trkpt>
      <trkpt lat="44.30477" lon="1.51935">
        <ele>235.5</ele>
        <time>2018-06-17T14:19:26Z</time>
      </trkpt>
      <trkpt lat="44.30472" lon="1.51937">
        <ele>234.8</ele>
        <time>2018-06-17T14:19:32Z</time>
      </trkpt>
      <trkpt lat="44.30468" lon="1.51939">
        <ele>234.2</ele>
        <time>2018-06-17T14:19:36Z</time>
      </trkpt>
      <trkpt lat="44.30463" lon="1.51938">
        <ele>233.5</ele>
        <time>2018-06-17T14:19:41Z</time>
      </trkpt>
      <trkpt lat="44.30458" lon="1.51939">
        <ele>232.9</ele>
        <time>2018-06-17T14:19:46Z</time>
      </trkpt>
      <trkpt lat="44.30453" lon="1.51939">
        <ele>232.4</ele>
        <time>2018-06-17T14:19:51Z</time>
      </trkpt>
      <trkpt lat="44.30448" lon="1.5194">
        <ele>232</ele>
        <time>2018-06-17T14:19:55Z</time>
      </trkpt>
      <trkpt lat="44.30443" lon="1.51941">
        <ele>231.6</ele>
        <time>2018-06-17T14:20:03Z</time>
      </trkpt>
      <trkpt lat="44.30438" lon="1.51941">
        <ele>231.4</ele>
        <time>2018-06-17T14:20:06Z</time>
      </trkpt>
      <trkpt lat="44.30433" lon="1.51942">
        <ele>231.2</ele>
        <time>2018-06-17T14:20:10Z</time>
      </trkpt>
      <trkpt lat="44.30429" lon="1.51943">
        <ele>231</ele>
        <time>2018-06-17T14:20:16Z</time>
      </trkpt>
      <trkpt lat="44.30423" lon="1.51943">
        <ele>230.8</ele>
        <time>2018-06-17T14:20:20Z</time>
      </trkpt>
      <trkpt lat="44.30418" lon="1.51943">
        <ele>230.6</ele>
        <time>2018-06-17T14:20:24Z</time>
      </trkpt>
      <trkpt lat="44.30413" lon="1.51945">
        <ele>230.2</ele>
        <time>2018-06-17T14:20:39Z</time>
      </trkpt>
      <trkpt lat="44.30408" lon="1.51945">
        <ele>229.9</ele>
        <time>2018-06-17T14:20:44Z</time>
      </trkpt>
      <trkpt lat="44.30404" lon="1.51945">
        <ele>229.5</ele>
        <time>2018-06-17T14:20:49Z</time>
      </trkpt>
      <trkpt lat="44.30399" lon="1.51943">
        <ele>229.1</ele>
        <time>2018-06-17T14:20:53Z</time>
      </trkpt>
      <trkpt lat="44.30394" lon="1.5194">
        <ele>228.7</ele>
        <time>2018-06-17T14:20:59Z</time>
      </trkpt>
      <trkpt lat="44.30389" lon="1.5194">
        <ele>228.4</ele>
        <time>2018-06-17T14:21:04Z</time>
      </trkpt>
      <trkpt lat="44.30383" lon="1.5194">
        <ele>228.1</ele>
        <time>2018-06-17T14:21:10Z</time>
      </trkpt>
      <trkpt lat="44.30379" lon="1.51939">
        <ele>227.7</ele>
        <time>2018-06-17T14:21:15Z</time>
      </trkpt>
      <trkpt lat="44.30374" lon="1.51939">
        <ele>227.2</ele>
        <time>2018-06-17T14:21:20Z</time>
      </trkpt>
      <trkpt lat="44.30368" lon="1.51939">
        <ele>226.8</ele>
        <time>2018-06-17T14:21:24Z</time>
      </trkpt>
      <trkpt lat="44.30364" lon="1.51938">
        <ele>226.2</ele>
        <time>2018-06-17T14:21:30Z</time>
      </trkpt>
      <trkpt lat="44.30359" lon="1.5194">
        <ele>225.5</ele>
        <time>2018-06-17T14:21:36Z</time>
      </trkpt>
      <trkpt lat="44.30354" lon="1.51941">
        <ele>224.7</ele>
        <time>2018-06-17T14:21:40Z</time>
      </trkpt>
      <trkpt lat="44.30344" lon="1.51941">
        <ele>224</ele>
        <time>2018-06-17T14:21:41Z</time>
      </trkpt>
      <trkpt lat="44.30337" lon="1.51942">
        <ele>223.2</ele>
        <time>2018-06-17T14:21:48Z</time>
      </trkpt>
      <trkpt lat="44.30332" lon="1.51943">
        <ele>222.7</ele>
        <time>2018-06-17T14:21:52Z</time>
      </trkpt>
      <trkpt lat="44.30327" lon="1.51944">
        <ele>222.3</ele>
        <time>2018-06-17T14:21:57Z</time>
      </trkpt>
      <trkpt lat="44.30322" lon="1.51944">
        <ele>222</ele>
        <time>2018-06-17T14:22:01Z</time>
      </trkpt>
      <trkpt lat="44.30317" lon="1.51943">
        <ele>221.7</ele>
        <time>2018-06-17T14:22:05Z</time>
      </trkpt>
      <trkpt lat="44.30312" lon="1.51944">
        <ele>221.4</ele>
        <time>2018-06-17T14:22:09Z</time>
      </trkpt>
      <trkpt lat="44.30308" lon="1.51948">
        <ele>221.2</ele>
        <time>2018-06-17T14:22:16Z</time>
      </trkpt>
      <trkpt lat="44.30303" lon="1.51948">
        <ele>220.9</ele>
        <time>2018-06-17T14:22:19Z</time>
      </trkpt>
      <trkpt lat="44.30297" lon="1.51948">
        <ele>220.6</ele>
        <time>2018-06-17T14:22:25Z</time>
      </trkpt>
      <trkpt lat="44.30292" lon="1.51947">
        <ele>220.3</ele>
        <time>2018-06-17T14:22:28Z</time>
      </trkpt>
      <trkpt lat="44.30287" lon="1.51944">
        <ele>219.9</ele>
        <time>2018-06-17T14:22:33Z</time>
      </trkpt>
      <trkpt lat="44.30282" lon="1.51944">
        <ele>219.4</ele>
        <time>2018-06-17T14:22:40Z</time>
      </trkpt>
      <trkpt lat="44.30277" lon="1.51943">
        <ele>218.9</ele>
        <time>2018-06-17T14:22:45Z</time>
      </trkpt>
      <trkpt lat="44.30272" lon="1.51943">
        <ele>218.4</ele>
        <time>2018-06-17T14:22:50Z</time>
      </trkpt>
      <trkpt lat="44.30268" lon="1.51941">
        <ele>217.8</ele>
        <time>2018-06-17T14:22:55Z</time>
      </trkpt>
      <trkpt lat="44.30262" lon="1.51941">
        <ele>217.2</ele>
        <time>2018-06-17T14:23:00Z</time>
      </trkpt>
      <trkpt lat="44.30256" lon="1.51941">
        <ele>216.6</ele>
        <time>2018-06-17T14:23:04Z</time>
      </trkpt>
      <trkpt lat="44.30252" lon="1.5194">
        <ele>216.1</ele>
        <time>2018-06-17T14:23:10Z</time>
      </trkpt>
      <trkpt lat="44.30247" lon="1.5194">
        <ele>215.7</ele>
        <time>2018-06-17T14:23:15Z</time>
      </trkpt>
      <trkpt lat="44.30242" lon="1.51941">
        <ele>215.3</ele>
        <time>2018-06-17T14:23:20Z</time>
      </trkpt>
      <trkpt lat="44.30237" lon="1.51941">
        <ele>215</ele>
        <time>2018-06-17T14:23:24Z</time>
      </trkpt>
      <trkpt lat="44.30232" lon="1.51942">
        <ele>214.7</ele>
        <time>2018-06-17T14:23:29Z</time>
      </trkpt>
      <trkpt lat="44.30227" lon="1.51942">
        <ele>214.3</ele>
        <time>2018-06-17T14:23:33Z</time>
      </trkpt>
      <trkpt lat="44.30223" lon="1.51944">
        <ele>213.8</ele>
        <time>2018-06-17T14:23:38Z</time>
      </trkpt>
      <trkpt lat="44.30218" lon="1.51946">
        <ele>213.4</ele>
        <time>2018-06-17T14:23:41Z</time>
      </trkpt>
      <trkpt lat="44.30213" lon="1.51947">
        <ele>213</ele>
        <time>2018-06-17T14:23:46Z</time>
      </trkpt>
      <trkpt lat="44.30209" lon="1.5195">
        <ele>212.5</ele>
        <time>2018-06-17T14:23:51Z</time>
      </trkpt>
      <trkpt lat="44.30203" lon="1.51953">
        <ele>212.2</ele>
        <time>2018-06-17T14:23:55Z</time>
      </trkpt>
      <trkpt lat="44.30198" lon="1.51954">
        <ele>211.9</ele>
        <time>2018-06-17T14:24:00Z</time>
      </trkpt>
      <trkpt lat="44.30193" lon="1.51955">
        <ele>211.6</ele>
        <time>2018-06-17T14:24:17Z</time>
      </trkpt>
      <trkpt lat="44.30188" lon="1.51956">
        <ele>211.3</ele>
        <time>2018-06-17T14:24:22Z</time>
      </trkpt>
      <trkpt lat="44.30183" lon="1.51957">
        <ele>211</ele>
        <time>2018-06-17T14:24:26Z</time>
      </trkpt>
      <trkpt lat="44.30175" lon="1.5196">
        <ele>210.6</ele>
        <time>2018-06-17T14:24:26Z</time>
      </trkpt>
      <trkpt lat="44.30171" lon="1.51964">
        <ele>210.1</ele>
        <time>2018-06-17T14:24:29Z</time>
      </trkpt>
      <trkpt lat="44.30167" lon="1.51968">
        <ele>209.7</ele>
        <time>2018-06-17T14:24:34Z</time>
      </trkpt>
      <trkpt lat="44.30164" lon="1.51974">
        <ele>209.2</ele>
        <time>2018-06-17T14:24:38Z</time>
      </trkpt>
      <trkpt lat="44.30162" lon="1.51979">
        <ele>208.7</ele>
        <time>2018-06-17T14:24:42Z</time>
      </trkpt>
      <trkpt lat="44.30159" lon="1.51985">
        <ele>208.3</ele>
        <time>2018-06-17T14:24:45Z</time>
      </trkpt>
      <trkpt lat="44.30156" lon="1.51991">
        <ele>207.8</ele>
        <time>2018-06-17T14:24:49Z</time>
      </trkpt>
      <trkpt lat="44.30153" lon="1.51996">
        <ele>207.5</ele>
        <time>2018-06-17T14:24:53Z</time>
      </trkpt>
      <trkpt lat="44.30149" lon="1.52">
        <ele>207.2</ele>
        <time>2018-06-17T14:24:58Z</time>
      </trkpt>
      <trkpt lat="44.30146" lon="1.52005">
        <ele>207</ele>
        <time>2018-06-17T14:25:04Z</time>
      </trkpt>
      <trkpt lat="44.30142" lon="1.5201">
        <ele>207</ele>
        <time>2018-06-17T14:25:08Z</time>
      </trkpt>
      <trkpt lat="44.30139" lon="1.52015">
        <ele>207.1</ele>
        <time>2018-06-17T14:25:11Z</time>
      </trkpt>
      <trkpt lat="44.30136" lon="1.52021">
        <ele>207.2</ele>
        <time>2018-06-17T14:25:15Z</time>
      </trkpt>
      <trkpt lat="44.30134" lon="1.52026">
        <ele>207.3</ele>
        <time>2018-06-17T14:25:19Z</time>
      </trkpt>
      <trkpt lat="44.3013" lon="1.52033">
        <ele>207.4</ele>
        <time>2018-06-17T14:25:23Z</time>
      </trkpt>
      <trkpt lat="44.30127" lon="1.52038">
        <ele>207.3</ele>
        <time>2018-06-17T14:25:27Z</time>
      </trkpt>
      <trkpt lat="44.30124" lon="1.52042">
        <ele>207</ele>
        <time>2018-06-17T14:25:31Z</time>
      </trkpt>
      <trkpt lat="44.3012" lon="1.52048">
        <ele>206.7</ele>
        <time>2018-06-17T14:25:36Z</time>
      </trkpt>
      <trkpt lat="44.30117" lon="1.52054">
        <ele>206.4</ele>
        <time>2018-06-17T14:25:41Z</time>
      </trkpt>
      <trkpt lat="44.30113" lon="1.52058">
        <ele>205.9</ele>
        <time>2018-06-17T14:25:49Z</time>
      </trkpt>
      <trkpt lat="44.30111" lon="1.52065">
        <ele>205.5</ele>
        <time>2018-06-17T14:25:57Z</time>
      </trkpt>
      <trkpt lat="44.30106" lon="1.5207">
        <ele>205.3</ele>
        <time>2018-06-17T14:26:02Z</time>
      </trkpt>
      <trkpt lat="44.30102" lon="1.52073">
        <ele>204.9</ele>
        <time>2018-06-17T14:26:07Z</time>
      </trkpt>
      <trkpt lat="44.30098" lon="1.52077">
        <ele>204.5</ele>
        <time>2018-06-17T14:26:16Z</time>
      </trkpt>
      <trkpt lat="44.30094" lon="1.52077">
        <ele>204.2</ele>
        <time>2018-06-17T14:26:21Z</time>
      </trkpt>
      <trkpt lat="44.30089" lon="1.52079">
        <ele>203.9</ele>
        <time>2018-06-17T14:26:26Z</time>
      </trkpt>
      <trkpt lat="44.30085" lon="1.52079">
        <ele>203.6</ele>
        <time>2018-06-17T14:26:30Z</time>
      </trkpt>
      <trkpt lat="44.30081" lon="1.52082">
        <ele>203.4</ele>
        <time>2018-06-17T14:26:35Z</time>
      </trkpt>
      <trkpt lat="44.30076" lon="1.52083">
        <ele>203.1</ele>
        <time>2018-06-17T14:26:40Z</time>
      </trkpt>
      <trkpt lat="44.30071" lon="1.52083">
        <ele>202.8</ele>
        <time>2018-06-17T14:26:45Z</time>
      </trkpt>
      <trkpt lat="44.30065" lon="1.52083">
        <ele>202.5</ele>
        <time>2018-06-17T14:26:49Z</time>
      </trkpt>
      <trkpt lat="44.3006" lon="1.52085">
        <ele>202.2</ele>
        <time>2018-06-17T14:26:53Z</time>
      </trkpt>
      <trkpt lat="44.30054" lon="1.52088">
        <ele>202</ele>
        <time>2018-06-17T14:26:58Z</time>
      </trkpt>
      <trkpt lat="44.30049" lon="1.5209">
        <ele>201.9</ele>
        <time>2018-06-17T14:27:02Z</time>
      </trkpt>
      <trkpt lat="44.30045" lon="1.52091">
        <ele>201.9</ele>
        <time>2018-06-17T14:27:06Z</time>
      </trkpt>
      <trkpt lat="44.3004" lon="1.52093">
        <ele>202</ele>
        <time>2018-06-17T14:27:10Z</time>
      </trkpt>
      <trkpt lat="44.30035" lon="1.52092">
        <ele>202</ele>
        <time>2018-06-17T14:27:15Z</time>
      </trkpt>
      <trkpt lat="44.3003" lon="1.52092">
        <ele>202</ele>
        <time>2018-06-17T14:27:20Z</time>
      </trkpt>
      <trkpt lat="44.30025" lon="1.52091">
        <ele>201.9</ele>
        <time>2018-06-17T14:27:26Z</time>
      </trkpt>
      <trkpt lat="44.30019" lon="1.52089">
        <ele>201.6</ele>
        <time>2018-06-17T14:27:30Z</time>
      </trkpt>
      <trkpt lat="44.30014" lon="1.52089">
        <ele>201.2</ele>
        <time>2018-06-17T14:27:34Z</time>
      </trkpt>
      <trkpt lat="44.3001" lon="1.52088">
        <ele>200.5</ele>
        <time>2018-06-17T14:27:38Z</time>
      </trkpt>
      <trkpt lat="44.30005" lon="1.52087">
        <ele>199.8</ele>
        <time>2018-06-17T14:27:42Z</time>
      </trkpt>
      <trkpt lat="44.3" lon="1.52086">
        <ele>199.2</ele>
        <time>2018-06-17T14:27:51Z</time>
      </trkpt>
      <trkpt lat="44.29998" lon="1.52092">
        <ele>198.6</ele>
        <time>2018-06-17T14:28:04Z</time>
      </trkpt>
      <trkpt lat="44.29993" lon="1.52088">
        <ele>198.1</ele>
        <time>2018-06-17T14:28:18Z</time>
      </trkpt>
      <trkpt lat="44.29996" lon="1.52094">
        <ele>197.7</ele>
        <time>2018-06-17T14:28:51Z</time>
      </trkpt>
      <trkpt lat="44.29992" lon="1.52091">
        <ele>197.2</ele>
        <time>2018-06-17T14:28:53Z</time>
      </trkpt>
      <trkpt lat="44.29989" lon="1.52084">
        <ele>196.7</ele>
        <time>2018-06-17T14:29:10Z</time>
      </trkpt>
      <trkpt lat="44.29985" lon="1.52081">
        <ele>196.2</ele>
        <time>2018-06-17T14:29:15Z</time>
      </trkpt>
      <trkpt lat="44.29982" lon="1.52076">
        <ele>195.9</ele>
        <time>2018-06-17T14:29:20Z</time>
      </trkpt>
      <trkpt lat="44.29977" lon="1.52073">
        <ele>195.7</ele>
        <time>2018-06-17T14:29:25Z</time>
      </trkpt>
      <trkpt lat="44.29973" lon="1.52071">
        <ele>195.5</ele>
        <time>2018-06-17T14:29:29Z</time>
      </trkpt>
      <trkpt lat="44.29967" lon="1.52068">
        <ele>195.3</ele>
        <time>2018-06-17T14:29:34Z</time>
      </trkpt>
      <trkpt lat="44.29963" lon="1.52065">
        <ele>194.9</ele>
        <time>2018-06-17T14:29:38Z</time>
      </trkpt>
      <trkpt lat="44.29958" lon="1.52063">
        <ele>194.5</ele>
        <time>2018-06-17T14:29:43Z</time>
      </trkpt>
      <trkpt lat="44.29953" lon="1.52061">
        <ele>194.1</ele>
        <time>2018-06-17T14:29:51Z</time>
      </trkpt>
      <trkpt lat="44.29949" lon="1.52056">
        <ele>194</ele>
        <time>2018-06-17T14:29:57Z</time>
      </trkpt>
      <trkpt lat="44.29946" lon="1.52052">
        <ele>194.2</ele>
        <time>2018-06-17T14:30:06Z</time>
      </trkpt>
      <trkpt lat="44.29942" lon="1.52048">
        <ele>194.8</ele>
        <time>2018-06-17T14:30:11Z</time>
      </trkpt>
      <trkpt lat="44.29938" lon="1.52043">
        <ele>195.5</ele>
        <time>2018-06-17T14:30:15Z</time>
      </trkpt>
      <trkpt lat="44.29934" lon="1.52038">
        <ele>196.4</ele>
        <time>2018-06-17T14:30:19Z</time>
      </trkpt>
      <trkpt lat="44.29932" lon="1.52032">
        <ele>197.4</ele>
        <time>2018-06-17T14:30:24Z</time>
      </trkpt>
      <trkpt lat="44.29929" lon="1.52026">
        <ele>198.3</ele>
        <time>2018-06-17T14:30:29Z</time>
      </trkpt>
      <trkpt lat="44.29927" lon="1.52019">
        <ele>199.2</ele>
        <time>2018-06-17T14:30:33Z</time>
      </trkpt>
      <trkpt lat="44.29925" lon="1.52012">
        <ele>200</ele>
        <time>2018-06-17T14:30:39Z</time>
      </trkpt>
      <trkpt lat="44.29923" lon="1.52007">
        <ele>200.4</ele>
        <time>2018-06-17T14:30:44Z</time>
      </trkpt>
      <trkpt lat="44.2992" lon="1.52001">
        <ele>200.6</ele>
        <time>2018-06-17T14:30:50Z</time>
      </trkpt>
      <trkpt lat="44.29917" lon="1.51995">
        <ele>200.5</ele>
        <time>2018-06-17T14:30:54Z</time>
      </trkpt>
      <trkpt lat="44.29914" lon="1.5199">
        <ele>200.4</ele>
        <time>2018-06-17T14:30:59Z</time>
      </trkpt>
      <trkpt lat="44.29911" lon="1.51984">
        <ele>200.3</ele>
        <time>2018-06-17T14:31:04Z</time>
      </trkpt>
      <trkpt lat="44.29906" lon="1.51984">
        <ele>200.3</ele>
        <time>2018-06-17T14:31:10Z</time>
      </trkpt>
      <trkpt lat="44.29901" lon="1.51987">
        <ele>200.6</ele>
        <time>2018-06-17T14:31:15Z</time>
      </trkpt>
      <trkpt lat="44.29898" lon="1.5199">
        <ele>201</ele>
        <time>2018-06-17T14:31:18Z</time>
      </trkpt>
      <trkpt lat="44.29894" lon="1.51995">
        <ele>201.5</ele>
        <time>2018-06-17T14:31:23Z</time>
      </trkpt>
      <trkpt lat="44.2989" lon="1.52">
        <ele>202</ele>
        <time>2018-06-17T14:31:28Z</time>
      </trkpt>
      <trkpt lat="44.29888" lon="1.52006">
        <ele>202.6</ele>
        <time>2018-06-17T14:31:34Z</time>
      </trkpt>
      <trkpt lat="44.29884" lon="1.52012">
        <ele>203.2</ele>
        <time>2018-06-17T14:31:40Z</time>
      </trkpt>
      <trkpt lat="44.2988" lon="1.52015">
        <ele>203.7</ele>
        <time>2018-06-17T14:31:45Z</time>
      </trkpt>
      <trkpt lat="44.29875" lon="1.52018">
        <ele>204.1</ele>
        <time>2018-06-17T14:31:51Z</time>
      </trkpt>
      <trkpt lat="44.29871" lon="1.52024">
        <ele>204.5</ele>
        <time>2018-06-17T14:31:55Z</time>
      </trkpt>
      <trkpt lat="44.29868" lon="1.52029">
        <ele>204.9</ele>
        <time>2018-06-17T14:32:00Z</time>
      </trkpt>
      <trkpt lat="44.29865" lon="1.52034">
        <ele>205.2</ele>
        <time>2018-06-17T14:32:04Z</time>
      </trkpt>
      <trkpt lat="44.29863" lon="1.52041">
        <ele>205.5</ele>
        <time>2018-06-17T14:32:10Z</time>
      </trkpt>
      <trkpt lat="44.29858" lon="1.52044">
        <ele>205.8</ele>
        <time>2018-06-17T14:32:16Z</time>
      </trkpt>
      <trkpt lat="44.29854" lon="1.52048">
        <ele>205.9</ele>
        <time>2018-06-17T14:32:23Z</time>
      </trkpt>
      <trkpt lat="44.2985" lon="1.52054">
        <ele>205.9</ele>
        <time>2018-06-17T14:32:29Z</time>
      </trkpt>
      <trkpt lat="44.29845" lon="1.52055">
        <ele>206</ele>
        <time>2018-06-17T14:32:34Z</time>
      </trkpt>
      <trkpt lat="44.2984" lon="1.52056">
        <ele>206</ele>
        <time>2018-06-17T14:32:39Z</time>
      </trkpt>
      <trkpt lat="44.29835" lon="1.52057">
        <ele>206</ele>
        <time>2018-06-17T14:32:45Z</time>
      </trkpt>
      <trkpt lat="44.2983" lon="1.52059">
        <ele>206</ele>
        <time>2018-06-17T14:32:50Z</time>
      </trkpt>
      <trkpt lat="44.29825" lon="1.52059">
        <ele>206</ele>
        <time>2018-06-17T14:32:55Z</time>
      </trkpt>
      <trkpt lat="44.2982" lon="1.52059">
        <ele>205.9</ele>
        <time>2018-06-17T14:33:01Z</time>
      </trkpt>
      <trkpt lat="44.29815" lon="1.5206">
        <ele>205.8</ele>
        <time>2018-06-17T14:33:07Z</time>
      </trkpt>
      <trkpt lat="44.2981" lon="1.52061">
        <ele>205.6</ele>
        <time>2018-06-17T14:33:13Z</time>
      </trkpt>
      <trkpt lat="44.29805" lon="1.52062">
        <ele>205.5</ele>
        <time>2018-06-17T14:33:17Z</time>
      </trkpt>
      <trkpt lat="44.29801" lon="1.52062">
        <ele>205.4</ele>
        <time>2018-06-17T14:33:23Z</time>
      </trkpt>
      <trkpt lat="44.29796" lon="1.52062">
        <ele>205.3</ele>
        <time>2018-06-17T14:33:28Z</time>
      </trkpt>
      <trkpt lat="44.29791" lon="1.52062">
        <ele>205.3</ele>
        <time>2018-06-17T14:33:32Z</time>
      </trkpt>
      <trkpt lat="44.29786" lon="1.52064">
        <ele>205.5</ele>
        <time>2018-06-17T14:33:38Z</time>
      </trkpt>
      <trkpt lat="44.29782" lon="1.52068">
        <ele>205.7</ele>
        <time>2018-06-17T14:33:44Z</time>
      </trkpt>
      <trkpt lat="44.29777" lon="1.52068">
        <ele>205.9</ele>
        <time>2018-06-17T14:33:48Z</time>
      </trkpt>
      <trkpt lat="44.29772" lon="1.52068">
        <ele>206</ele>
        <time>2018-06-17T14:33:53Z</time>
      </trkpt>
      <trkpt lat="44.29767" lon="1.52069">
        <ele>206.2</ele>
        <time>2018-06-17T14:33:59Z</time>
      </trkpt>
      <trkpt lat="44.29762" lon="1.5207">
        <ele>206.4</ele>
        <time>2018-06-17T14:34:04Z</time>
      </trkpt>
      <trkpt lat="44.29757" lon="1.5207">
        <ele>206.5</ele>
        <time>2018-06-17T14:34:07Z</time>
      </trkpt>
      <trkpt lat="44.29752" lon="1.52069">
        <ele>206.5</ele>
        <time>2018-06-17T14:34:13Z</time>
      </trkpt>
      <trkpt lat="44.29747" lon="1.52071">
        <ele>206.5</ele>
        <time>2018-06-17T14:34:20Z</time>
      </trkpt>
      <trkpt lat="44.29742" lon="1.52073">
        <ele>206.4</ele>
        <time>2018-06-17T14:34:26Z</time>
      </trkpt>
      <trkpt lat="44.29737" lon="1.52073">
        <ele>206.4</ele>
        <time>2018-06-17T14:34:30Z</time>
      </trkpt>
      <trkpt lat="44.29733" lon="1.52074">
        <ele>206.3</ele>
        <time>2018-06-17T14:34:35Z</time>
      </trkpt>
      <trkpt lat="44.29728" lon="1.52075">
        <ele>206.4</ele>
        <time>2018-06-17T14:34:39Z</time>
      </trkpt>
      <trkpt lat="44.29723" lon="1.52076">
        <ele>206.6</ele>
        <time>2018-06-17T14:34:44Z</time>
      </trkpt>
      <trkpt lat="44.29718" lon="1.52078">
        <ele>206.8</ele>
        <time>2018-06-17T14:34:50Z</time>
      </trkpt>
      <trkpt lat="44.29713" lon="1.52081">
        <ele>206.9</ele>
        <time>2018-06-17T14:34:55Z</time>
      </trkpt>
      <trkpt lat="44.29709" lon="1.52084">
        <ele>206.9</ele>
        <time>2018-06-17T14:34:59Z</time>
      </trkpt>
      <trkpt lat="44.29705" lon="1.52088">
        <ele>206.8</ele>
        <time>2018-06-17T14:35:04Z</time>
      </trkpt>
      <trkpt lat="44.297" lon="1.52091">
        <ele>206.7</ele>
        <time>2018-06-17T14:35:10Z</time>
      </trkpt>
      <trkpt lat="44.29696" lon="1.52092">
        <ele>206.4</ele>
        <time>2018-06-17T14:35:15Z</time>
      </trkpt>
      <trkpt lat="44.2969" lon="1.52094">
        <ele>206.2</ele>
        <time>2018-06-17T14:35:20Z</time>
      </trkpt>
      <trkpt lat="44.29686" lon="1.52096">
        <ele>206.1</ele>
        <time>2018-06-17T14:35:24Z</time>
      </trkpt>
      <trkpt lat="44.29681" lon="1.52101">
        <ele>206</ele>
        <time>2018-06-17T14:35:29Z</time>
      </trkpt>
      <trkpt lat="44.29676" lon="1.52104">
        <ele>205.9</ele>
        <time>2018-06-17T14:35:33Z</time>
      </trkpt>
      <trkpt lat="44.29672" lon="1.52107">
        <ele>205.8</ele>
        <time>2018-06-17T14:35:38Z</time>
      </trkpt>
      <trkpt lat="44.29667" lon="1.52107">
        <ele>205.8</ele>
        <time>2018-06-17T14:35:41Z</time>
      </trkpt>
      <trkpt lat="44.29663" lon="1.52106">
        <ele>205.6</ele>
        <time>2018-06-17T14:35:46Z</time>
      </trkpt>
      <trkpt lat="44.29659" lon="1.52102">
        <ele>205.3</ele>
        <time>2018-06-17T14:35:51Z</time>
      </trkpt>
      <trkpt lat="44.29655" lon="1.52099">
        <ele>205</ele>
        <time>2018-06-17T14:35:56Z</time>
      </trkpt>
      <trkpt lat="44.29651" lon="1.52095">
        <ele>204.7</ele>
        <time>2018-06-17T14:36:02Z</time>
      </trkpt>
      <trkpt lat="44.29645" lon="1.52092">
        <ele>204.6</ele>
        <time>2018-06-17T14:36:08Z</time>
      </trkpt>
      <trkpt lat="44.2964" lon="1.52093">
        <ele>204.7</ele>
        <time>2018-06-17T14:36:14Z</time>
      </trkpt>
      <trkpt lat="44.29635" lon="1.52093">
        <ele>204.8</ele>
        <time>2018-06-17T14:36:20Z</time>
      </trkpt>
      <trkpt lat="44.2963" lon="1.52093">
        <ele>205</ele>
        <time>2018-06-17T14:36:25Z</time>
      </trkpt>
      <trkpt lat="44.29625" lon="1.52091">
        <ele>205.1</ele>
        <time>2018-06-17T14:36:31Z</time>
      </trkpt>
      <trkpt lat="44.29621" lon="1.5209">
        <ele>205.2</ele>
        <time>2018-06-17T14:36:35Z</time>
      </trkpt>
      <trkpt lat="44.29616" lon="1.52089">
        <ele>205.1</ele>
        <time>2018-06-17T14:36:39Z</time>
      </trkpt>
      <trkpt lat="44.29611" lon="1.52089">
        <ele>205</ele>
        <time>2018-06-17T14:36:44Z</time>
      </trkpt>
      <trkpt lat="44.29606" lon="1.52089">
        <ele>205</ele>
        <time>2018-06-17T14:36:48Z</time>
      </trkpt>
      <trkpt lat="44.29601" lon="1.52086">
        <ele>205.2</ele>
        <time>2018-06-17T14:36:54Z</time>
      </trkpt>
      <trkpt lat="44.29596" lon="1.52086">
        <ele>205.3</ele>
        <time>2018-06-17T14:37:01Z</time>
      </trkpt>
      <trkpt lat="44.2959" lon="1.52085">
        <ele>205.4</ele>
        <time>2018-06-17T14:37:07Z</time>
      </trkpt>
      <trkpt lat="44.29585" lon="1.52084">
        <ele>205.4</ele>
        <time>2018-06-17T14:37:12Z</time>
      </trkpt>
      <trkpt lat="44.2958" lon="1.52082">
        <ele>205.5</ele>
        <time>2018-06-17T14:37:17Z</time>
      </trkpt>
      <trkpt lat="44.29575" lon="1.52079">
        <ele>205.4</ele>
        <time>2018-06-17T14:37:23Z</time>
      </trkpt>
      <trkpt lat="44.2957" lon="1.5208">
        <ele>205.4</ele>
        <time>2018-06-17T14:37:29Z</time>
      </trkpt>
      <trkpt lat="44.29565" lon="1.52079">
        <ele>205.4</ele>
        <time>2018-06-17T14:37:34Z</time>
      </trkpt>
      <trkpt lat="44.2956" lon="1.52078">
        <ele>205.4</ele>
        <time>2018-06-17T14:37:39Z</time>
      </trkpt>
      <trkpt lat="44.29555" lon="1.52076">
        <ele>205.3</ele>
        <time>2018-06-17T14:37:42Z</time>
      </trkpt>
      <trkpt lat="44.2955" lon="1.52075">
        <ele>205.1</ele>
        <time>2018-06-17T14:37:46Z</time>
      </trkpt>
      <trkpt lat="44.29545" lon="1.52074">
        <ele>204.8</ele>
        <time>2018-06-17T14:37:50Z</time>
      </trkpt>
      <trkpt lat="44.2954" lon="1.52073">
        <ele>204.5</ele>
        <time>2018-06-17T14:37:55Z</time>
      </trkpt>
      <trkpt lat="44.29535" lon="1.52071">
        <ele>204.2</ele>
        <time>2018-06-17T14:38:01Z</time>
      </trkpt>
      <trkpt lat="44.29531" lon="1.52068">
        <ele>204</ele>
        <time>2018-06-17T14:38:09Z</time>
      </trkpt>
      <trkpt lat="44.29526" lon="1.52068">
        <ele>203.8</ele>
        <time>2018-06-17T14:38:15Z</time>
      </trkpt>
      <trkpt lat="44.2952" lon="1.52067">
        <ele>203.7</ele>
        <time>2018-06-17T14:38:20Z</time>
      </trkpt>
      <trkpt lat="44.29516" lon="1.52066">
        <ele>203.5</ele>
        <time>2018-06-17T14:38:24Z</time>
      </trkpt>
      <trkpt lat="44.29511" lon="1.52065">
        <ele>203.3</ele>
        <time>2018-06-17T14:38:29Z</time>
      </trkpt>
      <trkpt lat="44.29506" lon="1.52064">
        <ele>203.2</ele>
        <time>2018-06-17T14:38:35Z</time>
      </trkpt>
      <trkpt lat="44.29501" lon="1.52063">
        <ele>203.1</ele>
        <time>2018-06-17T14:38:42Z</time>
      </trkpt>
      <trkpt lat="44.29496" lon="1.52061">
        <ele>203.2</ele>
        <time>2018-06-17T14:38:49Z</time>
      </trkpt>
      <trkpt lat="44.29491" lon="1.52059">
        <ele>203.2</ele>
        <time>2018-06-17T14:38:52Z</time>
      </trkpt>
      <trkpt lat="44.29486" lon="1.52057">
        <ele>203.4</ele>
        <time>2018-06-17T14:38:57Z</time>
      </trkpt>
      <trkpt lat="44.29481" lon="1.52057">
        <ele>203.8</ele>
        <time>2018-06-17T14:39:02Z</time>
      </trkpt>
      <trkpt lat="44.29476" lon="1.52059">
        <ele>204.2</ele>
        <time>2018-06-17T14:39:08Z</time>
      </trkpt>
      <trkpt lat="44.29471" lon="1.52059">
        <ele>204.7</ele>
        <time>2018-06-17T14:39:14Z</time>
      </trkpt>
      <trkpt lat="44.29466" lon="1.52057">
        <ele>205.3</ele>
        <time>2018-06-17T14:39:19Z</time>
      </trkpt>
      <trkpt lat="44.29461" lon="1.52058">
        <ele>205.9</ele>
        <time>2018-06-17T14:39:25Z</time>
      </trkpt>
      <trkpt lat="44.29457" lon="1.52058">
        <ele>206.5</ele>
        <time>2018-06-17T14:39:31Z</time>
      </trkpt>
      <trkpt lat="44.29451" lon="1.52055">
        <ele>207.1</ele>
        <time>2018-06-17T14:39:37Z</time>
      </trkpt>
      <trkpt lat="44.29446" lon="1.52055">
        <ele>207.7</ele>
        <time>2018-06-17T14:39:41Z</time>
      </trkpt>
      <trkpt lat="44.29441" lon="1.52054">
        <ele>208.3</ele>
        <time>2018-06-17T14:39:49Z</time>
      </trkpt>
      <trkpt lat="44.29436" lon="1.52053">
        <ele>209.5</ele>
        <time>2018-06-17T14:39:54Z</time>
      </trkpt>
      <trkpt lat="44.29431" lon="1.52052">
        <ele>211.5</ele>
        <time>2018-06-17T14:39:59Z</time>
      </trkpt>
      <trkpt lat="44.29426" lon="1.52053">
        <ele>214</ele>
        <time>2018-06-17T14:40:03Z</time>
      </trkpt>
      <trkpt lat="44.29421" lon="1.52052">
        <ele>216.5</ele>
        <time>2018-06-17T14:40:08Z</time>
      </trkpt>
      <trkpt lat="44.29416" lon="1.52054">
        <ele>218.9</ele>
        <time>2018-06-17T14:40:53Z</time>
      </trkpt>
      <trkpt lat="44.29412" lon="1.52058">
        <ele>220.4</ele>
        <time>2018-06-17T14:41:53Z</time>
      </trkpt>
      <trkpt lat="44.29407" lon="1.52059">
        <ele>221.1</ele>
        <time>2018-06-17T14:43:09Z</time>
      </trkpt>
      <trkpt lat="44.29403" lon="1.52063">
        <ele>221</ele>
        <time>2018-06-17T14:43:18Z</time>
      </trkpt>
      <trkpt lat="44.29401" lon="1.52071">
        <ele>220.9</ele>
        <time>2018-06-17T14:43:25Z</time>
      </trkpt>
      <trkpt lat="44.29398" lon="1.52077">
        <ele>220.8</ele>
        <time>2018-06-17T14:43:31Z</time>
      </trkpt>
      <trkpt lat="44.29396" lon="1.52084">
        <ele>220.6</ele>
        <time>2018-06-17T14:43:36Z</time>
      </trkpt>
      <trkpt lat="44.29393" lon="1.52089">
        <ele>220.6</ele>
        <time>2018-06-17T14:43:40Z</time>
      </trkpt>
      <trkpt lat="44.29389" lon="1.52093">
        <ele>220.6</ele>
        <time>2018-06-17T14:43:44Z</time>
      </trkpt>
      <trkpt lat="44.29387" lon="1.521">
        <ele>220.6</ele>
        <time>2018-06-17T14:43:49Z</time>
      </trkpt>
      <trkpt lat="44.29385" lon="1.52106">
        <ele>220.6</ele>
        <time>2018-06-17T14:43:53Z</time>
      </trkpt>
      <trkpt lat="44.29383" lon="1.52111">
        <ele>220.8</ele>
        <time>2018-06-17T14:43:59Z</time>
      </trkpt>
      <trkpt lat="44.2938" lon="1.52118">
        <ele>220.9</ele>
        <time>2018-06-17T14:44:06Z</time>
      </trkpt>
      <trkpt lat="44.29376" lon="1.52122">
        <ele>221</ele>
        <time>2018-06-17T14:44:11Z</time>
      </trkpt>
      <trkpt lat="44.29374" lon="1.52128">
        <ele>221.1</ele>
        <time>2018-06-17T14:44:15Z</time>
      </trkpt>
      <trkpt lat="44.29371" lon="1.52134">
        <ele>221.3</ele>
        <time>2018-06-17T14:44:20Z</time>
      </trkpt>
      <trkpt lat="44.29368" lon="1.52138">
        <ele>221.5</ele>
        <time>2018-06-17T14:44:24Z</time>
      </trkpt>
      <trkpt lat="44.29365" lon="1.52144">
        <ele>221.8</ele>
        <time>2018-06-17T14:44:31Z</time>
      </trkpt>
      <trkpt lat="44.29362" lon="1.5215">
        <ele>222</ele>
        <time>2018-06-17T14:44:36Z</time>
      </trkpt>
      <trkpt lat="44.2936" lon="1.52157">
        <ele>222.2</ele>
        <time>2018-06-17T14:44:41Z</time>
      </trkpt>
      <trkpt lat="44.29358" lon="1.52164">
        <ele>222.3</ele>
        <time>2018-06-17T14:44:46Z</time>
      </trkpt>
      <trkpt lat="44.29355" lon="1.52168">
        <ele>222.5</ele>
        <time>2018-06-17T14:44:55Z</time>
      </trkpt>
      <trkpt lat="44.29352" lon="1.52174">
        <ele>222.5</ele>
        <time>2018-06-17T14:45:00Z</time>
      </trkpt>
      <trkpt lat="44.29349" lon="1.52179">
        <ele>222.5</ele>
        <time>2018-06-17T14:45:04Z</time>
      </trkpt>
      <trkpt lat="44.29346" lon="1.52185">
        <ele>222.6</ele>
        <time>2018-06-17T14:45:09Z</time>
      </trkpt>
      <trkpt lat="44.29344" lon="1.52191">
        <ele>222.7</ele>
        <time>2018-06-17T14:45:16Z</time>
      </trkpt>
      <trkpt lat="44.2934" lon="1.52196">
        <ele>222.7</ele>
        <time>2018-06-17T14:45:20Z</time>
      </trkpt>
      <trkpt lat="44.29338" lon="1.52203">
        <ele>222.7</ele>
        <time>2018-06-17T14:45:24Z</time>
      </trkpt>
      <trkpt lat="44.29336" lon="1.52209">
        <ele>222.7</ele>
        <time>2018-06-17T14:45:30Z</time>
      </trkpt>
      <trkpt lat="44.29334" lon="1.52216">
        <ele>222.9</ele>
        <time>2018-06-17T14:45:37Z</time>
      </trkpt>
      <trkpt lat="44.2933" lon="1.5222">
        <ele>223.1</ele>
        <time>2018-06-17T14:45:53Z</time>
      </trkpt>
      <trkpt lat="44.29327" lon="1.52225">
        <ele>223.4</ele>
        <time>2018-06-17T14:46:02Z</time>
      </trkpt>
      <trkpt lat="44.29324" lon="1.52232">
        <ele>223.8</ele>
        <time>2018-06-17T14:46:11Z</time>
      </trkpt>
      <trkpt lat="44.29321" lon="1.52237">
        <ele>224.3</ele>
        <time>2018-06-17T14:46:16Z</time>
      </trkpt>
      <trkpt lat="44.29318" lon="1.52243">
        <ele>224.8</ele>
        <time>2018-06-17T14:46:24Z</time>
      </trkpt>
      <trkpt lat="44.29315" lon="1.52248">
        <ele>225.2</ele>
        <time>2018-06-17T14:46:29Z</time>
      </trkpt>
      <trkpt lat="44.29312" lon="1.52253">
        <ele>225.6</ele>
        <time>2018-06-17T14:46:32Z</time>
      </trkpt>
      <trkpt lat="44.29309" lon="1.52258">
        <ele>226.1</ele>
        <time>2018-06-17T14:46:37Z</time>
      </trkpt>
      <trkpt lat="44.29305" lon="1.52264">
        <ele>226.4</ele>
        <time>2018-06-17T14:46:43Z</time>
      </trkpt>
      <trkpt lat="44.29302" lon="1.52269">
        <ele>226.8</ele>
        <time>2018-06-17T14:46:47Z</time>
      </trkpt>
      <trkpt lat="44.293" lon="1.52275">
        <ele>227.1</ele>
        <time>2018-06-17T14:46:54Z</time>
      </trkpt>
      <trkpt lat="44.29297" lon="1.52281">
        <ele>227.3</ele>
        <time>2018-06-17T14:47:00Z</time>
      </trkpt>
      <trkpt lat="44.29294" lon="1.52286">
        <ele>227.6</ele>
        <time>2018-06-17T14:47:03Z</time>
      </trkpt>
      <trkpt lat="44.2929" lon="1.52291">
        <ele>227.8</ele>
        <time>2018-06-17T14:47:07Z</time>
      </trkpt>
      <trkpt lat="44.29286" lon="1.52295">
        <ele>228</ele>
        <time>2018-06-17T14:47:12Z</time>
      </trkpt>
      <trkpt lat="44.29282" lon="1.52299">
        <ele>228.1</ele>
        <time>2018-06-17T14:47:16Z</time>
      </trkpt>
      <trkpt lat="44.29278" lon="1.52303">
        <ele>228.2</ele>
        <time>2018-06-17T14:47:20Z</time>
      </trkpt>
      <trkpt lat="44.29275" lon="1.52308">
        <ele>228.1</ele>
        <time>2018-06-17T14:47:26Z</time>
      </trkpt>
      <trkpt lat="44.29271" lon="1.52312">
        <ele>228</ele>
        <time>2018-06-17T14:47:31Z</time>
      </trkpt>
      <trkpt lat="44.29267" lon="1.52319">
        <ele>227.8</ele>
        <time>2018-06-17T14:47:38Z</time>
      </trkpt>
      <trkpt lat="44.29264" lon="1.52324">
        <ele>227.8</ele>
        <time>2018-06-17T14:47:45Z</time>
      </trkpt>
      <trkpt lat="44.2926" lon="1.5233">
        <ele>227.7</ele>
        <time>2018-06-17T14:47:51Z</time>
      </trkpt>
      <trkpt lat="44.29256" lon="1.52335">
        <ele>227.7</ele>
        <time>2018-06-17T14:47:55Z</time>
      </trkpt>
      <trkpt lat="44.29253" lon="1.5234">
        <ele>227.6</ele>
        <time>2018-06-17T14:48:01Z</time>
      </trkpt>
      <trkpt lat="44.29251" lon="1.52345">
        <ele>227.5</ele>
        <time>2018-06-17T14:48:07Z</time>
      </trkpt>
      <trkpt lat="44.29247" lon="1.52349">
        <ele>227.5</ele>
        <time>2018-06-17T14:48:10Z</time>
      </trkpt>
      <trkpt lat="44.29243" lon="1.52353">
        <ele>227.4</ele>
        <time>2018-06-17T14:48:16Z</time>
      </trkpt>
      <trkpt lat="44.29241" lon="1.52359">
        <ele>227.3</ele>
        <time>2018-06-17T14:48:22Z</time>
      </trkpt>
      <trkpt lat="44.29238" lon="1.52365">
        <ele>227.4</ele>
        <time>2018-06-17T14:48:26Z</time>
      </trkpt>
      <trkpt lat="44.29234" lon="1.52369">
        <ele>227.4</ele>
        <time>2018-06-17T14:48:30Z</time>
      </trkpt>
      <trkpt lat="44.2923" lon="1.52373">
        <ele>227.6</ele>
        <time>2018-06-17T14:48:35Z</time>
      </trkpt>
      <trkpt lat="44.29227" lon="1.52378">
        <ele>227.8</ele>
        <time>2018-06-17T14:48:39Z</time>
      </trkpt>
      <trkpt lat="44.29223" lon="1.52382">
        <ele>228</ele>
        <time>2018-06-17T14:48:42Z</time>
      </trkpt>
      <trkpt lat="44.29219" lon="1.52386">
        <ele>228.2</ele>
        <time>2018-06-17T14:48:47Z</time>
      </trkpt>
      <trkpt lat="44.29215" lon="1.5239">
        <ele>228.5</ele>
        <time>2018-06-17T14:48:52Z</time>
      </trkpt>
      <trkpt lat="44.29212" lon="1.52394">
        <ele>228.8</ele>
        <time>2018-06-17T14:48:56Z</time>
      </trkpt>
      <trkpt lat="44.29207" lon="1.52397">
        <ele>229.1</ele>
        <time>2018-06-17T14:49:01Z</time>
      </trkpt>
      <trkpt lat="44.29203" lon="1.52402">
        <ele>229.3</ele>
        <time>2018-06-17T14:49:07Z</time>
      </trkpt>
      <trkpt lat="44.29198" lon="1.52407">
        <ele>229.5</ele>
        <time>2018-06-17T14:49:12Z</time>
      </trkpt>
      <trkpt lat="44.29194" lon="1.52411">
        <ele>229.8</ele>
        <time>2018-06-17T14:49:20Z</time>
      </trkpt>
      <trkpt lat="44.2919" lon="1.52414">
        <ele>230.2</ele>
        <time>2018-06-17T14:49:24Z</time>
      </trkpt>
      <trkpt lat="44.29187" lon="1.52418">
        <ele>230.7</ele>
        <time>2018-06-17T14:49:30Z</time>
      </trkpt>
      <trkpt lat="44.29182" lon="1.5242">
        <ele>231.4</ele>
        <time>2018-06-17T14:49:39Z</time>
      </trkpt>
      <trkpt lat="44.29177" lon="1.52422">
        <ele>232.1</ele>
        <time>2018-06-17T14:49:46Z</time>
      </trkpt>
      <trkpt lat="44.29174" lon="1.52426">
        <ele>232.7</ele>
        <time>2018-06-17T14:49:50Z</time>
      </trkpt>
      <trkpt lat="44.29169" lon="1.52429">
        <ele>233.4</ele>
        <time>2018-06-17T14:49:55Z</time>
      </trkpt>
      <trkpt lat="44.29165" lon="1.52434">
        <ele>233.9</ele>
        <time>2018-06-17T14:50:00Z</time>
      </trkpt>
      <trkpt lat="44.29161" lon="1.52437">
        <ele>234.4</ele>
        <time>2018-06-17T14:50:03Z</time>
      </trkpt>
      <trkpt lat="44.29157" lon="1.52442">
        <ele>234.8</ele>
        <time>2018-06-17T14:50:07Z</time>
      </trkpt>
      <trkpt lat="44.29153" lon="1.52446">
        <ele>235</ele>
        <time>2018-06-17T14:50:12Z</time>
      </trkpt>
      <trkpt lat="44.29148" lon="1.52449">
        <ele>235.2</ele>
        <time>2018-06-17T14:50:18Z</time>
      </trkpt>
      <trkpt lat="44.29143" lon="1.52452">
        <ele>235.3</ele>
        <time>2018-06-17T14:50:23Z</time>
      </trkpt>
      <trkpt lat="44.2914" lon="1.52455">
        <ele>235.3</ele>
        <time>2018-06-17T14:50:27Z</time>
      </trkpt>
      <trkpt lat="44.29135" lon="1.52458">
        <ele>235.3</ele>
        <time>2018-06-17T14:50:31Z</time>
      </trkpt>
      <trkpt lat="44.29129" lon="1.52461">
        <ele>235.4</ele>
        <time>2018-06-17T14:50:35Z</time>
      </trkpt>
      <trkpt lat="44.29125" lon="1.52465">
        <ele>235.4</ele>
        <time>2018-06-17T14:50:40Z</time>
      </trkpt>
      <trkpt lat="44.29121" lon="1.52468">
        <ele>235.5</ele>
        <time>2018-06-17T14:50:44Z</time>
      </trkpt>
      <trkpt lat="44.29117" lon="1.52471">
        <ele>235.7</ele>
        <time>2018-06-17T14:50:48Z</time>
      </trkpt>
      <trkpt lat="44.29112" lon="1.52474">
        <ele>235.9</ele>
        <time>2018-06-17T14:50:53Z</time>
      </trkpt>
      <trkpt lat="44.29108" lon="1.52478">
        <ele>236.2</ele>
        <time>2018-06-17T14:50:58Z</time>
      </trkpt>
      <trkpt lat="44.29104" lon="1.52481">
        <ele>236.6</ele>
        <time>2018-06-17T14:51:02Z</time>
      </trkpt>
      <trkpt lat="44.29099" lon="1.52483">
        <ele>237.3</ele>
        <time>2018-06-17T14:51:08Z</time>
      </trkpt>
      <trkpt lat="44.29095" lon="1.52484">
        <ele>237.9</ele>
        <time>2018-06-17T14:51:12Z</time>
      </trkpt>
      <trkpt lat="44.29089" lon="1.52486">
        <ele>238.6</ele>
        <time>2018-06-17T14:51:17Z</time>
      </trkpt>
      <trkpt lat="44.29085" lon="1.52488">
        <ele>239.4</ele>
        <time>2018-06-17T14:51:22Z</time>
      </trkpt>
      <trkpt lat="44.2908" lon="1.5249">
        <ele>240.1</ele>
        <time>2018-06-17T14:51:28Z</time>
      </trkpt>
      <trkpt lat="44.29075" lon="1.52492">
        <ele>240.8</ele>
        <time>2018-06-17T14:51:32Z</time>
      </trkpt>
      <trkpt lat="44.2907" lon="1.52492">
        <ele>241.4</ele>
        <time>2018-06-17T14:51:40Z</time>
      </trkpt>
      <trkpt lat="44.29065" lon="1.52496">
        <ele>242</ele>
        <time>2018-06-17T14:51:45Z</time>
      </trkpt>
      <trkpt lat="44.29059" lon="1.52496">
        <ele>242.5</ele>
        <time>2018-06-17T14:51:51Z</time>
      </trkpt>
      <trkpt lat="44.29054" lon="1.52498">
        <ele>242.6</ele>
        <time>2018-06-17T14:51:56Z</time>
      </trkpt>
      <trkpt lat="44.29049" lon="1.52499">
        <ele>242.5</ele>
        <time>2018-06-17T14:52:00Z</time>
      </trkpt>
      <trkpt lat="44.29045" lon="1.52501">
        <ele>242.2</ele>
        <time>2018-06-17T14:52:07Z</time>
      </trkpt>
      <trkpt lat="44.29039" lon="1.52505">
        <ele>241.8</ele>
        <time>2018-06-17T14:52:13Z</time>
      </trkpt>
      <trkpt lat="44.29035" lon="1.52508">
        <ele>241.4</ele>
        <time>2018-06-17T14:52:19Z</time>
      </trkpt>
      <trkpt lat="44.29031" lon="1.52512">
        <ele>241.3</ele>
        <time>2018-06-17T14:52:23Z</time>
      </trkpt>
      <trkpt lat="44.29027" lon="1.52517">
        <ele>241.2</ele>
        <time>2018-06-17T14:52:29Z</time>
      </trkpt>
      <trkpt lat="44.29023" lon="1.5252">
        <ele>241.2</ele>
        <time>2018-06-17T14:52:34Z</time>
      </trkpt>
      <trkpt lat="44.29018" lon="1.52523">
        <ele>241.4</ele>
        <time>2018-06-17T14:52:40Z</time>
      </trkpt>
      <trkpt lat="44.29014" lon="1.52525">
        <ele>241.8</ele>
        <time>2018-06-17T14:52:48Z</time>
      </trkpt>
      <trkpt lat="44.29009" lon="1.52528">
        <ele>242.4</ele>
        <time>2018-06-17T14:52:54Z</time>
      </trkpt>
      <trkpt lat="44.29006" lon="1.52531">
        <ele>243.3</ele>
        <time>2018-06-17T14:53:01Z</time>
      </trkpt>
      <trkpt lat="44.29003" lon="1.52538">
        <ele>244.4</ele>
        <time>2018-06-17T14:53:13Z</time>
      </trkpt>
      <trkpt lat="44.28999" lon="1.52543">
        <ele>245.4</ele>
        <time>2018-06-17T14:53:18Z</time>
      </trkpt>
      <trkpt lat="44.28996" lon="1.52548">
        <ele>246.5</ele>
        <time>2018-06-17T14:53:22Z</time>
      </trkpt>
      <trkpt lat="44.28993" lon="1.52553">
        <ele>247.4</ele>
        <time>2018-06-17T14:53:28Z</time>
      </trkpt>
      <trkpt lat="44.28989" lon="1.52557">
        <ele>248</ele>
        <time>2018-06-17T14:53:34Z</time>
      </trkpt>
      <trkpt lat="44.28984" lon="1.52561">
        <ele>248.5</ele>
        <time>2018-06-17T14:53:40Z</time>
      </trkpt>
      <trkpt lat="44.28981" lon="1.52565">
        <ele>248.8</ele>
        <time>2018-06-17T14:53:46Z</time>
      </trkpt>
      <trkpt lat="44.28977" lon="1.52569">
        <ele>249</ele>
        <time>2018-06-17T14:53:50Z</time>
      </trkpt>
      <trkpt lat="44.28972" lon="1.52572">
        <ele>248.9</ele>
        <time>2018-06-17T14:53:55Z</time>
      </trkpt>
      <trkpt lat="44.28968" lon="1.52576">
        <ele>248.9</ele>
        <time>2018-06-17T14:54:00Z</time>
      </trkpt>
      <trkpt lat="44.28964" lon="1.5258">
        <ele>248.9</ele>
        <time>2018-06-17T14:54:07Z</time>
      </trkpt>
      <trkpt lat="44.2896" lon="1.52583">
        <ele>248.9</ele>
        <time>2018-06-17T14:54:12Z</time>
      </trkpt>
      <trkpt lat="44.28956" lon="1.52588">
        <ele>249</ele>
        <time>2018-06-17T14:54:18Z</time>
      </trkpt>
      <trkpt lat="44.28952" lon="1.52592">
        <ele>249.2</ele>
        <time>2018-06-17T14:54:23Z</time>
      </trkpt>
      <trkpt lat="44.28948" lon="1.52596">
        <ele>249.5</ele>
        <time>2018-06-17T14:54:28Z</time>
      </trkpt>
      <trkpt lat="44.28944" lon="1.52601">
        <ele>249.7</ele>
        <time>2018-06-17T14:54:33Z</time>
      </trkpt>
      <trkpt lat="44.28938" lon="1.52605">
        <ele>249.8</ele>
        <time>2018-06-17T14:54:38Z</time>
      </trkpt>
      <trkpt lat="44.28934" lon="1.52608">
        <ele>250</ele>
        <time>2018-06-17T14:54:43Z</time>
      </trkpt>
      <trkpt lat="44.2893" lon="1.52612">
        <ele>250.1</ele>
        <time>2018-06-17T14:54:50Z</time>
      </trkpt>
      <trkpt lat="44.28926" lon="1.52615">
        <ele>250.2</ele>
        <time>2018-06-17T14:54:55Z</time>
      </trkpt>
      <trkpt lat="44.28922" lon="1.52618">
        <ele>250.3</ele>
        <time>2018-06-17T14:55:00Z</time>
      </trkpt>
      <trkpt lat="44.28918" lon="1.52622">
        <ele>250.6</ele>
        <time>2018-06-17T14:55:06Z</time>
      </trkpt>
      <trkpt lat="44.28913" lon="1.52627">
        <ele>250.9</ele>
        <time>2018-06-17T14:55:10Z</time>
      </trkpt>
      <trkpt lat="44.28909" lon="1.52629">
        <ele>251.3</ele>
        <time>2018-06-17T14:55:16Z</time>
      </trkpt>
      <trkpt lat="44.28905" lon="1.52634">
        <ele>251.5</ele>
        <time>2018-06-17T14:55:21Z</time>
      </trkpt>
      <trkpt lat="44.289" lon="1.52638">
        <ele>251.7</ele>
        <time>2018-06-17T14:55:26Z</time>
      </trkpt>
      <trkpt lat="44.28896" lon="1.52643">
        <ele>252</ele>
        <time>2018-06-17T14:55:32Z</time>
      </trkpt>
      <trkpt lat="44.28892" lon="1.52646">
        <ele>252.4</ele>
        <time>2018-06-17T14:55:36Z</time>
      </trkpt>
      <trkpt lat="44.28887" lon="1.52649">
        <ele>252.8</ele>
        <time>2018-06-17T14:55:40Z</time>
      </trkpt>
      <trkpt lat="44.28884" lon="1.52654">
        <ele>253.2</ele>
        <time>2018-06-17T14:55:46Z</time>
      </trkpt>
      <trkpt lat="44.2888" lon="1.52658">
        <ele>253.5</ele>
        <time>2018-06-17T14:55:51Z</time>
      </trkpt>
      <trkpt lat="44.28875" lon="1.52663">
        <ele>253.7</ele>
        <time>2018-06-17T14:55:56Z</time>
      </trkpt>
      <trkpt lat="44.28872" lon="1.52666">
        <ele>253.7</ele>
        <time>2018-06-17T14:56:01Z</time>
      </trkpt>
      <trkpt lat="44.28867" lon="1.5267">
        <ele>253.8</ele>
        <time>2018-06-17T14:56:07Z</time>
      </trkpt>
      <trkpt lat="44.28863" lon="1.52674">
        <ele>253.8</ele>
        <time>2018-06-17T14:56:13Z</time>
      </trkpt>
      <trkpt lat="44.28859" lon="1.52679">
        <ele>253.8</ele>
        <time>2018-06-17T14:56:17Z</time>
      </trkpt>
      <trkpt lat="44.28855" lon="1.52682">
        <ele>253.9</ele>
        <time>2018-06-17T14:56:21Z</time>
      </trkpt>
      <trkpt lat="44.28851" lon="1.52686">
        <ele>254</ele>
        <time>2018-06-17T14:56:25Z</time>
      </trkpt>
      <trkpt lat="44.28846" lon="1.52689">
        <ele>254.1</ele>
        <time>2018-06-17T14:56:29Z</time>
      </trkpt>
      <trkpt lat="44.28842" lon="1.52693">
        <ele>254.3</ele>
        <time>2018-06-17T14:56:33Z</time>
      </trkpt>
      <trkpt lat="44.28838" lon="1.52695">
        <ele>254.5</ele>
        <time>2018-06-17T14:56:37Z</time>
      </trkpt>
      <trkpt lat="44.28833" lon="1.52698">
        <ele>254.7</ele>
        <time>2018-06-17T14:56:43Z</time>
      </trkpt>
      <trkpt lat="44.28828" lon="1.52701">
        <ele>254.8</ele>
        <time>2018-06-17T14:56:49Z</time>
      </trkpt>
      <trkpt lat="44.28824" lon="1.52704">
        <ele>254.9</ele>
        <time>2018-06-17T14:56:54Z</time>
      </trkpt>
      <trkpt lat="44.28819" lon="1.52707">
        <ele>254.9</ele>
        <time>2018-06-17T14:56:59Z</time>
      </trkpt>
      <trkpt lat="44.28815" lon="1.5271">
        <ele>254.8</ele>
        <time>2018-06-17T14:57:05Z</time>
      </trkpt>
      <trkpt lat="44.2881" lon="1.52712">
        <ele>254.7</ele>
        <time>2018-06-17T14:57:10Z</time>
      </trkpt>
      <trkpt lat="44.28806" lon="1.52715">
        <ele>254.5</ele>
        <time>2018-06-17T14:57:14Z</time>
      </trkpt>
      <trkpt lat="44.28801" lon="1.52717">
        <ele>254.2</ele>
        <time>2018-06-17T14:57:21Z</time>
      </trkpt>
      <trkpt lat="44.28796" lon="1.52715">
        <ele>253.9</ele>
        <time>2018-06-17T14:57:26Z</time>
      </trkpt>
      <trkpt lat="44.28791" lon="1.52711">
        <ele>253.5</ele>
        <time>2018-06-17T14:57:31Z</time>
      </trkpt>
      <trkpt lat="44.28788" lon="1.52704">
        <ele>253.2</ele>
        <time>2018-06-17T14:57:35Z</time>
      </trkpt>
      <trkpt lat="44.28785" lon="1.52699">
        <ele>252.8</ele>
        <time>2018-06-17T14:57:40Z</time>
      </trkpt>
      <trkpt lat="44.28782" lon="1.52693">
        <ele>252.4</ele>
        <time>2018-06-17T14:57:45Z</time>
      </trkpt>
      <trkpt lat="44.28778" lon="1.52688">
        <ele>252.1</ele>
        <time>2018-06-17T14:57:49Z</time>
      </trkpt>
      <trkpt lat="44.28775" lon="1.52682">
        <ele>251.7</ele>
        <time>2018-06-17T14:57:56Z</time>
      </trkpt>
      <trkpt lat="44.28772" lon="1.52677">
        <ele>251.5</ele>
        <time>2018-06-17T14:58:12Z</time>
      </trkpt>
      <trkpt lat="44.28769" lon="1.52672">
        <ele>251.2</ele>
        <time>2018-06-17T14:58:18Z</time>
      </trkpt>
      <trkpt lat="44.28766" lon="1.52665">
        <ele>251</ele>
        <time>2018-06-17T14:58:23Z</time>
      </trkpt>
      <trkpt lat="44.28763" lon="1.52659">
        <ele>250.8</ele>
        <time>2018-06-17T14:58:28Z</time>
      </trkpt>
      <trkpt lat="44.2876" lon="1.52654">
        <ele>250.8</ele>
        <time>2018-06-17T14:58:32Z</time>
      </trkpt>
      <trkpt lat="44.28756" lon="1.52649">
        <ele>250.8</ele>
        <time>2018-06-17T14:58:36Z</time>
      </trkpt>
      <trkpt lat="44.28752" lon="1.52643">
        <ele>250.7</ele>
        <time>2018-06-17T14:58:41Z</time>
      </trkpt>
      <trkpt lat="44.2875" lon="1.52638">
        <ele>250.6</ele>
        <time>2018-06-17T14:58:46Z</time>
      </trkpt>
      <trkpt lat="44.28747" lon="1.52632">
        <ele>250.4</ele>
        <time>2018-06-17T14:58:50Z</time>
      </trkpt>
      <trkpt lat="44.28744" lon="1.52626">
        <ele>250</ele>
        <time>2018-06-17T14:58:55Z</time>
      </trkpt>
      <trkpt lat="44.28737" lon="1.52614">
        <ele>249.6</ele>
        <time>2018-06-17T14:58:57Z</time>
      </trkpt>
      <trkpt lat="44.28733" lon="1.52607">
        <ele>249.3</ele>
        <time>2018-06-17T14:59:00Z</time>
      </trkpt>
      <trkpt lat="44.2873" lon="1.52601">
        <ele>249</ele>
        <time>2018-06-17T14:59:06Z</time>
      </trkpt>
      <trkpt lat="44.28727" lon="1.52596">
        <ele>248.8</ele>
        <time>2018-06-17T14:59:10Z</time>
      </trkpt>
      <trkpt lat="44.28723" lon="1.52592">
        <ele>248.8</ele>
        <time>2018-06-17T14:59:14Z</time>
      </trkpt>
      <trkpt lat="44.28719" lon="1.52587">
        <ele>248.8</ele>
        <time>2018-06-17T14:59:18Z</time>
      </trkpt>
      <trkpt lat="44.28716" lon="1.52582">
        <ele>248.9</ele>
        <time>2018-06-17T14:59:23Z</time>
      </trkpt>
      <trkpt lat="44.28713" lon="1.52577">
        <ele>249.1</ele>
        <time>2018-06-17T14:59:28Z</time>
      </trkpt>
      <trkpt lat="44.2871" lon="1.52571">
        <ele>249.2</ele>
        <time>2018-06-17T14:59:33Z</time>
      </trkpt>
      <trkpt lat="44.28706" lon="1.52565">
        <ele>249.3</ele>
        <time>2018-06-17T14:59:38Z</time>
      </trkpt>
      <trkpt lat="44.28703" lon="1.5256">
        <ele>249.4</ele>
        <time>2018-06-17T14:59:42Z</time>
      </trkpt>
      <trkpt lat="44.287" lon="1.52553">
        <ele>249.5</ele>
        <time>2018-06-17T14:59:48Z</time>
      </trkpt>
      <trkpt lat="44.28696" lon="1.52548">
        <ele>249.7</ele>
        <time>2018-06-17T14:59:52Z</time>
      </trkpt>
      <trkpt lat="44.28694" lon="1.52543">
        <ele>249.8</ele>
        <time>2018-06-17T14:59:56Z</time>
      </trkpt>
      <trkpt lat="44.28692" lon="1.52535">
        <ele>250</ele>
        <time>2018-06-17T15:00:00Z</time>
      </trkpt>
      <trkpt lat="44.28689" lon="1.52529">
        <ele>250.2</ele>
        <time>2018-06-17T15:00:05Z</time>
      </trkpt>
      <trkpt lat="44.28686" lon="1.52523">
        <ele>250.4</ele>
        <time>2018-06-17T15:00:09Z</time>
      </trkpt>
      <trkpt lat="44.28683" lon="1.52517">
        <ele>250.6</ele>
        <time>2018-06-17T15:00:24Z</time>
      </trkpt>
      <trkpt lat="44.28682" lon="1.52511">
        <ele>250.7</ele>
        <time>2018-06-17T15:00:28Z</time>
      </trkpt>
      <trkpt lat="44.2868" lon="1.52504">
        <ele>250.8</ele>
        <time>2018-06-17T15:00:32Z</time>
      </trkpt>
      <trkpt lat="44.28678" lon="1.52498">
        <ele>250.9</ele>
        <time>2018-06-17T15:00:38Z</time>
      </trkpt>
      <trkpt lat="44.28675" lon="1.52492">
        <ele>251.1</ele>
        <time>2018-06-17T15:00:42Z</time>
      </trkpt>
      <trkpt lat="44.28672" lon="1.52486">
        <ele>251.3</ele>
        <time>2018-06-17T15:00:47Z</time>
      </trkpt>
      <trkpt lat="44.28669" lon="1.52481">
        <ele>251.4</ele>
        <time>2018-06-17T15:00:50Z</time>
      </trkpt>
      <trkpt lat="44.28667" lon="1.52475">
        <ele>251.5</ele>
        <time>2018-06-17T15:00:54Z</time>
      </trkpt>
      <trkpt lat="44.28665" lon="1.52469">
        <ele>251.5</ele>
        <time>2018-06-17T15:00:58Z</time>
      </trkpt>
      <trkpt lat="44.28663" lon="1.52462">
        <ele>251.3</ele>
        <time>2018-06-17T15:01:03Z</time>
      </trkpt>
      <trkpt lat="44.28661" lon="1.52456">
        <ele>251.2</ele>
        <time>2018-06-17T15:01:08Z</time>
      </trkpt>
      <trkpt lat="44.28658" lon="1.52449">
        <ele>251.1</ele>
        <time>2018-06-17T15:01:12Z</time>
      </trkpt>
      <trkpt lat="44.28656" lon="1.52444">
        <ele>251</ele>
        <time>2018-06-17T15:01:16Z</time>
      </trkpt>
      <trkpt lat="44.28653" lon="1.52438">
        <ele>251.1</ele>
        <time>2018-06-17T15:01:22Z</time>
      </trkpt>
      <trkpt lat="44.2865" lon="1.52433">
        <ele>251.2</ele>
        <time>2018-06-17T15:01:25Z</time>
      </trkpt>
      <trkpt lat="44.28648" lon="1.52427">
        <ele>251.5</ele>
        <time>2018-06-17T15:01:30Z</time>
      </trkpt>
      <trkpt lat="44.28645" lon="1.52422">
        <ele>251.7</ele>
        <time>2018-06-17T15:01:34Z</time>
      </trkpt>
      <trkpt lat="44.28642" lon="1.52416">
        <ele>252.1</ele>
        <time>2018-06-17T15:01:38Z</time>
      </trkpt>
      <trkpt lat="44.28639" lon="1.52411">
        <ele>252.4</ele>
        <time>2018-06-17T15:01:43Z</time>
      </trkpt>
      <trkpt lat="44.28637" lon="1.52405">
        <ele>252.7</ele>
        <time>2018-06-17T15:01:47Z</time>
      </trkpt>
      <trkpt lat="44.28635" lon="1.52398">
        <ele>252.9</ele>
        <time>2018-06-17T15:01:52Z</time>
      </trkpt>
      <trkpt lat="44.28633" lon="1.52392">
        <ele>253.2</ele>
        <time>2018-06-17T15:01:56Z</time>
      </trkpt>
      <trkpt lat="44.28632" lon="1.52386">
        <ele>253.4</ele>
        <time>2018-06-17T15:02:00Z</time>
      </trkpt>
      <trkpt lat="44.28629" lon="1.5238">
        <ele>253.5</ele>
        <time>2018-06-17T15:02:06Z</time>
      </trkpt>
      <trkpt lat="44.28626" lon="1.52375">
        <ele>253.6</ele>
        <time>2018-06-17T15:02:09Z</time>
      </trkpt>
      <trkpt lat="44.28624" lon="1.52368">
        <ele>253.7</ele>
        <time>2018-06-17T15:02:14Z</time>
      </trkpt>
      <trkpt lat="44.28621" lon="1.52362">
        <ele>253.7</ele>
        <time>2018-06-17T15:02:18Z</time>
      </trkpt>
      <trkpt lat="44.28618" lon="1.52356">
        <ele>253.6</ele>
        <time>2018-06-17T15:02:23Z</time>
      </trkpt>
      <trkpt lat="44.28616" lon="1.52349">
        <ele>253.5</ele>
        <time>2018-06-17T15:02:29Z</time>
      </trkpt>
      <trkpt lat="44.28613" lon="1.52343">
        <ele>253.3</ele>
        <time>2018-06-17T15:02:34Z</time>
      </trkpt>
      <trkpt lat="44.28611" lon="1.52337">
        <ele>253.1</ele>
        <time>2018-06-17T15:02:38Z</time>
      </trkpt>
      <trkpt lat="44.28609" lon="1.52331">
        <ele>252.9</ele>
        <time>2018-06-17T15:02:43Z</time>
      </trkpt>
      <trkpt lat="44.28606" lon="1.52325">
        <ele>252.7</ele>
        <time>2018-06-17T15:02:46Z</time>
      </trkpt>
      <trkpt lat="44.28605" lon="1.52319">
        <ele>252.5</ele>
        <time>2018-06-17T15:03:05Z</time>
      </trkpt>
      <trkpt lat="44.28603" lon="1.52313">
        <ele>252.5</ele>
        <time>2018-06-17T15:03:10Z</time>
      </trkpt>
      <trkpt lat="44.28601" lon="1.52308">
        <ele>252.5</ele>
        <time>2018-06-17T15:03:14Z</time>
      </trkpt>
      <trkpt lat="44.28597" lon="1.52301">
        <ele>252.6</ele>
        <time>2018-06-17T15:03:19Z</time>
      </trkpt>
      <trkpt lat="44.28595" lon="1.52295">
        <ele>252.7</ele>
        <time>2018-06-17T15:03:24Z</time>
      </trkpt>
      <trkpt lat="44.28592" lon="1.5229">
        <ele>252.7</ele>
        <time>2018-06-17T15:03:30Z</time>
      </trkpt>
      <trkpt lat="44.28589" lon="1.52284">
        <ele>252.7</ele>
        <time>2018-06-17T15:03:36Z</time>
      </trkpt>
      <trkpt lat="44.28586" lon="1.52279">
        <ele>252.6</ele>
        <time>2018-06-17T15:03:40Z</time>
      </trkpt>
      <trkpt lat="44.28583" lon="1.52273">
        <ele>252.5</ele>
        <time>2018-06-17T15:03:43Z</time>
      </trkpt>
      <trkpt lat="44.28581" lon="1.52266">
        <ele>252.4</ele>
        <time>2018-06-17T15:03:47Z</time>
      </trkpt>
      <trkpt lat="44.28579" lon="1.5226">
        <ele>252.3</ele>
        <time>2018-06-17T15:03:50Z</time>
      </trkpt>
      <trkpt lat="44.28575" lon="1.52254">
        <ele>252.2</ele>
        <time>2018-06-17T15:03:54Z</time>
      </trkpt>
      <trkpt lat="44.28572" lon="1.52248">
        <ele>252.2</ele>
        <time>2018-06-17T15:03:58Z</time>
      </trkpt>
      <trkpt lat="44.28569" lon="1.52243">
        <ele>252.2</ele>
        <time>2018-06-17T15:04:02Z</time>
      </trkpt>
      <trkpt lat="44.28567" lon="1.52236">
        <ele>252.1</ele>
        <time>2018-06-17T15:04:08Z</time>
      </trkpt>
      <trkpt lat="44.28564" lon="1.52229">
        <ele>252.1</ele>
        <time>2018-06-17T15:04:13Z</time>
      </trkpt>
      <trkpt lat="44.28561" lon="1.52223">
        <ele>252</ele>
        <time>2018-06-17T15:04:18Z</time>
      </trkpt>
      <trkpt lat="44.28559" lon="1.52216">
        <ele>252</ele>
        <time>2018-06-17T15:04:23Z</time>
      </trkpt>
      <trkpt lat="44.28556" lon="1.5221">
        <ele>251.9</ele>
        <time>2018-06-17T15:04:28Z</time>
      </trkpt>
      <trkpt lat="44.28555" lon="1.52203">
        <ele>251.9</ele>
        <time>2018-06-17T15:04:32Z</time>
      </trkpt>
      <trkpt lat="44.28552" lon="1.52197">
        <ele>251.8</ele>
        <time>2018-06-17T15:04:37Z</time>
      </trkpt>
      <trkpt lat="44.2855" lon="1.52191">
        <ele>251.9</ele>
        <time>2018-06-17T15:04:43Z</time>
      </trkpt>
      <trkpt lat="44.28547" lon="1.52185">
        <ele>252</ele>
        <time>2018-06-17T15:04:48Z</time>
      </trkpt>
      <trkpt lat="44.28545" lon="1.52178">
        <ele>252.2</ele>
        <time>2018-06-17T15:04:52Z</time>
      </trkpt>
      <trkpt lat="44.28542" lon="1.52172">
        <ele>252.7</ele>
        <time>2018-06-17T15:04:56Z</time>
      </trkpt>
      <trkpt lat="44.2854" lon="1.52166">
        <ele>253.2</ele>
        <time>2018-06-17T15:05:02Z</time>
      </trkpt>
      <trkpt lat="44.28538" lon="1.52161">
        <ele>253.7</ele>
        <time>2018-06-17T15:05:07Z</time>
      </trkpt>
      <trkpt lat="44.28535" lon="1.52153">
        <ele>254.2</ele>
        <time>2018-06-17T15:05:12Z</time>
      </trkpt>
      <trkpt lat="44.28535" lon="1.52147">
        <ele>254.6</ele>
        <time>2018-06-17T15:05:17Z</time>
      </trkpt>
      <trkpt lat="44.28534" lon="1.5214">
        <ele>254.8</ele>
        <time>2018-06-17T15:05:21Z</time>
      </trkpt>
      <trkpt lat="44.28533" lon="1.52134">
        <ele>254.9</ele>
        <time>2018-06-17T15:05:25Z</time>
      </trkpt>
      <trkpt lat="44.28532" lon="1.52128">
        <ele>254.9</ele>
        <time>2018-06-17T15:05:28Z</time>
      </trkpt>
      <trkpt lat="44.28532" lon="1.52121">
        <ele>254.9</ele>
        <time>2018-06-17T15:05:31Z</time>
      </trkpt>
      <trkpt lat="44.28532" lon="1.52114">
        <ele>254.8</ele>
        <time>2018-06-17T15:05:36Z</time>
      </trkpt>
      <trkpt lat="44.28534" lon="1.52108">
        <ele>254.7</ele>
        <time>2018-06-17T15:05:40Z</time>
      </trkpt>
      <trkpt lat="44.28534" lon="1.52101">
        <ele>254.5</ele>
        <time>2018-06-17T15:05:44Z</time>
      </trkpt>
      <trkpt lat="44.28535" lon="1.52094">
        <ele>254.1</ele>
        <time>2018-06-17T15:05:49Z</time>
      </trkpt>
      <trkpt lat="44.28539" lon="1.52089">
        <ele>253.8</ele>
        <time>2018-06-17T15:05:53Z</time>
      </trkpt>
      <trkpt lat="44.2854" lon="1.52082">
        <ele>253.5</ele>
        <time>2018-06-17T15:05:58Z</time>
      </trkpt>
      <trkpt lat="44.28542" lon="1.52076">
        <ele>253.2</ele>
        <time>2018-06-17T15:06:04Z</time>
      </trkpt>
      <trkpt lat="44.28543" lon="1.52069">
        <ele>253.2</ele>
        <time>2018-06-17T15:06:11Z</time>
      </trkpt>
      <trkpt lat="44.28545" lon="1.52063">
        <ele>253.1</ele>
        <time>2018-06-17T15:06:16Z</time>
      </trkpt>
      <trkpt lat="44.28546" lon="1.52057">
        <ele>253.5</ele>
        <time>2018-06-17T15:06:23Z</time>
      </trkpt>
      <trkpt lat="44.28543" lon="1.5205">
        <ele>253.9</ele>
        <time>2018-06-17T15:06:28Z</time>
      </trkpt>
      <trkpt lat="44.28536" lon="1.52047">
        <ele>254.7</ele>
        <time>2018-06-17T15:06:30Z</time>
      </trkpt>
      <trkpt lat="44.28531" lon="1.52045">
        <ele>255.6</ele>
        <time>2018-06-17T15:06:35Z</time>
      </trkpt>
      <trkpt lat="44.28527" lon="1.52047">
        <ele>256.6</ele>
        <time>2018-06-17T15:06:53Z</time>
      </trkpt>
      <trkpt lat="44.28522" lon="1.52047">
        <ele>257.2</ele>
        <time>2018-06-17T15:07:03Z</time>
      </trkpt>
      <trkpt lat="44.28517" lon="1.52049">
        <ele>257.6</ele>
        <time>2018-06-17T15:07:12Z</time>
      </trkpt>
      <trkpt lat="44.28512" lon="1.52046">
        <ele>257.8</ele>
        <time>2018-06-17T15:07:46Z</time>
      </trkpt>
      <trkpt lat="44.28508" lon="1.52043">
        <ele>257.8</ele>
        <time>2018-06-17T15:08:00Z</time>
      </trkpt>
      <trkpt lat="44.28503" lon="1.52043">
        <ele>257.7</ele>
        <time>2018-06-17T15:08:06Z</time>
      </trkpt>
      <trkpt lat="44.28498" lon="1.52044">
        <ele>257.8</ele>
        <time>2018-06-17T15:08:12Z</time>
      </trkpt>
      <trkpt lat="44.28493" lon="1.52043">
        <ele>257.8</ele>
        <time>2018-06-17T15:08:16Z</time>
      </trkpt>
      <trkpt lat="44.28491" lon="1.52048">
        <ele>258.4</ele>
        <time>2018-06-17T15:08:24Z</time>
      </trkpt>
      <trkpt lat="44.28493" lon="1.52055">
        <ele>259.4</ele>
        <time>2018-06-17T15:08:29Z</time>
      </trkpt>
      <trkpt lat="44.28495" lon="1.52061">
        <ele>260.6</ele>
        <time>2018-06-17T15:08:32Z</time>
      </trkpt>
      <trkpt lat="44.28494" lon="1.52067">
        <ele>261.7</ele>
        <time>2018-06-17T15:08:39Z</time>
      </trkpt>
      <trkpt lat="44.28462" lon="1.52052">
        <ele>262.7</ele>
        <time>2018-06-17T15:12:39Z</time>
      </trkpt>
      <trkpt lat="44.28467" lon="1.52049">
        <ele>262.7</ele>
        <time>2018-06-17T15:12:43Z</time>
      </trkpt>
      <trkpt lat="44.28472" lon="1.52048">
        <ele>262.1</ele>
        <time>2018-06-17T15:12:48Z</time>
      </trkpt>
      <trkpt lat="44.28476" lon="1.52043">
        <ele>260.9</ele>
        <time>2018-06-17T15:12:54Z</time>
      </trkpt>
      <trkpt lat="44.28481" lon="1.5204">
        <ele>259.9</ele>
        <time>2018-06-17T15:13:02Z</time>
      </trkpt>
      <trkpt lat="44.28483" lon="1.52035">
        <ele>259.1</ele>
        <time>2018-06-17T15:13:10Z</time>
      </trkpt>
      <trkpt lat="44.28488" lon="1.52033">
        <ele>258.4</ele>
        <time>2018-06-17T15:13:18Z</time>
      </trkpt>
      <trkpt lat="44.2849" lon="1.52038">
        <ele>257.8</ele>
        <time>2018-06-17T15:13:37Z</time>
      </trkpt>
      <trkpt lat="44.2849" lon="1.52031">
        <ele>257.4</ele>
        <time>2018-06-17T15:14:10Z</time>
      </trkpt>
      <trkpt lat="44.28486" lon="1.52025">
        <ele>256.7</ele>
        <time>2018-06-17T15:14:14Z</time>
      </trkpt>
      <trkpt lat="44.28483" lon="1.52019">
        <ele>256.1</ele>
        <time>2018-06-17T15:14:20Z</time>
      </trkpt>
      <trkpt lat="44.2848" lon="1.52012">
        <ele>255.1</ele>
        <time>2018-06-17T15:14:29Z</time>
      </trkpt>
      <trkpt lat="44.28478" lon="1.52006">
        <ele>254.3</ele>
        <time>2018-06-17T15:14:37Z</time>
      </trkpt>
      <trkpt lat="44.28477" lon="1.51999">
        <ele>253.2</ele>
        <time>2018-06-17T15:14:42Z</time>
      </trkpt>
      <trkpt lat="44.28475" lon="1.51993">
        <ele>252.4</ele>
        <time>2018-06-17T15:14:47Z</time>
      </trkpt>
      <trkpt lat="44.28474" lon="1.51986">
        <ele>251.8</ele>
        <time>2018-06-17T15:14:56Z</time>
      </trkpt>
      <trkpt lat="44.28473" lon="1.5198">
        <ele>251.6</ele>
        <time>2018-06-17T15:15:04Z</time>
      </trkpt>
      <trkpt lat="44.28474" lon="1.51973">
        <ele>251.6</ele>
        <time>2018-06-17T15:15:53Z</time>
      </trkpt>
      <trkpt lat="44.28472" lon="1.51966">
        <ele>252.2</ele>
        <time>2018-06-17T15:15:59Z</time>
      </trkpt>
      <trkpt lat="44.28473" lon="1.5196">
        <ele>252.6</ele>
        <time>2018-06-17T15:16:04Z</time>
      </trkpt>
      <trkpt lat="44.28475" lon="1.51953">
        <ele>253.1</ele>
        <time>2018-06-17T15:16:09Z</time>
      </trkpt>
      <trkpt lat="44.28478" lon="1.5194">
        <ele>253.6</ele>
        <time>2018-06-17T15:16:13Z</time>
      </trkpt>
      <trkpt lat="44.28477" lon="1.51933">
        <ele>254</ele>
        <time>2018-06-17T15:16:15Z</time>
      </trkpt>
      <trkpt lat="44.28476" lon="1.51927">
        <ele>254.3</ele>
        <time>2018-06-17T15:16:26Z</time>
      </trkpt>
      <trkpt lat="44.2848" lon="1.51931">
        <ele>254.6</ele>
        <time>2018-06-17T15:17:06Z</time>
      </trkpt>
      <trkpt lat="44.28485" lon="1.5193">
        <ele>254.6</ele>
        <time>2018-06-17T15:17:16Z</time>
      </trkpt>
      <trkpt lat="44.28489" lon="1.51928">
        <ele>255</ele>
        <time>2018-06-17T15:17:23Z</time>
      </trkpt>
      <trkpt lat="44.28493" lon="1.51925">
        <ele>255.4</ele>
        <time>2018-06-17T15:17:28Z</time>
      </trkpt>
      <trkpt lat="44.28497" lon="1.51921">
        <ele>255.7</ele>
        <time>2018-06-17T15:17:37Z</time>
      </trkpt>
      <trkpt lat="44.28502" lon="1.51918">
        <ele>255.9</ele>
        <time>2018-06-17T15:17:43Z</time>
      </trkpt>
      <trkpt lat="44.28506" lon="1.51919">
        <ele>255.8</ele>
        <time>2018-06-17T15:17:55Z</time>
      </trkpt>
      <trkpt lat="44.28508" lon="1.51925">
        <ele>255.5</ele>
        <time>2018-06-17T15:18:00Z</time>
      </trkpt>
      <trkpt lat="44.28508" lon="1.51931">
        <ele>255.2</ele>
        <time>2018-06-17T15:18:05Z</time>
      </trkpt>
      <trkpt lat="44.28511" lon="1.51936">
        <ele>255</ele>
        <time>2018-06-17T15:18:10Z</time>
      </trkpt>
      <trkpt lat="44.28514" lon="1.5194">
        <ele>254.9</ele>
        <time>2018-06-17T15:18:20Z</time>
      </trkpt>
      <trkpt lat="44.28519" lon="1.51941">
        <ele>255</ele>
        <time>2018-06-17T15:18:35Z</time>
      </trkpt>
      <trkpt lat="44.28523" lon="1.51939">
        <ele>255</ele>
        <time>2018-06-17T15:18:41Z</time>
      </trkpt>
      <trkpt lat="44.28528" lon="1.51938">
        <ele>255.1</ele>
        <time>2018-06-17T15:18:47Z</time>
      </trkpt>
      <trkpt lat="44.28533" lon="1.51937">
        <ele>255.1</ele>
        <time>2018-06-17T15:18:53Z</time>
      </trkpt>
      <trkpt lat="44.28537" lon="1.51937">
        <ele>255</ele>
        <time>2018-06-17T15:18:59Z</time>
      </trkpt>
      <trkpt lat="44.28542" lon="1.51939">
        <ele>255.1</ele>
        <time>2018-06-17T15:19:08Z</time>
      </trkpt>
      <trkpt lat="44.28545" lon="1.51944">
        <ele>255.1</ele>
        <time>2018-06-17T15:19:15Z</time>
      </trkpt>
      <trkpt lat="44.28546" lon="1.5195">
        <ele>255.5</ele>
        <time>2018-06-17T15:19:23Z</time>
      </trkpt>
      <trkpt lat="44.2855" lon="1.51956">
        <ele>255.9</ele>
        <time>2018-06-17T15:19:33Z</time>
      </trkpt>
      <trkpt lat="44.28553" lon="1.5196">
        <ele>256.4</ele>
        <time>2018-06-17T15:19:38Z</time>
      </trkpt>
      <trkpt lat="44.28555" lon="1.51967">
        <ele>256.7</ele>
        <time>2018-06-17T15:19:49Z</time>
      </trkpt>
      <trkpt lat="44.28559" lon="1.51971">
        <ele>256.9</ele>
        <time>2018-06-17T15:20:06Z</time>
      </trkpt>
      <trkpt lat="44.28558" lon="1.51978">
        <ele>256.9</ele>
        <time>2018-06-17T15:20:17Z</time>
      </trkpt>
      <trkpt lat="44.28561" lon="1.51982">
        <ele>256.7</ele>
        <time>2018-06-17T15:20:54Z</time>
      </trkpt>
      <trkpt lat="44.28565" lon="1.51977">
        <ele>256.5</ele>
        <time>2018-06-17T15:21:12Z</time>
      </trkpt>
      <trkpt lat="44.28568" lon="1.51973">
        <ele>256.4</ele>
        <time>2018-06-17T15:21:23Z</time>
      </trkpt>
      <trkpt lat="44.28569" lon="1.51966">
        <ele>256.4</ele>
        <time>2018-06-17T15:21:30Z</time>
      </trkpt>
      <trkpt lat="44.28573" lon="1.51963">
        <ele>256.5</ele>
        <time>2018-06-17T15:21:37Z</time>
      </trkpt>
      <trkpt lat="44.28577" lon="1.51959">
        <ele>256.5</ele>
        <time>2018-06-17T15:21:42Z</time>
      </trkpt>
      <trkpt lat="44.28578" lon="1.51952">
        <ele>256.6</ele>
        <time>2018-06-17T15:21:49Z</time>
      </trkpt>
      <trkpt lat="44.28579" lon="1.51945">
        <ele>256.7</ele>
        <time>2018-06-17T15:21:55Z</time>
      </trkpt>
      <trkpt lat="44.28577" lon="1.51938">
        <ele>256.6</ele>
        <time>2018-06-17T15:22:02Z</time>
      </trkpt>
      <trkpt lat="44.28576" lon="1.51932">
        <ele>256.3</ele>
        <time>2018-06-17T15:22:07Z</time>
      </trkpt>
      <trkpt lat="44.28575" lon="1.51924">
        <ele>255.9</ele>
        <time>2018-06-17T15:22:13Z</time>
      </trkpt>
      <trkpt lat="44.28575" lon="1.51918">
        <ele>256.5</ele>
        <time>2018-06-17T15:22:17Z</time>
      </trkpt>
      <trkpt lat="44.28575" lon="1.51911">
        <ele>256</ele>
        <time>2018-06-17T15:22:32Z</time>
      </trkpt>
      <trkpt lat="44.28577" lon="1.51905">
        <ele>255.7</ele>
        <time>2018-06-17T15:22:37Z</time>
      </trkpt>
      <trkpt lat="44.28577" lon="1.51898">
        <ele>254.5</ele>
        <time>2018-06-17T15:23:15Z</time>
      </trkpt>
    </trkseg>
  </trk>
</gpx>